[[{"header":{"parameterUnit":"m.s-1","parameterCategory":1,"la1":31.0,"la2":29.5877,"lo1":-88.7671,"lo2":-86.6584,"dx":0.0162,"dy":0.0185,"nx":115,"ny":88,"refTime":"2023-02-02T18:00:00:Z","depth":0,"parameterNumber":2,"parameterNumberName":"U-component_of_WINDS"},"data":[0.0,0.0,0.0,0.0,0.0,0.0,0.0,0.0,0.0,0.0,0.0,0.0,0.0,0.0,0.0,0.0,0.0,0.0,0.0,0.0,0.0,0.0,0.0,0.0,0.0,0.0,0.0,0.0,0.0,0.0,0.0,0.0,0.0,0.0,0.0,0.0,0.0,0.0,0.0,0.0,0.0,0.0,0.0,0.0,0.0,0.0,0.0,0.0,0.0,0.0,0.0,0.0,0.0,0.0,0.0,0.0,0.0,0.0,0.0,0.0,0.0,0.0,0.0,0.0,0.0,0.0,0.0,0.0,0.0,0.0,0.0,0.0,0.0,0.0,0.0,0.0,0.0,0.0,0.0,0.0,0.0,0.0,0.0,0.0,0.0,0.0,0.0,0.0,0.0,0.0,0.0,0.0,0.0,0.0,0.0,0.0,0.0,0.0,0.0,0.0,0.0,0.0,0.0,0.0,0.0,0.0,0.0,0.0,0.0,0.0,0.0,0.0,0.0,0.0,0.0,0.0,0.0,0.0,0.0,0.0,0.0,0.0,0.0,0.0,0.0,0.0,0.0,0.0,0.0,0.0,0.0,0.0,0.0,0.0,0.0,0.0,0.0,0.0,0.0,0.0,0.0,0.0,0.0,0.0,0.0,0.0,0.0,0.0,0.0,0.0,0.0,0.0,0.0,0.0,0.0,0.0,0.0,0.0,0.0,0.0,0.0,0.0,0.0,0.0,0.0,0.0,0.0,0.0,0.0,0.0,0.0,0.0,0.0,0.0,0.0,0.0,0.0,0.0,0.0,0.0,0.0,0.0,0.0,0.0,0.0,0.0,0.0,0.0,0.0,0.0,0.0,0.0,0.0,0.0,0.0,0.0,0.0,0.0,0.0,0.0,0.0,0.0,0.0,0.0,0.0,0.0,0.0,0.0,0.0,0.0,0.0,0.0,0.0,0.0,0.0,0.0,0.0,0.0,0.0,0.0,0.0,0.0,0.0,0.0,0.0,0.0,0.0,0.0,0.0,0.0,0.0,0.0,0.0,0.0,0.0,0.0,0.0,0.0,0.0,0.0,0.0,0.0,0.0,0.0,0.0,0.0,0.0,0.0,0.0,0.0,0.0,0.0,0.0,0.0,0.0,0.0,0.0,0.0,0.0,0.0,0.0,0.0,0.0,0.0,0.0,0.0,0.0,0.0,0.0,0.0,0.0,0.0,0.0,0.0,0.0,0.0,0.0,0.0,0.0,0.0,0.0,0.0,0.0,0.0,0.0,0.0,0.0,0.0,0.0,0.0,0.0,0.0,0.0,0.0,0.0,0.0,0.0,0.0,0.0,0.0,0.0,0.0,0.0,0.0,0.0,0.0,0.0,0.0,0.0,0.0,0.0,0.0,0.0,0.0,0.0,0.0,0.0,0.0,0.0,0.0,0.0,0.0,0.0,0.0,0.0,0.0,0.0,0.0,0.0,0.0,0.0,0.0,0.0,0.0,0.0,0.0,0.0,0.0,0.0,0.0,0.0,0.0,0.0,0.0,0.0,0.0,0.0,0.0,0.0,0.0,0.0,0.0,0.0,0.0,0.0,0.0,0.0,0.0,0.0,0.0,0.0,0.0,0.0,0.0,0.0,0.0,0.0,0.0,0.0,0.0,0.0,0.0,0.0,0.0,0.0,0.0,0.0,0.0,0.0,0.0,0.0,0.0,0.0,0.0,0.0,0.0,0.0,0.0,0.0,0.0,0.0,0.0,0.0,0.0,0.0,0.0,0.0,0.0,0.0,0.0,0.0,0.0,0.0,0.0,0.0,0.0,0.0,0.0,0.0,0.0,0.0,0.0,0.0,0.0,0.0,0.0,0.0,0.0,0.0,0.0,0.0,0.0,0.0,0.0,0.0,0.0,0.0,0.0,0.0,0.0,0.0,0.0,0.0,0.0,0.0,0.0,0.0,0.0,0.0,0.0,0.0,0.0,0.0,0.0,0.0,0.0,0.0,0.0,0.0,0.0,0.0,0.0,0.0,0.0,0.0,0.0,0.0,0.0,0.0,0.0,0.0,0.0,0.0,0.0,0.0,0.0,0.0,0.0,0.0,0.0,0.0,0.0,0.0,0.0,0.0,0.0,0.0,0.0,0.0,0.0,0.0,0.0,0.0,0.0,0.0,0.0,0.0,0.0,0.0,0.0,0.0,0.0,0.0,0.0,0.0,0.0,0.0,0.0,0.0,0.0,0.0,0.0,0.0,0.0,0.0,0.0,0.0,0.0,0.0,0.0,0.0,0.0,0.0,0.0,0.0,0.0,0.0,0.0,0.0,0.0,0.0,0.0,0.0,0.0,0.0,0.0,0.0,0.0,0.0,0.0,0.0,0.0,0.0,0.0,0.0,0.0,0.0,0.0,0.0,0.0,0.0,0.0,0.0,0.0,0.0,0.0,0.0,0.0,0.0,0.0,0.0,0.0,0.0,0.0,0.0,0.0,0.0,0.0,0.0,0.0,0.0,0.0,0.0,0.0,0.0,0.0,0.0,0.0,0.0,0.0,0.0,0.0,0.0,0.0,0.0,0.0,0.0,0.0,0.0,0.0,0.0,0.0,0.0,0.0,0.0,0.0,0.0,0.0,0.0,0.0,0.0,0.0,0.0,0.0,0.0,0.0,0.0,0.0,0.0,0.0,0.0,0.0,0.0,0.0,0.0,0.0,0.0,0.0,0.0,0.0,0.0,0.0,0.0,0.0,0.0,0.0,0.0,0.0,0.0,0.0,0.0,0.0,0.0,0.0,0.0,0.0,0.0,0.0,0.0,0.0,0.0,0.0,0.0,0.0,0.0,0.0,0.0,0.0,0.0,0.0,0.0,0.0,0.0,0.0,0.0,0.0,0.0,0.0,0.0,0.0,0.0,0.0,0.0,0.0,0.0,0.0,0.0,0.0,0.0,0.0,0.0,0.0,0.0,0.0,0.0,0.0,0.0,0.0,0.0,0.0,0.0,0.0,0.0,0.0,0.0,0.0,0.0,0.0,0.0,0.0,0.0,0.0,0.0,0.0,0.0,0.0,0.0,0.0,0.0,0.0,0.0,0.0,0.0,0.0,0.0,0.0,0.0,0.0,0.0,0.0,0.0,0.0,0.0,0.0,0.0,0.0,0.0,0.0,0.0,0.0,0.0,0.0,0.0,0.0,0.0,0.0,0.0,0.0,0.0,0.0,0.0,0.0,0.0,0.0,0.0,0.0,0.0,0.0,0.0,0.0,0.0,0.0,0.0,0.0,0.0,0.0,0.0,0.0,0.0,0.0,0.0,0.0,0.0,0.0,0.0,0.0,0.0,0.0,0.0,0.0,0.0,0.0,0.0,0.0,0.0,0.0,0.0,0.0,0.0,0.0,0.0,0.0,0.0,0.0,0.0,0.0,0.0,0.0,0.0,0.0,0.0,0.0,0.0,0.0,0.0,0.0,0.0,0.0,0.0,0.0,0.0,0.0,0.0,0.0,0.0,0.0,0.0,0.0,0.0,0.0,0.0,0.0,0.0,0.0,0.0,0.0,0.0,0.0,0.0,0.0,0.0,0.0,0.0,0.0,0.0,0.0,0.0,0.0,0.0,0.0,0.0,0.0,0.0,0.0,0.0,0.0,0.0,0.0,0.0,0.0,0.0,0.0,0.0,0.0,0.0,0.0,0.0,0.0,0.0,0.0,0.0,0.0,0.0,0.0,0.0,0.0,0.0,0.0,0.0,0.0,0.0,0.0,0.0,0.0,0.0,0.0,0.0,0.0,0.0,0.0,0.0,0.0,0.0,0.0,0.0,0.0,0.0,0.0,0.0,0.0,0.0,0.0,0.0,0.0,0.0,0.0,0.0,0.0,0.0,0.0,0.0,0.0,0.0,0.0,0.0,0.0,0.0,0.0,0.0,0.0,0.0,0.0,0.0,0.0,0.0,0.0,0.0,0.0,0.0,0.0,0.0,0.0,0.0,0.0,0.0,0.0,0.0,0.0,0.0,0.0,0.0,0.0,0.0,0.0,0.0,0.0,0.0,0.0,0.0,0.0,0.0,0.0,0.0,0.0,0.0,0.0,0.0,0.0,0.0,0.0,0.0,0.0,0.0,0.0,0.0,0.0,0.0,0.0,0.0,0.0,0.0,0.0,0.0,0.0,0.0,0.0,0.0,0.0,0.0,0.0,0.0,0.0,0.0,0.0,0.0,0.0,0.0,0.0,0.0,0.0,0.0,0.0,0.0,0.0,0.0,0.0,0.0,0.0,0.0,0.0,0.0,0.0,0.0,0.0,0.0,0.0,-2.2197,0.0,0.0,0.0,0.0,0.0,0.0,0.0,0.0,0.0,0.0,0.0,0.0,0.0,0.0,0.0,0.0,0.0,0.0,0.0,0.0,0.0,0.0,0.0,0.0,0.0,0.0,0.0,0.0,0.0,0.0,0.0,0.0,0.0,0.0,0.0,0.0,0.0,0.0,0.0,0.0,0.0,0.0,0.0,0.0,0.0,0.0,0.0,0.0,0.0,0.0,0.0,0.0,0.0,0.0,0.0,0.0,0.0,0.0,0.0,0.0,0.0,0.0,0.0,0.0,0.0,0.0,0.0,0.0,0.0,0.0,0.0,0.0,0.0,0.0,0.0,0.0,0.0,0.0,0.0,0.0,0.0,0.0,0.0,0.0,0.0,0.0,0.0,0.0,0.0,0.0,0.0,0.0,0.0,0.0,0.0,0.0,0.0,0.0,0.0,0.0,0.0,0.0,0.0,0.0,0.0,0.0,0.0,0.0,0.0,0.0,-2.2197,-2.2197,-2.2197,-2.2197,-2.2197,0.0,0.0,0.0,0.0,0.0,0.0,0.0,0.0,0.0,0.0,0.0,0.0,0.0,0.0,0.0,0.0,0.0,0.0,0.0,0.0,0.0,0.0,0.0,0.0,0.0,0.0,0.0,0.0,0.0,0.0,0.0,0.0,0.0,0.0,0.0,0.0,0.0,0.0,0.0,0.0,0.0,0.0,0.0,0.0,0.0,0.0,0.0,0.0,0.0,0.0,0.0,0.0,0.0,0.0,0.0,0.0,0.0,0.0,0.0,0.0,0.0,0.0,0.0,0.0,0.0,0.0,0.0,0.0,0.0,0.0,0.0,0.0,0.0,0.0,0.0,0.0,0.0,0.0,0.0,0.0,0.0,0.0,0.0,0.0,0.0,0.0,0.0,0.0,0.0,0.0,0.0,0.0,0.0,0.0,0.0,0.0,0.0,0.0,0.0,0.0,0.0,0.0,0.0,0.0,0.0,0.0,0.0,0.0,0.0,0.0,0.0,0.0,-2.2197,-2.2166,-2.208,0.0,0.0,0.0,0.0,0.0,0.0,0.0,0.0,0.0,0.0,0.0,0.0,0.0,0.0,0.0,0.0,0.0,0.0,0.0,0.0,0.0,0.0,0.0,0.0,0.0,0.0,0.0,0.0,0.0,0.0,0.0,0.0,0.0,0.0,0.0,0.0,0.0,0.0,0.0,0.0,0.0,0.0,0.0,0.0,0.0,0.0,0.0,0.0,0.0,0.0,0.0,0.0,0.0,0.0,0.0,0.0,0.0,0.0,0.0,0.0,0.0,0.0,0.0,0.0,0.0,0.0,0.0,0.0,0.0,0.0,0.0,0.0,0.0,0.0,0.0,0.0,0.0,0.0,0.0,0.0,0.0,0.0,0.0,0.0,0.0,0.0,0.0,0.0,0.0,0.0,0.0,0.0,0.0,0.0,0.0,0.0,0.0,0.0,0.0,0.0,0.0,0.0,0.0,0.0,0.0,0.0,0.0,0.0,0.0,0.0,-2.2197,-2.2197,-2.2197,0.0,-2.1776,0.0,0.0,0.0,0.0,0.0,0.0,0.0,0.0,0.0,0.0,0.0,0.0,0.0,0.0,0.0,0.0,0.0,0.0,0.0,0.0,0.0,0.0,0.0,0.0,0.0,0.0,0.0,0.0,0.0,0.0,0.0,0.0,0.0,0.0,0.0,0.0,0.0,0.0,0.0,0.0,0.0,0.0,0.0,0.0,0.0,0.0,0.0,0.0,0.0,0.0,0.0,0.0,0.0,0.0,0.0,0.0,0.0,0.0,0.0,0.0,0.0,0.0,0.0,0.0,0.0,0.0,0.0,0.0,0.0,0.0,0.0,0.0,0.0,0.0,0.0,0.0,0.0,0.0,0.0,0.0,0.0,0.0,0.0,0.0,0.0,0.0,0.0,0.0,0.0,0.0,0.0,0.0,0.0,0.0,0.0,0.0,0.0,0.0,0.0,0.0,0.0,0.0,0.0,0.0,0.0,0.0,0.0,0.0,0.0,0.0,-2.1831,-2.1612,-2.18,-2.1769,0.0,0.0,0.0,0.0,0.0,0.0,0.0,0.0,0.0,0.0,0.0,0.0,0.0,0.0,0.0,0.0,0.0,0.0,0.0,0.0,0.0,0.0,0.0,0.0,0.0,0.0,0.0,0.0,0.0,0.0,0.0,0.0,0.0,0.0,0.0,0.0,0.0,0.0,0.0,0.0,0.0,0.0,0.0,0.0,0.0,0.0,0.0,0.0,0.0,0.0,0.0,0.0,0.0,0.0,0.0,0.0,0.0,0.0,0.0,0.0,0.0,0.0,0.0,0.0,0.0,0.0,0.0,0.0,0.0,0.0,0.0,0.0,0.0,0.0,0.0,0.0,0.0,0.0,0.0,0.0,0.0,0.0,0.0,0.0,0.0,0.0,0.0,0.0,0.0,0.0,0.0,0.0,0.0,0.0,0.0,0.0,0.0,0.0,0.0,0.0,0.0,0.0,0.0,0.0,0.0,0.0,0.0,0.0,0.0,0.0,-2.1714,-2.1526,-2.1233,-2.1242,-2.1092,-2.0764,0.0,0.0,0.0,0.0,0.0,0.0,0.0,0.0,0.0,0.0,0.0,0.0,0.0,0.0,0.0,0.0,0.0,0.0,0.0,0.0,0.0,0.0,0.0,0.0,0.0,0.0,0.0,0.0,0.0,0.0,0.0,0.0,0.0,0.0,0.0,0.0,0.0,0.0,0.0,0.0,0.0,0.0,0.0,0.0,0.0,0.0,0.0,0.0,0.0,0.0,0.0,0.0,0.0,0.0,0.0,0.0,0.0,0.0,0.0,0.0,0.0,0.0,0.0,0.0,0.0,0.0,0.0,0.0,0.0,0.0,0.0,0.0,0.0,0.0,0.0,0.0,0.0,0.0,0.0,0.0,0.0,0.0,0.0,0.0,0.0,0.0,0.0,0.0,0.0,0.0,0.0,0.0,0.0,0.0,0.0,0.0,0.0,0.0,0.0,0.0,0.0,0.0,0.0,0.0,0.0,0.0,0.0,0.0,-2.1714,-2.1683,-2.1494,-2.1138,-2.0526,-2.0009,0.0,0.0,0.0,0.0,0.0,0.0,0.0,0.0,0.0,0.0,0.0,0.0,0.0,0.0,0.0,0.0,0.0,0.0,0.0,0.0,0.0,0.0,0.0,0.0,0.0,0.0,0.0,0.0,0.0,0.0,0.0,0.0,0.0,0.0,0.0,0.0,0.0,0.0,0.0,0.0,0.0,0.0,0.0,0.0,0.0,0.0,0.0,0.0,0.0,0.0,0.0,0.0,0.0,0.0,0.0,0.0,0.0,0.0,0.0,0.0,0.0,0.0,0.0,0.0,0.0,0.0,0.0,0.0,0.0,0.0,0.0,0.0,0.0,0.0,0.0,0.0,0.0,0.0,0.0,0.0,0.0,0.0,0.0,0.0,0.0,0.0,0.0,0.0,0.0,0.0,0.0,0.0,0.0,0.0,0.0,0.0,0.0,0.0,0.0,0.0,0.0,0.0,0.0,0.0,0.0,0.0,0.0,0.0,0.0,-2.0687,-1.9814,-1.9288,-1.9156,-1.9552,-1.9519,0.0,0.0,0.0,0.0,0.0,0.0,0.0,0.0,0.0,0.0,0.0,0.0,0.0,0.0,0.0,0.0,0.0,0.0,0.0,0.0,0.0,0.0,0.0,0.0,0.0,0.0,0.0,0.0,0.0,0.0,0.0,0.0,0.0,0.0,0.0,0.0,0.0,0.0,0.0,0.0,0.0,0.0,0.0,0.0,0.0,0.0,0.0,0.0,0.0,0.0,0.0,0.0,0.0,0.0,0.0,0.0,0.0,0.0,0.0,0.0,0.0,0.0,0.0,0.0,0.0,0.0,0.0,0.0,0.0,0.0,0.0,0.0,0.0,0.0,0.0,0.0,0.0,0.0,0.0,0.0,0.0,0.0,0.0,0.0,0.0,0.0,0.0,0.0,0.0,0.0,0.0,0.0,0.0,0.0,0.0,0.0,0.0,0.0,0.0,0.0,0.0,0.0,0.0,0.0,0.0,0.0,0.0,0.0,0.0,-1.9759,0.0,-1.8003,-1.8003,-1.8455,-1.8523,0.0,0.0,0.0,0.0,0.0,0.0,0.0,0.0,0.0,0.0,0.0,0.0,0.0,0.0,0.0,0.0,0.0,0.0,0.0,0.0,0.0,0.0,0.0,0.0,0.0,0.0,0.0,0.0,0.0,0.0,0.0,0.0,0.0,0.0,0.0,0.0,0.0,0.0,0.0,0.0,0.0,0.0,0.0,0.0,0.0,0.0,0.0,0.0,0.0,0.0,0.0,0.0,0.0,0.0,0.0,0.0,0.0,0.0,0.0,0.0,0.0,0.0,0.0,0.0,0.0,0.0,0.0,0.0,0.0,0.0,0.0,0.0,0.0,0.0,0.0,0.0,0.0,0.0,0.0,0.0,0.0,0.0,0.0,0.0,0.0,0.0,0.0,0.0,0.0,0.0,0.0,0.0,0.0,0.0,0.0,0.0,0.0,0.0,0.0,0.0,0.0,0.0,0.0,0.0,0.0,0.0,0.0,0.0,-1.9716,-1.9003,-1.8355,-1.7969,-1.7969,-1.732,-1.7044,0.0,0.0,0.0,0.0,0.0,0.0,0.0,0.0,0.0,0.0,0.0,0.0,0.0,0.0,0.0,0.0,0.0,0.0,0.0,0.0,0.0,0.0,0.0,0.0,0.0,0.0,0.0,0.0,0.0,0.0,0.0,0.0,0.0,0.0,0.0,0.0,0.0,0.0,0.0,0.0,0.0,0.0,0.0,0.0,0.0,0.0,0.0,0.0,0.0,0.0,0.0,0.0,0.0,0.0,0.0,0.0,0.0,0.0,0.0,0.0,0.0,0.0,0.0,0.0,0.0,0.0,0.0,0.0,0.0,0.0,0.0,0.0,0.0,0.0,0.0,0.0,0.0,0.0,0.0,0.0,0.0,0.0,0.0,0.0,0.0,0.0,0.0,0.0,0.0,0.0,0.0,0.0,0.0,0.0,0.0,0.0,0.0,0.0,0.0,0.0,0.0,0.0,0.0,0.0,0.0,0.0,0.0,0.0,0.0,-1.8623,-1.8031,-1.7438,-1.6855,-1.7028,-1.6925,0.0,0.0,0.0,0.0,0.0,0.0,0.0,0.0,0.0,0.0,0.0,0.0,0.0,0.0,0.0,0.0,0.0,0.0,0.0,0.0,0.0,0.0,0.0,0.0,0.0,0.0,0.0,0.0,0.0,0.0,0.0,0.0,0.0,0.0,0.0,0.0,0.0,0.0,0.0,0.0,0.0,0.0,0.0,0.0,0.0,0.0,0.0,0.0,0.0,0.0,0.0,0.0,0.0,0.0,0.0,0.0,0.0,0.0,0.0,0.0,0.0,0.0,0.0,0.0,0.0,0.0,0.0,0.0,0.0,0.0,0.0,0.0,0.0,0.0,0.0,0.0,0.0,0.0,0.0,0.0,0.0,0.0,0.0,0.0,0.0,0.0,0.0,0.0,0.0,0.0,0.0,0.0,0.0,0.0,0.0,0.0,0.0,0.0,0.0,0.0,0.0,0.0,0.0,0.0,0.0,0.0,0.0,0.0,0.0,-1.8543,-1.7609,-1.6853,-1.6316,-1.6682,-1.6716,-1.6438,0.0,0.0,0.0,0.0,0.0,0.0,0.0,0.0,0.0,0.0,0.0,0.0,0.0,0.0,0.0,0.0,0.0,0.0,0.0,0.0,0.0,0.0,0.0,0.0,0.0,0.0,0.0,0.0,0.0,0.0,0.0,0.0,0.0,0.0,0.0,0.0,0.0,0.0,0.0,0.0,0.0,0.0,0.0,0.0,0.0,0.0,0.0,0.0,0.0,0.0,0.0,0.0,0.0,0.0,0.0,0.0,0.0,0.0,0.0,0.0,0.0,0.0,0.0,0.0,0.0,0.0,0.0,0.0,0.0,0.0,0.0,0.0,0.0,0.0,0.0,0.0,0.0,0.0,0.0,0.0,0.0,0.0,0.0,0.0,0.0,0.0,0.0,0.0,0.0,0.0,0.0,0.0,0.0,0.0,0.0,0.0,0.0,0.0,0.0,0.0,0.0,0.0,0.0,0.0,0.0,0.0,0.0,0.0,-1.8825,-1.7204,-1.6368,-1.6333,-1.6351,-1.6403,0.0,0.0,0.0,0.0,0.0,0.0,0.0,0.0,0.0,0.0,0.0,0.0,0.0,0.0,0.0,0.0,0.0,0.0,0.0,0.0,0.0,0.0,0.0,0.0,0.0,0.0,0.0,0.0,0.0,0.0,0.0,0.0,0.0,0.0,0.0,0.0,0.0,0.0,0.0,0.0,0.0,0.0,0.0,0.0,0.0,0.0,0.0,0.0,0.0,0.0,0.0,0.0,0.0,0.0,0.0,0.0,0.0,0.0,0.0,0.0,0.0,0.0,0.0,0.0,0.0,0.0,0.0,0.0,0.0,0.0,0.0,0.0,0.0,0.0,0.0,0.0,0.0,0.0,0.0,0.0,0.0,0.0,0.0,0.0,0.0,0.0,0.0,0.0,0.0,0.0,0.0,0.0,0.0,0.0,0.0,0.0,0.0,0.0,0.0,0.0,0.0,0.0,0.0,0.0,0.0,0.0,0.0,0.0,0.0,-1.869,-1.7739,-1.7131,-1.6943,-1.6682,-1.6612,0.0,0.0,0.0,0.0,0.0,0.0,0.0,0.0,0.0,0.0,0.0,0.0,0.0,0.0,0.0,0.0,0.0,0.0,0.0,0.0,0.0,0.0,0.0,0.0,0.0,0.0,0.0,0.0,0.0,0.0,0.0,0.0,0.0,0.0,0.0,0.0,0.0,0.0,0.0,0.0,0.0,0.0,0.0,0.0,0.0,0.0,0.0,0.0,0.0,0.0,0.0,0.0,0.0,0.0,0.0,0.0,0.0,0.0,0.0,0.0,0.0,0.0,0.0,0.0,0.0,0.0,0.0,0.0,0.0,0.0,0.0,0.0,0.0,0.0,0.0,0.0,0.0,0.0,0.0,0.0,0.0,0.0,0.0,0.0,0.0,0.0,0.0,0.0,0.0,0.0,0.0,0.0,0.0,0.0,0.0,0.0,0.0,0.0,0.0,0.0,0.0,0.0,0.0,0.0,0.0,0.0,0.0,0.0,-1.9302,-1.9231,-1.8584,-1.8052,-1.7586,-1.7016,-1.6804,0.0,0.0,0.0,0.0,0.0,0.0,0.0,0.0,0.0,0.0,0.0,0.0,0.0,0.0,0.0,0.0,0.0,0.0,0.0,0.0,0.0,0.0,0.0,0.0,0.0,0.0,0.0,0.0,0.0,0.0,0.0,0.0,0.0,0.0,0.0,0.0,0.0,0.0,0.0,0.0,0.0,0.0,0.0,0.0,0.0,0.0,0.0,0.0,0.0,0.0,0.0,0.0,0.0,0.0,0.0,0.0,0.0,0.0,0.0,0.0,0.0,0.0,0.0,0.0,0.0,0.0,0.0,0.0,0.0,0.0,0.0,0.0,0.0,0.0,0.0,0.0,0.0,0.0,0.0,0.0,0.0,0.0,0.0,0.0,0.0,0.0,0.0,0.0,0.0,0.0,0.0,0.0,0.0,0.0,0.0,0.0,0.0,0.0,0.0,0.0,0.0,0.0,0.0,0.0,0.0,0.0,0.0,0.0,-2.0103,-1.9905,-1.9502,-1.8942,-1.8178,-1.7394,-1.6945,0.0,0.0,0.0,0.0,0.0,0.0,0.0,0.0,0.0,0.0,0.0,0.0,0.0,0.0,0.0,0.0,0.0,0.0,0.0,0.0,0.0,0.0,0.0,0.0,0.0,0.0,0.0,0.0,0.0,0.0,0.0,0.0,0.0,0.0,0.0,0.0,0.0,0.0,0.0,0.0,0.0,0.0,0.0,0.0,0.0,0.0,0.0,0.0,0.0,0.0,0.0,0.0,0.0,0.0,0.0,0.0,0.0,0.0,0.0,0.0,0.0,0.0,0.0,0.0,0.0,0.0,0.0,0.0,0.0,0.0,0.0,0.0,0.0,0.0,0.0,0.0,0.0,0.0,0.0,0.0,0.0,0.0,0.0,0.0,0.0,0.0,0.0,0.0,0.0,0.0,0.0,0.0,0.0,0.0,0.0,0.0,0.0,0.0,0.0,0.0,0.0,0.0,0.0,0.0,0.0,0.0,0.0,0.0,-1.9966,-1.9954,-1.9542,-1.9069,-1.8578,-1.7947,-1.738,0.0,0.0,0.0,0.0,0.0,0.0,0.0,0.0,0.0,0.0,0.0,0.0,0.0,0.0,0.0,0.0,0.0,0.0,0.0,0.0,0.0,0.0,0.0,0.0,0.0,0.0,0.0,0.0,0.0,0.0,0.0,0.0,0.0,0.0,0.0,0.0,0.0,0.0,0.0,0.0,0.0,0.0,0.0,0.0,0.0,0.0,0.0,0.0,-0.8301,0.0,0.0,0.0,0.0,0.0,0.0,0.0,0.0,0.0,0.0,0.0,0.0,0.0,0.0,0.0,0.0,0.0,0.0,0.0,0.0,0.0,0.0,0.0,0.0,0.0,0.0,0.0,0.0,0.0,0.0,0.0,0.0,0.0,0.0,0.0,0.0,0.0,0.0,0.0,0.0,0.0,0.0,0.0,0.0,0.0,0.0,0.0,0.0,0.0,0.0,0.0,0.0,0.0,0.0,0.0,0.0,0.0,0.0,0.0,-2.0314,-2.0407,-2.0081,-1.9678,-1.92,-1.8749,-1.8228,0.0,0.0,0.0,0.0,0.0,0.0,0.0,0.0,0.0,0.0,0.0,0.0,0.0,0.0,0.0,0.0,0.0,0.0,0.0,0.0,0.0,0.0,0.0,0.0,0.0,0.0,0.0,0.0,0.0,0.0,0.0,0.0,0.0,0.0,0.0,0.0,0.0,0.0,0.0,0.0,0.0,0.0,0.0,0.0,0.0,0.0,0.0,0.0,0.0,0.0,0.0,0.0,0.0,0.0,0.0,0.0,0.0,0.0,0.0,0.0,0.0,0.0,0.0,0.0,0.0,0.0,0.0,0.0,0.0,0.0,0.0,0.0,0.0,0.0,0.0,0.0,0.0,0.0,0.0,0.0,0.0,0.0,0.0,0.0,0.0,0.0,0.0,0.0,0.0,0.0,0.0,0.0,0.0,0.0,0.0,0.0,0.0,0.0,0.0,0.0,0.0,0.0,0.0,0.0,0.0,0.0,0.0,-2.0702,-2.0683,-2.0819,-2.0683,-2.0372,-1.9869,-1.9583,-1.9184,-1.8639,0.0,0.0,0.0,0.0,0.0,0.0,0.0,0.0,0.0,0.0,0.0,0.0,0.0,0.0,0.0,0.0,0.0,0.0,0.0,0.0,0.0,0.0,0.0,0.0,0.0,0.0,0.0,0.0,0.0,0.0,0.0,0.0,0.0,0.0,0.0,0.0,0.0,0.0,-1.2196,-1.2274,0.0,0.0,0.0,0.0,0.0,0.0,0.0,0.0,-0.9836,0.0,0.0,0.0,0.0,0.0,0.0,0.0,0.0,0.0,0.0,0.0,0.0,0.0,0.0,0.0,0.0,0.0,0.0,0.0,0.0,0.0,0.0,0.0,0.0,0.0,0.0,0.0,0.0,0.0,0.0,0.0,0.0,0.0,0.0,0.0,0.0,0.0,0.0,0.0,0.0,0.0,0.0,0.0,0.0,0.0,0.0,0.0,0.0,0.0,0.0,0.0,0.0,0.0,0.0,0.0,0.0,-2.0644,-2.0605,-2.0644,-2.0644,-2.0605,-2.0566,-2.043,-2.0236,-1.9984,-1.9637,0.0,0.0,0.0,0.0,0.0,0.0,0.0,0.0,0.0,0.0,0.0,0.0,0.0,0.0,0.0,0.0,0.0,0.0,0.0,0.0,0.0,0.0,0.0,0.0,0.0,0.0,0.0,0.0,0.0,0.0,0.0,0.0,0.0,0.0,0.0,0.0,0.0,0.0,0.0,-1.247,-1.22,0.0,0.0,0.0,0.0,0.0,0.0,0.0,0.0,-0.9464,0.0,0.0,0.0,0.0,0.0,0.0,0.0,0.0,0.0,0.0,0.0,0.0,0.0,0.0,0.0,0.0,0.0,0.0,0.0,0.0,0.0,0.0,0.0,0.0,0.0,0.0,0.0,0.0,0.0,0.0,0.0,0.0,0.0,0.0,0.0,0.0,0.0,0.0,0.0,0.0,0.0,0.0,0.0,0.0,0.0,0.0,0.0,0.0,0.0,0.0,0.0,0.0,0.0,0.0,0.0,-2.0935,-2.0915,-2.0915,-2.0935,-2.0819,-2.0741,-2.0741,-2.0469,-2.0177,0.0,0.0,0.0,0.0,0.0,0.0,0.0,0.0,0.0,0.0,0.0,0.0,0.0,0.0,0.0,0.0,0.0,0.0,0.0,0.0,0.0,0.0,0.0,0.0,0.0,0.0,0.0,0.0,0.0,0.0,0.0,0.0,0.0,0.0,0.0,0.0,0.0,0.0,0.0,0.0,-1.2958,-1.284,-1.2457,0.0,0.0,0.0,0.0,0.0,0.0,-1.1249,-1.0792,0.0,0.0,0.0,0.0,0.0,0.0,0.0,0.0,0.0,0.0,0.0,0.0,0.0,0.0,0.0,0.0,0.0,0.0,0.0,0.0,0.0,0.0,0.0,0.0,0.0,0.0,0.0,0.0,0.0,0.0,0.0,0.0,0.0,0.0,0.0,0.0,0.0,0.0,0.0,0.0,0.0,0.0,0.0,0.0,0.0,0.0,0.0,0.0,0.0,0.0,0.0,0.0,0.0,0.0,0.0,-2.1409,-2.127,-2.1229,-2.1268,-2.1033,-2.0916,-2.0935,-2.0664,-2.0333,0.0,0.0,0.0,0.0,0.0,0.0,0.0,0.0,0.0,0.0,0.0,0.0,0.0,0.0,0.0,0.0,0.0,0.0,0.0,0.0,0.0,0.0,0.0,0.0,0.0,0.0,0.0,0.0,0.0,0.0,0.0,0.0,0.0,0.0,0.0,0.0,0.0,0.0,0.0,0.0,0.0,-1.359,-1.3341,-1.3561,0.0,0.0,0.0,0.0,-1.3483,-1.2762,0.0,0.0,0.0,0.0,0.0,0.0,0.0,0.0,0.0,0.0,0.0,0.0,0.0,0.0,0.0,0.0,0.0,0.0,0.0,0.0,0.0,0.0,0.0,0.0,0.0,0.0,0.0,0.0,0.0,0.0,0.0,0.0,0.0,0.0,0.0,0.0,0.0,0.0,0.0,0.0,0.0,0.0,0.0,0.0,0.0,0.0,0.0,0.0,0.0,0.0,0.0,0.0,0.0,0.0,0.0,0.0,-2.2087,-2.1509,-2.1272,-2.1451,-2.1114,-2.0974,-2.1167,-2.1128,-2.0896,0.0,0.0,0.0,0.0,0.0,0.0,0.0,0.0,0.0,0.0,0.0,0.0,0.0,0.0,0.0,0.0,0.0,0.0,0.0,0.0,0.0,0.0,0.0,0.0,0.0,0.0,0.0,0.0,0.0,0.0,0.0,0.0,0.0,0.0,0.0,0.0,0.0,0.0,0.0,0.0,0.0,-1.4077,-1.4212,-1.3854,-1.3676,0.0,0.0,-1.3618,-1.38,-1.3251,0.0,0.0,0.0,0.0,0.0,0.0,0.0,0.0,0.0,0.0,0.0,0.0,0.0,0.0,0.0,0.0,0.0,0.0,0.0,0.0,0.0,0.0,0.0,0.0,0.0,0.0,0.0,0.0,0.0,0.0,0.0,0.0,0.0,0.0,0.0,0.0,0.0,0.0,0.0,0.0,0.0,0.0,0.0,0.0,0.0,0.0,0.0,0.0,0.0,0.0,0.0,0.0,0.0,0.0,0.0,-2.2753,-2.2369,-2.221,-2.215,-2.2231,-2.209,-2.1968,-2.1783,-2.1666,-2.135,0.0,0.0,0.0,0.0,0.0,0.0,0.0,0.0,0.0,0.0,0.0,0.0,0.0,0.0,0.0,0.0,0.0,0.0,0.0,0.0,0.0,0.0,0.0,0.0,0.0,0.0,0.0,0.0,0.0,0.0,0.0,0.0,0.0,0.0,0.0,0.0,0.0,0.0,0.0,0.0,0.0,0.0,-1.4478,-1.4411,0.0,0.0,0.0,-1.4276,-1.4588,0.0,0.0,0.0,0.0,0.0,0.0,0.0,0.0,0.0,0.0,0.0,0.0,0.0,0.0,0.0,0.0,0.0,0.0,0.0,0.0,0.0,0.0,0.0,0.0,0.0,0.0,0.0,0.0,0.0,0.0,0.0,0.0,0.0,0.0,0.0,0.0,0.0,0.0,0.0,0.0,0.0,0.0,0.0,0.0,0.0,0.0,0.0,0.0,0.0,0.0,0.0,0.0,0.0,0.0,0.0,0.0,0.0,-2.275,-2.2734,-2.2776,-2.2879,-2.2839,-2.2696,-2.2449,-2.2309,0.0,0.0,0.0,0.0,0.0,0.0,0.0,0.0,0.0,0.0,0.0,0.0,0.0,0.0,0.0,0.0,0.0,0.0,0.0,0.0,0.0,0.0,0.0,0.0,0.0,0.0,0.0,-1.6908,0.0,0.0,0.0,0.0,0.0,0.0,0.0,0.0,0.0,0.0,0.0,0.0,0.0,0.0,-1.5363,-1.4756,-1.4919,-1.5133,0.0,0.0,-1.4971,-1.5275,-1.5098,-1.4935,0.0,0.0,0.0,0.0,0.0,0.0,0.0,0.0,0.0,0.0,0.0,0.0,0.0,0.0,0.0,0.0,0.0,0.0,0.0,0.0,0.0,0.0,0.0,0.0,0.0,0.0,0.0,0.0,0.0,0.0,0.0,0.0,0.0,0.0,0.0,0.0,0.0,0.0,0.0,0.0,0.0,0.0,0.0,0.0,0.0,0.0,0.0,0.0,0.0,0.0,0.0,0.0,0.0,0.0,-2.3477,-2.3394,-2.2847,-2.2735,-2.3136,-2.2734,-2.2717,-2.3102,-2.3102,-2.2795,0.0,0.0,0.0,0.0,0.0,0.0,0.0,0.0,0.0,0.0,0.0,0.0,0.0,0.0,0.0,0.0,0.0,0.0,0.0,0.0,0.0,0.0,0.0,0.0,0.0,0.0,0.0,0.0,0.0,0.0,0.0,0.0,0.0,0.0,0.0,0.0,0.0,0.0,0.0,0.0,0.0,-1.5078,-1.5399,-1.515,-1.5114,0.0,-1.5541,-1.5505,-1.5735,-1.5735,-1.5611,-1.524,0.0,0.0,0.0,0.0,0.0,0.0,0.0,0.0,0.0,0.0,0.0,0.0,0.0,0.0,0.0,0.0,0.0,0.0,0.0,0.0,0.0,0.0,0.0,0.0,0.0,0.0,0.0,0.0,0.0,0.0,0.0,0.0,0.0,0.0,0.0,0.0,0.0,0.0,0.0,0.0,0.0,0.0,0.0,0.0,0.0,0.0,0.0,0.0,0.0,0.0,0.0,0.0,0.0,-2.3413,-2.3668,-2.3299,-2.3331,-2.3743,-2.3602,-2.3511,-2.3412,-2.3577,-2.335,0.0,0.0,0.0,0.0,0.0,0.0,0.0,0.0,0.0,0.0,0.0,0.0,0.0,0.0,0.0,0.0,0.0,0.0,0.0,0.0,0.0,0.0,0.0,0.0,0.0,0.0,0.0,0.0,-1.6908,-1.6908,-1.6908,0.0,0.0,0.0,0.0,0.0,0.0,0.0,0.0,0.0,0.0,-1.5611,-1.5505,-1.5563,0.0,0.0,-1.619,-1.6252,-1.6453,-1.649,-1.6331,-1.5931,-1.5643,0.0,0.0,0.0,0.0,0.0,0.0,0.0,0.0,0.0,0.0,0.0,0.0,0.0,0.0,0.0,0.0,0.0,0.0,0.0,0.0,0.0,0.0,0.0,0.0,0.0,0.0,0.0,0.0,0.0,0.0,0.0,0.0,0.0,0.0,0.0,0.0,0.0,0.0,0.0,0.0,0.0,0.0,0.0,0.0,0.0,0.0,0.0,0.0,0.0,0.0,0.0,0.0,-2.3676,-2.4018,-2.3851,-2.3894,-2.4127,-2.4349,-2.4257,-2.3737,-2.4074,-2.4013,0.0,0.0,0.0,0.0,0.0,0.0,0.0,0.0,0.0,0.0,0.0,0.0,0.0,0.0,0.0,0.0,0.0,0.0,0.0,0.0,0.0,0.0,0.0,0.0,0.0,0.0,0.0,0.0,-1.6735,-1.6735,-1.6735,0.0,0.0,0.0,0.0,0.0,0.0,0.0,0.0,0.0,0.0,-1.6101,-1.5933,-1.6133,-1.6393,-1.6524,-1.6618,-1.6767,-1.688,-1.6918,-1.6778,-1.6505,0.0,0.0,0.0,0.0,0.0,0.0,0.0,0.0,0.0,0.0,0.0,0.0,0.0,0.0,0.0,0.0,0.0,0.0,0.0,0.0,0.0,0.0,0.0,0.0,0.0,0.0,0.0,-2.3809,0.0,0.0,-2.4375,0.0,0.0,0.0,0.0,0.0,0.0,0.0,0.0,0.0,0.0,0.0,0.0,0.0,0.0,0.0,0.0,0.0,0.0,0.0,0.0,0.0,0.0,-2.4466,-2.4466,-2.4487,-2.4401,-2.4247,-2.4828,-2.4871,-2.4229,-2.4807,-2.4767,-2.3929,0.0,0.0,0.0,0.0,0.0,0.0,0.0,0.0,0.0,0.0,0.0,0.0,0.0,0.0,0.0,0.0,0.0,0.0,0.0,0.0,0.0,0.0,0.0,0.0,0.0,0.0,-1.6368,-1.6351,-1.6368,0.0,0.0,0.0,0.0,0.0,0.0,0.0,0.0,0.0,-1.6557,-1.6446,-1.6419,-1.6833,-1.6901,-1.688,-1.6918,-1.6898,-1.6898,-1.6953,-1.6935,-1.6918,0.0,0.0,0.0,0.0,0.0,0.0,0.0,0.0,0.0,0.0,0.0,0.0,0.0,0.0,0.0,0.0,0.0,0.0,0.0,0.0,0.0,0.0,0.0,0.0,0.0,0.0,0.0,-2.4219,-2.4219,0.0,0.0,0.0,0.0,0.0,0.0,0.0,0.0,0.0,0.0,0.0,-2.4414,-2.4414,0.0,0.0,0.0,0.0,0.0,0.0,0.0,0.0,0.0,0.0,0.0,0.0,-2.4846,-2.4964,-2.5159,-2.5261,-2.5331,-2.5413,-2.5203,-2.4658,-2.4889,-2.4745,-2.4322,0.0,0.0,0.0,0.0,0.0,0.0,0.0,0.0,0.0,0.0,0.0,0.0,0.0,0.0,0.0,0.0,0.0,0.0,0.0,0.0,0.0,0.0,0.0,0.0,0.0,-1.6884,0.0,0.0,0.0,0.0,0.0,0.0,0.0,0.0,0.0,0.0,0.0,-1.7897,-1.788,-1.7715,-1.7621,-1.7765,-1.7506,-1.7364,0.0,0.0,0.0,0.0,0.0,0.0,0.0,0.0,0.0,0.0,0.0,0.0,0.0,0.0,-1.5434,-1.4124,-1.4048,-1.4161,-1.401,0.0,0.0,0.0,0.0,0.0,0.0,0.0,0.0,0.0,0.0,0.0,0.0,0.0,0.0,-2.4648,0.0,-2.4805,0.0,0.0,0.0,0.0,0.0,0.0,0.0,0.0,-2.4836,-2.4836,-2.4836,-2.4863,-2.4957,0.0,-2.5285,-2.5378,0.0,0.0,0.0,0.0,0.0,0.0,0.0,0.0,-2.5806,-2.5927,-2.6103,-2.6163,-2.6148,-2.6252,-2.5927,-2.5153,-2.4874,-2.4757,-2.4735,-2.413,-2.3738,0.0,0.0,0.0,0.0,0.0,0.0,0.0,0.0,0.0,0.0,0.0,0.0,0.0,0.0,0.0,0.0,0.0,0.0,0.0,0.0,0.0,0.0,0.0,-1.7204,0.0,0.0,0.0,0.0,0.0,0.0,0.0,0.0,0.0,-1.7715,-1.8393,-1.8934,-1.8769,-1.8958,-1.9032,-1.8907,0.0,0.0,0.0,0.0,0.0,0.0,0.0,-1.8626,-1.814,-1.8106,-1.802,-1.774,-1.7706,-1.7746,-1.7768,0.0,0.0,-1.5713,-1.558,-1.5695,-1.5618,-1.5503,-1.5442,-1.5311,-1.5188,-1.4991,0.0,0.0,0.0,0.0,0.0,0.0,0.0,0.0,-2.4922,-2.5125,0.0,-2.5527,0.0,0.0,0.0,0.0,0.0,-2.5654,0.0,0.0,-2.5654,-2.5674,-2.5674,-2.5723,-2.5965,-2.6448,-2.5994,-2.6284,-2.7132,-2.6464,0.0,0.0,0.0,0.0,0.0,0.0,-2.7304,-2.726,-2.7282,-2.7105,-2.6704,-2.7348,-2.6972,-2.5562,-2.4881,-2.4747,-2.5148,-2.4538,-2.4023,-2.3594,-2.3783,0.0,0.0,0.0,0.0,0.0,0.0,0.0,0.0,0.0,0.0,0.0,0.0,0.0,0.0,0.0,0.0,0.0,0.0,0.0,0.0,-1.7276,0.0,0.0,0.0,0.0,0.0,0.0,0.0,0.0,0.0,0.0,-1.9215,-1.9392,-1.9498,-1.9474,0.0,0.0,0.0,0.0,-2.1527,-2.1339,-2.1339,-2.1029,-2.0334,-2.019,-1.9936,-1.923,0.0,0.0,-1.9162,-1.9162,-1.9153,-1.9401,-1.9332,-1.9075,-1.774,-1.7698,-1.7907,-1.8076,-1.76,-1.7059,-1.6759,-1.6521,-1.6173,-2.5323,0.0,0.0,0.0,0.0,-2.5323,-2.5304,-2.5323,-2.5488,-2.5547,-2.5547,-2.5635,0.0,0.0,0.0,0.0,0.0,0.0,-2.5674,-2.5674,-2.5674,-2.5674,-2.5742,-2.6062,-2.6352,-2.6496,-2.7051,-2.7478,-2.7741,-2.7929,-2.7629,-2.6964,0.0,0.0,0.0,0.0,-2.7503,-2.7326,-2.781,-2.794,-2.7603,-2.7783,-2.7295,-2.6055,-2.548,-2.5193,-2.5128,-2.4678,-2.4439,-2.4428,-2.4229,0.0,0.0,0.0,0.0,0.0,0.0,0.0,0.0,0.0,0.0,0.0,0.0,0.0,0.0,0.0,0.0,0.0,0.0,0.0,-1.7656,-1.8799,-1.9258,0.0,0.0,0.0,0.0,0.0,0.0,0.0,0.0,0.0,-2.3131,-2.2641,-2.2318,0.0,0.0,-2.2771,-2.2207,-2.2104,-2.2121,-2.2123,-2.197,0.0,-2.0937,-2.0388,-1.9657,-1.8758,-1.8629,-1.8629,-1.8646,-1.8629,-1.8629,-1.8715,-1.8715,-1.8692,-1.8731,-1.9193,-1.9602,-1.974,-1.9766,-1.9621,-1.9247,-1.9096,-1.8931,-2.5674,-2.5674,-2.5674,-2.5674,-2.5674,-2.5674,-2.5674,-2.5674,-2.5674,-2.5674,-2.5674,-2.5674,-2.5674,-2.5674,-2.5674,0.0,0.0,0.0,-2.582,-2.6033,-2.6033,-2.6014,-2.6062,-2.6544,-2.6907,-2.7098,-2.7478,-2.7904,-2.8326,-2.842,-2.829,-2.7939,0.0,0.0,-2.7894,-2.8029,-2.8074,-2.7939,-2.8315,-2.8468,-2.8331,-2.808,-2.7767,-2.7259,-2.6364,-2.5961,-2.6007,-2.5304,-2.4946,-2.506,-2.4727,-2.4469,0.0,0.0,0.0,0.0,0.0,0.0,0.0,0.0,0.0,0.0,0.0,-2.0413,-1.9806,0.0,0.0,0.0,-1.9562,-1.9291,-1.8695,-2.0165,0.0,0.0,0.0,0.0,0.0,0.0,0.0,-2.4513,-2.4988,-2.5273,-2.5414,-2.5172,-2.4731,-2.4221,-2.4523,-2.4548,-2.3886,0.0,-2.3888,-2.4091,-2.3968,-2.3652,-2.3236,-2.2684,-2.1833,-2.0464,-1.963,-1.9296,-1.9385,-1.909,-1.8902,-1.8991,-1.8946,-1.8996,-1.9396,-1.9928,-2.0269,-2.0175,-2.0307,-2.0333,-2.0018,-1.9996,-1.9895,-2.5937,-2.5937,-2.5937,-2.5849,-2.5674,-2.5674,-2.5674,-2.5674,-2.5674,-2.5742,-2.5791,-2.5791,-2.5791,-2.5791,-2.5839,0.0,-2.64,-2.5965,-2.6014,-2.6496,-2.6496,-2.6564,-2.6653,-2.7112,-2.7589,-2.8104,-2.7678,-2.7941,-2.8811,-2.8391,-2.8369,-2.8792,-2.8814,-2.8814,-2.8814,-2.8792,-2.8814,-2.8792,-2.8792,-2.8814,-2.8792,-2.8326,-2.8279,-2.8699,-2.7454,-2.6898,-2.7314,-2.6256,-2.5599,-2.5553,-2.5305,-2.5058,-2.4852,0.0,0.0,0.0,0.0,0.0,0.0,0.0,0.0,0.0,0.0,0.0,0.0,0.0,0.0,0.0,-2.1024,0.0,-2.0123,-2.1549,0.0,0.0,0.0,-2.414,-2.4876,-2.4915,-2.5195,-2.5993,0.0,0.0,-2.6724,-2.7112,-2.689,-2.568,-2.6004,-2.612,-2.5463,-2.5992,-2.6526,-2.6668,-2.6756,-2.6628,-2.6096,-2.5778,-2.4836,-2.3094,-2.1755,-2.084,-2.081,-2.0264,-1.9862,-1.9937,-1.9799,-1.9807,-2.0138,-2.0201,-2.0121,-2.0,-1.9955,-1.9877,-1.9764,-1.9713,-1.9679,-2.7979,-2.7979,-2.7979,-2.71,-2.5693,-2.5674,-2.5674,-2.5674,-2.5674,-2.5936,-2.6304,-2.6324,-2.6324,-2.6304,-2.6668,-2.6476,-2.5888,-2.6179,-2.6352,-2.6496,-2.6496,-2.6919,-2.7634,-2.8097,-2.8625,-2.9062,-2.9375,-2.9423,-2.9314,-2.9219,-2.9023,-2.8814,-2.8814,-2.8814,-2.8814,-2.8814,-2.8814,-2.8814,-2.8814,-2.8814,-2.8814,-2.8653,-2.8466,-2.8186,-2.7845,-2.7547,-2.7264,-2.6827,-2.6413,-2.6043,-2.5854,-2.5517,-2.5053,-2.5033,0.0,0.0,0.0,0.0,0.0,0.0,0.0,0.0,0.0,-2.2062,-2.1089,0.0,-2.1108,0.0,-2.2166,-2.2636,-2.1571,-2.3221,0.0,0.0,-2.366,-2.4288,-2.6316,-2.6023,-2.64,-2.8281,-2.8474,-2.8688,-2.9172,-2.9302,-2.9261,-2.8946,-2.8368,-2.7925,-2.7665,-2.8077,-2.8356,-2.8257,-2.8236,-2.7914,-2.6952,-2.5861,-2.4794,-2.3485,-2.2945,-2.2441,-2.1523,-2.1043,-2.0786,-2.0786,-2.0595,-2.0533,-2.0791,-2.0872,-2.0884,-2.0989,-2.0891,-2.0703,-2.047,-2.0466,-2.0468,-2.8686,-2.8686,-2.8686,-2.807,-2.703,-2.703,-2.703,-2.703,-2.703,-2.7227,-2.7472,-2.7472,-2.7472,-2.7472,-2.7744,-2.7695,-2.7374,-2.7472,-2.757,-2.7765,-2.7765,-2.8105,-2.8628,-2.9138,-2.951,-2.9768,-3.0063,-3.0078,-2.9816,-2.9794,-2.9663,-2.9423,-2.9401,-2.9401,-2.9427,-2.9033,-2.8814,-2.8814,-2.8814,-2.8814,-2.8814,-2.8814,-2.8653,-2.8373,-2.8373,-2.8233,-2.793,-2.7556,-2.7149,-2.6681,-2.6341,-2.5884,-2.5285,-2.5219,-2.5139,0.0,0.0,0.0,0.0,0.0,0.0,0.0,0.0,0.0,0.0,0.0,-2.229,-2.1717,-2.3533,-2.4344,-2.3448,-2.5415,-2.6653,-2.6449,-2.6386,-2.6867,-2.8272,-2.8028,-2.824,-2.9498,-2.9653,-2.9773,-3.0037,-3.0086,-3.0182,-3.0441,-2.9971,-2.9466,-2.9064,-2.911,-2.9137,-2.9216,-2.9175,-2.8807,-2.7895,-2.6806,-2.5863,-2.5164,-2.4089,-2.3238,-2.3096,-2.2256,-2.1661,-2.1709,-2.1374,-2.1134,-2.1278,-2.1038,-2.099,-2.1182,-2.1182,-2.1009,-2.0824,-2.0721,-2.0531,-2.9074,-2.9074,-2.9074,-2.9074,-2.9074,-2.9074,-2.8911,-2.8686,-2.8686,-2.8736,-2.8786,-2.8857,-2.8857,-2.8807,-2.8857,-2.9055,-2.9303,-2.8956,-2.9006,-2.9402,-2.9402,-2.9494,-2.9607,-3.0051,-3.0319,-3.0335,-3.0406,-3.0362,-3.0297,-3.0297,-3.0275,-3.0231,-3.0209,-3.0209,-3.0188,-2.9358,-2.8989,-2.8989,-2.8989,-2.8989,-2.8989,-2.8989,-2.8989,-2.8989,-2.8924,-2.8902,-2.8902,-2.8395,-2.7857,-2.7336,-2.6907,-2.6363,-2.5603,-2.5516,-2.5451,0.0,-2.5191,0.0,0.0,0.0,0.0,0.0,0.0,0.0,0.0,-2.4062,-2.3672,-2.3392,-2.5017,-2.5969,-2.5677,-2.7656,-2.8935,-2.9001,-2.964,-3.0086,-3.0086,-3.0086,-3.011,-3.0182,-3.0182,-3.0206,-3.0326,-3.0278,-3.0537,-3.0946,-3.0951,-3.0721,-3.0191,-2.9777,-2.9702,-2.9989,-2.9839,-2.9577,-2.9101,-2.8405,-2.7802,-2.7238,-2.5742,-2.4287,-2.5031,-2.3861,-2.2822,-2.2894,-2.2469,-2.2,-2.1852,-2.1468,-2.1208,-2.1402,-2.1351,-2.1213,-2.0981,-2.0737,-2.0446,-3.104,-3.104,-3.104,-3.104,-3.104,-3.104,-3.0133,-2.8686,-2.8686,-2.8906,-2.9303,-2.9747,-2.967,-2.9303,-2.9719,-2.9501,-2.8857,-2.9155,-2.9303,-2.9402,-2.9402,-2.9813,-3.0606,-3.0706,-3.0974,-3.1345,-3.1316,-3.1149,-3.0756,-3.0756,-3.0581,-3.0231,-3.0209,-3.0209,-3.0209,0.0,0.0,0.0,-2.9925,-2.9947,-2.9925,-2.9947,-2.9925,-2.9925,-2.9554,0.0,-2.9383,-2.8918,-2.842,-2.7904,-2.7762,0.0,0.0,0.0,0.0,0.0,0.0,0.0,0.0,0.0,0.0,0.0,-2.4901,-2.4874,-2.4768,-2.4467,-2.4598,-2.529,-2.6372,-2.7349,-2.8049,-2.9149,-2.9875,-2.9875,-3.0001,-3.0086,-3.0086,-3.011,-3.0254,-3.0687,-3.0778,-3.0922,-3.1308,-3.1428,-3.1428,-3.15,-3.1548,-3.148,-3.1316,-3.1181,-3.1209,-3.1284,-3.0861,-3.0664,-3.0578,-3.017,-2.9486,-2.8912,-2.8473,-2.7411,-2.62,-2.5584,-2.4936,-2.474,-2.439,-2.3985,-2.3583,-2.3435,-2.3057,-2.2481,-2.204,-2.1716,-2.1388,-2.1251,-2.1199,-3.2328,-3.2328,-3.2328,-3.2219,0.0,-3.2001,-3.1257,-3.0133,-3.0133,-3.0285,-3.0507,-3.0758,-3.0758,-3.0507,-3.0758,-3.0608,-3.0133,-3.0385,-3.0507,-3.0507,-3.0507,-3.0766,-3.1258,-3.1258,-3.1389,-3.1556,-3.1578,-3.1447,-3.128,-3.1258,-3.1127,-3.0908,-3.0908,-3.0908,-3.0908,-3.0908,-3.069,-3.0209,-3.0209,-3.0209,-3.0209,-3.0209,-3.0209,-3.0209,-2.9969,0.0,0.0,0.0,0.0,0.0,0.0,0.0,0.0,0.0,0.0,-2.5742,-2.5674,-2.5596,-2.543,-2.5391,-2.5341,-2.524,-2.5321,-2.536,-2.524,-2.5718,-2.6145,-2.6517,-2.7869,-2.8969,-2.9456,-3.0336,-3.0855,-3.0922,-3.0855,-3.0898,-3.0898,-3.0898,-3.0995,-3.1235,-3.1308,-3.1428,-3.1669,-3.1717,-3.1717,-3.1717,-3.1717,-3.1717,-3.1717,-3.1584,-3.1496,-3.1362,-3.1273,-3.096,-3.0532,-3.0419,-3.0283,-2.9715,-2.9257,-2.868,-2.8049,-2.751,-2.6948,-2.6222,-2.5819,-2.5355,-2.4596,-2.4245,-2.3921,-2.3441,-2.298,-2.2606,-2.2313,-2.1855,-2.1405,-3.3017,-3.3017,-3.2964,-3.2693,-3.2345,-3.2398,-3.2106,-3.1715,0.0,0.0,0.0,-3.1578,-3.1578,-3.1629,-3.1665,-3.176,-3.176,-3.1848,-3.1891,-3.187,-3.1891,-3.1891,-3.187,-3.1891,-3.187,-3.187,-3.187,-3.1891,-3.187,-3.187,-3.187,-3.187,-3.1891,-3.187,-3.187,-3.187,-3.1498,-3.0756,-3.0559,-3.045,-3.045,-3.045,-3.045,-3.0472,-3.0384,-3.0319,-3.0341,-3.0253,-3.0014,-2.9571,-2.9501,-2.8986,-2.7676,-2.7586,-2.7149,-2.6143,-2.6055,-2.6006,-2.5908,-2.5927,-2.5908,-2.5908,-2.6153,-2.622,-2.5985,-2.6935,-2.7579,-2.7699,-2.9235,-3.026,-3.0441,-3.1205,-3.1717,-3.1717,-3.1717,-3.1693,-3.1693,-3.1717,-3.1669,-3.1717,-3.1693,-3.1717,-3.1717,-3.1717,-3.1717,-3.1717,-3.1717,-3.1717,-3.1673,-3.154,-3.1362,-3.1184,-3.1184,-3.0982,-3.0329,-3.0238,-3.0306,-3.0329,-2.9669,-2.9235,-2.9349,-2.9004,-2.8211,-2.6899,-2.6577,-2.6035,-2.5203,-2.4697,-2.4306,-2.4152,-2.3687,-2.3288,-2.3185,-2.24,-2.171,-3.2696,-3.262,-3.2426,-3.2276,-3.2212,-3.2233,-3.219,-3.2116,-3.1772,-3.1578,-3.1578,-3.1578,-3.1578,-3.16,-3.2088,-3.2285,-3.2306,-3.2678,-3.2853,-3.2874,-3.2874,-3.2906,-3.2853,-3.2927,-3.2906,-3.2927,-3.2853,-3.2874,-3.2853,-3.2906,-3.2853,-3.2853,-3.2874,-3.2853,-3.2927,-3.2906,-3.2809,-3.2709,-3.1848,-3.1433,-3.1433,-3.1433,-3.1433,-3.1411,-3.1018,-3.0799,-3.0799,-3.0428,-3.0161,-3.0112,-3.0112,-2.9774,-2.9169,-2.907,-2.8632,-2.7643,-2.7472,-2.7291,-2.6867,-2.6836,-2.6836,-2.6887,-2.7882,-2.8097,-2.7092,-2.7152,-2.7934,-2.9578,-3.0125,-3.0576,-3.1339,-3.1653,-3.1789,-3.1741,-3.1717,-3.1717,-3.1765,-3.1765,-3.1789,-3.1789,-3.1717,-3.1741,-3.1813,-3.1789,-3.1813,-3.1741,-3.1886,-3.1765,-3.1813,-3.1673,-3.154,-3.1294,-3.1273,-3.1184,-3.0871,-3.0826,-3.0871,-3.0871,-3.0691,-3.0057,-2.9073,-2.8702,-2.8083,-2.6734,-2.6616,-2.626,-2.5653,-2.5471,-2.5089,-2.4479,-2.3927,-2.3509,-2.3527,-2.2968,-2.2481,-3.3142,-3.3142,-3.3031,-3.2827,-3.2572,-3.2317,-3.221,-3.2168,-3.2008,-3.1995,-3.2184,-3.2363,-3.2416,-3.2416,-3.2656,-3.2818,-3.2818,-3.3015,-3.3124,-3.3124,-3.3124,-3.3124,-3.3124,-3.3124,-3.3124,-3.3124,-3.3124,-3.3124,-3.3124,-3.3124,-3.3124,-3.3124,-3.3124,-3.3124,-3.3124,-3.3124,-3.3124,-3.3103,-3.2634,-3.2416,-3.2394,-3.2154,-3.2022,-3.2022,-3.1542,-3.1302,-3.128,-3.1083,-3.0974,-3.0974,-3.0974,-3.0615,-2.9906,-2.9835,-2.9228,-2.7925,-2.7804,-2.7551,-2.7012,-2.7012,-2.7012,-2.7063,-2.8086,-2.8796,-2.8791,-2.9467,-3.0247,-3.1019,-3.1529,-3.2059,-3.2539,-3.2539,-3.2539,-3.2584,-3.2584,-3.2584,-3.2584,-3.2608,-3.2539,-3.2539,-3.2539,-3.2563,-3.2539,-3.2539,-3.2539,-3.2608,-3.2539,-3.2539,-3.2515,-3.2515,-3.2298,-3.166,-3.1516,-3.1472,-3.1407,-3.1362,-3.1362,-3.1362,-3.0892,-3.0464,-2.9852,-2.9624,-2.879,-2.7756,-2.7483,-2.7171,-2.6309,-2.6018,-2.5848,-2.5831,-2.5232,-2.4928,-2.4776,-2.4284,-2.3477,-3.3523,-3.3523,-3.3466,-3.3198,-3.2818,-3.248,-3.231,-3.231,-3.2672,-3.2944,-3.3063,-3.3051,-3.3017,-3.3017,-3.318,-3.3278,-3.3299,-3.3656,-3.3807,-3.3807,-3.3807,-3.3807,-3.3754,-3.356,-3.3399,-3.3399,-3.3399,-3.3399,-3.3399,-3.3399,-3.3399,-3.3399,-3.3399,-3.3399,-3.3377,-3.3399,-3.3399,-3.3399,-3.3399,-3.3343,-3.3124,-3.2721,-3.2525,-3.2503,-3.2154,-3.1957,-3.1935,-3.1957,-3.1957,-3.1935,-3.1957,-3.1628,-3.0922,-3.0828,-3.0155,-2.8819,-2.8503,-2.8206,-2.7696,-2.7645,-2.7799,-2.8035,-2.9027,-2.9955,-3.0745,-3.203,-3.2558,-3.23,-3.2793,-3.326,-3.3236,-3.326,-3.3284,-3.3284,-3.3284,-3.3236,-3.3284,-3.3284,-3.3284,-3.3284,-3.3284,-3.326,-3.3284,-3.3284,-3.3236,-3.3212,-3.3284,-3.3284,-3.3284,-3.3284,-3.2899,-3.2346,-3.2078,-3.2082,-3.2078,-3.2082,-3.2106,-3.2034,-3.1376,-3.0971,-3.0788,-3.0331,-2.9455,-2.8222,-2.8052,-2.7689,-2.6764,-2.6543,-2.661,-2.6703,-2.6334,-2.6012,-2.5581,-2.5011,-2.4244,-3.3317,-3.3182,-3.3012,-3.2763,-3.2758,-3.2716,-3.2675,-3.2845,-3.406,-3.467,-3.4538,-3.328,-3.2749,-3.2739,-3.3475,-3.3835,-3.3934,-3.5237,-3.5854,-3.5831,-3.5876,-3.5931,-3.5777,-3.4891,-3.4382,-3.4415,-3.4449,-3.4516,-3.4516,-3.4427,-3.4415,-3.4382,-3.4382,-3.4393,-3.4415,-3.4415,-3.4382,-3.4382,-3.4382,-3.3967,-3.319,-3.3081,-3.3059,-3.3005,-3.3015,-3.294,-3.2927,-3.2971,-3.294,-3.2971,-3.2896,-3.2896,-3.2778,-3.2799,-3.2317,-3.1211,-3.0694,-3.021,-2.9693,-2.9652,-3.0047,-3.1098,-3.204,-3.2714,-3.2914,-3.3925,-3.4174,-3.348,-3.331,-3.338,-3.3284,-3.3332,-3.3404,-3.3428,-3.3404,-3.3284,-3.3356,-3.3284,-3.3284,-3.3284,-3.3358,-3.3308,-3.3358,-3.3404,-3.338,-3.3452,-3.3477,-3.3477,-3.3452,-3.3452,-3.3428,-3.3188,-3.314,-3.3116,-3.3068,-3.3116,-3.2996,-3.2996,-3.2616,-3.1808,-3.0921,-3.0075,-2.8988,-2.8355,-2.7512,-2.7482,-2.7148,-2.6953,-2.6973,-2.7097,-2.6685,-2.6022,-2.5102,-2.4807,-2.4474,-3.4969,-3.4969,-3.4836,-3.4357,-3.3706,-3.3012,-3.3105,-3.3818,-3.4413,-3.5024,-3.5617,-3.5156,-3.5052,-3.529,-3.5603,-3.55,-3.5087,-3.6194,-3.6557,-3.6286,-3.6719,-3.7073,-3.7103,-3.675,-3.6534,-3.6534,-3.6534,-3.6534,-3.6534,-3.6534,-3.6534,-3.6534,-3.6534,-3.648,-3.6534,-3.6534,-3.6534,-3.6534,-3.6534,-3.6325,-3.5825,-3.4374,-3.3508,-3.3464,-3.3224,-3.3124,-3.3124,-3.3124,-3.3124,-3.3124,-3.3124,-3.3124,-3.3124,-3.3741,-3.3765,-3.2986,-3.2731,-3.2136,-3.09,-3.1466,-3.2048,-3.252,-3.3508,-3.4147,-3.4198,-3.5135,-3.5569,-3.516,-3.4583,-3.4198,-3.4198,-3.4198,-3.4198,-3.4198,-3.4198,-3.415,-3.3959,-3.3959,-3.3911,-3.379,-3.379,-3.3815,-3.3959,-3.4102,-3.415,-3.4198,-3.4174,-3.4102,-3.4174,-3.4198,-3.4198,-3.4198,-3.4198,-3.3909,-3.3501,-3.3284,-3.3308,-3.3167,-3.2628,-3.1737,-3.1971,-3.1238,-3.0382,-2.8964,-2.8628,-2.8168,-2.757,-2.7474,-2.7441,-2.7526,-2.7649,-2.7175,-2.6379,-2.6006,-2.5577,-3.6185,-3.6185,-3.6185,-3.5695,-3.4914,-3.4043,-3.4134,-3.4969,-3.53,-3.5881,-3.6673,-3.7233,-3.7607,-3.7737,-3.7364,-3.6773,-3.634,-3.715,-3.734,-3.7042,-3.7578,-3.7979,-3.8218,-3.7902,-3.7849,-3.7902,-3.7849,-3.7974,-3.8118,-3.834,-3.8364,-3.8388,-3.8364,-3.8364,-3.8388,-3.8364,-3.8388,-3.8334,-3.8388,-3.8364,-3.8072,-3.6417,-3.5273,-3.4926,-3.4589,-3.4387,-3.4387,-3.4387,-3.444,-3.444,-3.4387,-3.444,-3.444,-3.5212,-3.5329,-3.4697,-3.4484,-3.3892,-3.2609,-3.3356,-3.3907,-3.4118,-3.482,-3.5235,-3.5338,-3.5979,-3.636,-3.629,-3.5689,-3.5256,-3.5256,-3.5256,-3.5207,-3.5256,-3.5256,-3.5108,-3.4911,-3.4811,-3.4714,-3.4348,-3.4278,-3.4254,-3.431,-3.4434,-3.4532,-3.4532,-3.4556,-3.4628,-3.4677,-3.4653,-3.4653,-3.4775,-3.4751,-3.4486,-3.3861,-3.3789,-3.3717,-3.3551,-3.3078,-3.2652,-3.2865,-3.1956,-3.1278,-2.9589,-2.9764,-2.9576,-2.8704,-2.8356,-2.7904,-2.8144,-2.8208,-2.8028,-2.7273,-2.7025,-2.6463,-3.6185,-3.624,-3.624,-3.624,-3.6077,-3.5968,-3.6022,-3.6185,-3.718,-3.7713,-3.7926,-3.8973,-3.9517,-3.9362,-3.7897,-3.7073,-3.7203,-3.8214,-3.8635,-3.853,-3.8687,-3.8896,-3.9052,-3.8056,-3.7713,-3.8166,-3.8319,-3.848,-3.8911,-3.9346,-3.9503,-3.9588,-3.9625,-3.9564,-3.9649,-3.9679,-3.9588,-3.9655,-3.9655,-3.9564,-3.9564,-3.943,-3.8737,-3.7892,-3.7642,-3.7512,-3.7541,-3.7594,-3.7594,-3.7647,-3.7493,-3.757,-3.7594,-3.7676,-3.7278,-3.6407,-3.586,-3.5549,-3.5338,-3.5413,-3.5695,-3.6129,-3.6275,-3.6333,-3.635,-3.6477,-3.6555,-3.6435,-3.6435,-3.6338,-3.6338,-3.6194,-3.6194,-3.6218,-3.6266,-3.6141,-3.5911,-3.5765,-3.5568,-3.496,-3.4742,-3.4601,-3.4205,-3.4136,-3.428,-3.4304,-3.4233,-3.4282,-3.4479,-3.4481,-3.4579,-3.4701,-3.4726,-3.4751,-3.4679,-3.4511,-3.4583,-3.4414,-3.3911,-3.3431,-3.2225,-3.1186,-3.0678,-3.0034,-2.9435,-2.9236,-2.9431,-2.9157,-2.8416,-2.8301,-2.8301,-2.8014,-2.7711,-2.7495,-2.6989,-3.8425,-3.8372,-3.7607,-3.7287,-3.7233,-3.6511,-3.6565,-3.7287,-3.7684,-3.8319,-3.905,-3.9517,-3.9697,-3.9672,-3.905,-3.8449,-3.808,-3.8945,-3.9181,-3.8896,-3.9389,-3.975,-3.9981,-3.975,-3.9725,-3.9853,-4.0387,-4.0948,-4.1482,-4.1711,-4.1788,-4.1788,-4.1788,-4.1788,-4.1788,-4.1734,-4.1788,-4.1788,-4.1788,-4.1788,-4.1732,-4.1788,-4.1584,-4.1123,-3.9721,-3.8797,-3.8484,-3.8484,-3.8316,-3.7902,-3.7902,-3.7902,-3.7954,-3.8586,-3.8644,-3.8032,-3.8069,-3.7712,-3.6748,-3.6877,-3.7216,-3.7344,-3.7421,-3.7421,-3.7421,-3.7421,-3.7421,-3.7397,-3.7421,-3.7421,-3.7276,-3.6819,-3.6411,-3.6411,-3.6411,-3.6333,-3.6105,-3.6002,-3.5754,-3.5203,-3.5053,-3.4983,-3.482,-3.4949,-3.5074,-3.5074,-3.5051,-3.4886,-3.4704,-3.4634,-3.4613,-3.4404,-3.4359,-3.4408,-3.4531,-3.4702,-3.4751,-3.4775,-3.451,-3.4341,-3.3459,-3.2442,-3.1917,-3.1054,-3.0016,-2.89,-2.9144,-2.8847,-2.8301,-2.8301,-2.8301,-2.8247,-2.8033,-2.7764,-2.7387,-3.9697,-3.9594,-3.8816,-3.8502,-3.8396,-3.7684,-3.7767,-3.8449,-3.8477,-3.8921,-3.9645,-3.9697,-3.9697,-3.9747,-3.9873,-3.9688,-3.9139,-3.9513,-3.9565,-3.9429,-3.9975,-4.0438,-4.0875,-4.1081,-4.1183,-4.1389,-4.2164,-4.2814,-4.3284,-4.3493,-4.3572,-4.3545,-4.3572,-4.3572,-4.3519,-4.3519,-4.3572,-4.3572,-4.3572,-4.3545,-4.3572,-4.3572,-4.3572,-4.3334,-4.2052,-4.0864,-4.0195,-4.017,-3.9996,-3.9597,-3.9547,-3.9547,-3.9653,-4.0305,-4.0513,-4.0228,-4.0539,-4.0174,-3.8965,-3.8936,-3.9014,-3.8825,-3.861,-3.8503,-3.8503,-3.8503,-3.8431,-3.831,-3.8238,-3.8214,-3.7902,-3.7324,-3.6916,-3.6916,-3.6916,-3.6761,-3.645,-3.6474,-3.6195,-3.5614,-3.5167,-3.5069,-3.5121,-3.5201,-3.5282,-3.538,-3.5357,-3.5193,-3.5016,-3.4922,-3.4879,-3.4651,-3.4701,-3.4775,-3.4899,-3.5096,-3.4915,-3.4845,-3.4774,-3.4725,-3.4262,-3.34,-3.27,-3.1942,-3.0815,-2.9428,-2.8654,-2.8388,-2.8301,-2.8301,-2.8301,-2.8247,-2.8087,-2.7979,-2.7603,-3.9697,-3.9697,-3.9697,-3.9594,-3.9542,-3.9413,-3.9594,-3.9592,-3.9644,-3.9719,-3.9923,-3.9798,-3.9873,-3.9898,-4.0325,-4.0473,-4.0345,-4.0022,-4.0047,-4.0423,-4.0501,-4.091,-4.1527,-4.1607,-4.1817,-4.2078,-4.2936,-4.3488,-4.3858,-4.425,-4.4511,-4.4589,-4.4511,-4.4513,-4.467,-4.4511,-4.4643,-4.4537,-4.4485,-4.4617,-4.4668,-4.4537,-4.4511,-4.4563,-4.4375,-4.3827,-4.2892,-4.2814,-4.2657,-4.2658,-4.2684,-4.2945,-4.2606,-4.271,-4.284,-4.2658,-4.2814,-4.2605,-4.1974,-4.1285,-4.062,-4.0267,-3.9843,-3.9441,-3.9393,-3.9441,-3.9272,-3.8912,-3.8791,-3.8647,-3.8214,-3.8046,-3.7926,-3.795,-3.7781,-3.757,-3.7269,-3.7364,-3.7169,-3.6197,-3.5485,-3.4929,-3.4854,-3.5021,-3.5143,-3.512,-3.5096,-3.5103,-3.5196,-3.5201,-3.5305,-3.539,-3.5203,-3.5086,-3.5324,-3.5545,-3.5236,-3.4986,-3.4818,-3.465,-3.3793,-3.3001,-3.2499,-3.1688,-3.0037,-2.8741,-2.8548,-2.8301,-2.8301,-2.8301,-2.8301,-2.8301,-2.8194,-2.8087,-2.7745,-3.9697,-3.9697,-3.9697,-3.9697,-3.9697,-3.9697,-3.9898,-4.0249,-4.0249,-4.0475,-4.0777,-4.0774,-4.0827,-4.0852,-4.0974,-4.1025,-4.1053,-4.0902,-4.0927,-4.1025,-4.1103,-4.1178,-4.1436,-4.1651,-4.2042,-4.2667,-4.2979,-4.3396,-4.3893,-4.4289,-4.4422,-4.4476,-4.4639,-4.4694,-4.4694,-4.4694,-4.4694,-4.4694,-4.4694,-4.4694,-4.4694,-4.4694,-4.4694,-4.4694,-4.4694,-4.4459,-4.4146,-4.3807,-4.3415,-4.3075,-4.3023,-4.3023,-4.3023,-4.3023,-4.3023,-4.2971,-4.2657,-4.2394,-4.2129,-4.1383,-4.0814,-4.0463,-3.9995,-3.9664,-3.9609,-3.9633,-3.9585,-3.9369,-3.9369,-3.9248,-3.9128,-3.9104,-3.8767,-3.807,-3.7974,-3.7969,-3.7756,-3.7649,-3.7364,-3.6902,-3.637,-3.6086,-3.5849,-3.5772,-3.5726,-3.5726,-3.5749,-3.5734,-3.5488,-3.5449,-3.5212,-3.5109,-3.5115,-3.5289,-3.5486,-3.5585,-3.5465,-3.5227,-3.5044,-3.4982,-3.4023,-3.2752,-3.2221,-3.1167,-2.9501,-2.8654,-2.8441,-2.8301,-2.8301,-2.8301,-2.8301,-2.8301,-2.8301,-2.814,-2.7853,-3.9697,-3.9722,-3.9923,-3.9998,-4.0023,-4.0199,-4.0501,-4.0749,-4.0827,-4.1028,-4.1225,-4.1275,-4.1383,-4.1487,-4.1663,-4.1818,-4.1764,-4.1994,-4.2041,-4.1907,-4.1706,-4.1731,-4.1907,-4.2095,-4.2518,-4.3016,-4.3172,-4.346,-4.4039,-4.4094,-4.4203,-4.4313,-4.4476,-4.4585,-4.4585,-4.4694,-4.48,-4.5009,-4.5062,-4.5111,-4.5323,-4.5375,-4.5375,-4.5401,-4.5375,-4.5375,-4.5349,-4.5009,-4.446,-4.3833,-4.3597,-4.3597,-4.3597,-4.3623,-4.365,-4.3544,-4.3332,-4.3145,-4.3012,-4.2442,-4.1659,-4.1384,-4.0856,-4.0434,-4.0266,-4.0186,-4.0138,-3.9922,-3.9898,-3.9826,-3.9633,-3.9609,-3.9272,-3.8695,-3.8623,-3.8503,-3.8281,-3.7744,-3.7435,-3.7173,-3.6881,-3.6657,-3.6495,-3.6332,-3.6309,-3.6254,-3.6254,-3.6231,-3.5887,-3.5795,-3.5566,-3.5405,-3.555,-3.5656,-3.567,-3.5677,-3.5607,-3.5468,-3.5324,-3.5297,-3.4937,-3.3153,-3.2066,-3.0737,-2.9226,-2.8887,-2.8601,-2.8388,-2.8301,-2.8301,-2.8379,-2.8301,-2.8301,-2.8301,-2.8014,-3.9772,-3.9848,-4.035,-4.0551,-4.0626,-4.0974,-4.1225,-4.1379,-4.1379,-4.143,-4.148,-4.1634,-4.1746,-4.2036,-4.2468,-4.2645,-4.2721,-4.2996,-4.3118,-4.2876,-4.2514,-4.2409,-4.2735,-4.2816,-4.3008,-4.325,-4.333,-4.3653,-4.4138,-4.4083,-4.4061,-4.4381,-4.4516,-4.4442,-4.4626,-4.4715,-4.5192,-4.5611,-4.5663,-4.5924,-4.6342,-4.6395,-4.6395,-4.6369,-4.6342,-4.6342,-4.629,-4.6212,-4.582,-4.4983,-4.4826,-4.4826,-4.4826,-4.4772,-4.4826,-4.4826,-4.4826,-4.4772,-4.4663,-4.4142,-4.3644,-4.3174,-4.2556,-4.2013,-4.1671,-4.1435,-4.1151,-4.0789,-4.0555,-4.0258,-3.9898,-3.9826,-3.9777,-3.9705,-3.9513,-3.9272,-3.8833,-3.7946,-3.7696,-3.7554,-3.716,-3.6789,-3.6789,-3.6549,-3.6417,-3.6386,-3.6386,-3.634,-3.6317,-3.6248,-3.6286,-3.614,-3.6033,-3.5987,-3.5956,-3.5956,-3.5887,-3.5832,-3.5643,-3.5549,-3.525,-3.3525,-3.1749,-3.037,-2.9453,-2.9106,-2.8999,-2.8893,-2.8691,-2.8672,-2.8613,-2.8398,-2.8359,-2.8437,-2.8345,-4.0526,-4.0849,-4.1025,-4.1075,-4.1075,-4.125,-4.158,-4.1907,-4.1932,-4.2242,-4.2709,-4.2865,-4.2979,-4.3355,-4.3457,-4.3559,-4.353,-4.3441,-4.3517,-4.3517,-4.3028,-4.2866,-4.2961,-4.2986,-4.3042,-4.3123,-4.3255,-4.3411,-4.3903,-4.4097,-4.4413,-4.4877,-4.5253,-4.5447,-4.5611,-4.5783,-4.6081,-4.6238,-4.6264,-4.6316,-4.6473,-4.6525,-4.6499,-4.6499,-4.6525,-4.6525,-4.6499,-4.6499,-4.6395,-4.6081,-4.6029,-4.6029,-4.595,-4.595,-4.5924,-4.5924,-4.5976,-4.6003,-4.5865,-4.5473,-4.5047,-4.4903,-4.418,-4.3961,-4.3763,-4.293,-4.2454,-4.2095,-4.1565,-4.0989,-4.0844,-4.0739,-4.0763,-4.0667,-4.0138,-3.9609,-3.9362,-3.9163,-3.8783,-3.8316,-3.8003,-3.7675,-3.7176,-3.6951,-3.6897,-3.682,-3.6712,-3.6603,-3.6603,-3.6495,-3.644,-3.6332,-3.624,-3.6263,-3.6263,-3.6263,-3.624,-3.6171,-3.5949,-3.5626,-3.4978,-3.3612,-3.1847,-3.0194,-2.9751,-2.9384,-2.9659,-2.9766,-2.9531,-2.9121,-2.916,-2.9082,-2.8848,-2.8789,-2.8633,-4.1053,-4.13,-4.1605,-4.1681,-4.1706,-4.1932,-4.2263,-4.2624,-4.262,-4.2937,-4.3466,-4.3462,-4.3628,-4.4064,-4.4064,-4.4039,-4.4039,-4.3848,-4.3819,-4.3815,-4.3685,-4.3507,-4.3394,-4.3338,-4.3438,-4.3664,-4.3664,-4.3922,-4.4288,-4.4428,-4.4687,-4.5037,-4.5425,-4.5597,-4.5545,-4.5907,-4.6207,-4.6389,-4.6466,-4.6518,-4.6751,-4.695,-4.6918,-4.6892,-4.6892,-4.7007,-4.7007,-4.7148,-4.7022,-4.663,-4.6473,-4.6499,-4.6499,-4.6499,-4.6499,-4.6499,-4.6499,-4.6473,-4.6417,-4.6134,-4.585,-4.5622,-4.5221,-4.4991,-4.4601,-4.4003,-4.3681,-4.3548,-4.2955,-4.2625,-4.2205,-4.1827,-4.1586,-4.1468,-4.0789,-4.0186,-3.997,-3.9729,-3.9434,-3.9029,-3.8776,-3.8499,-3.7706,-3.7527,-3.7331,-3.7136,-3.6982,-3.6928,-3.6874,-3.6712,-3.6603,-3.6495,-3.6386,-3.6386,-3.62,-3.6145,-3.5927,-3.5904,-3.5376,-3.5237,-3.4294,-3.3204,-3.192,-3.0458,-3.0096,-2.9849,-3.0023,-3.0119,-2.9863,-2.9629,-2.9746,-2.9668,-2.9375,-2.918,-2.9004,-4.1455,-4.1555,-4.2057,-4.2288,-4.2363,-4.2816,-4.3053,-4.327,-4.3022,-4.3295,-4.3734,-4.3572,-4.3793,-4.4313,-4.4367,-4.4393,-4.4471,-4.4439,-4.4325,-4.4365,-4.4367,-4.4452,-4.4295,-4.3998,-4.4091,-4.4392,-4.4593,-4.4734,-4.4926,-4.4835,-4.4885,-4.5294,-4.5385,-4.5334,-4.5635,-4.5732,-4.6001,-4.6469,-4.6604,-4.6759,-4.71,-4.7295,-4.7295,-4.7177,-4.7295,-4.7438,-4.7548,-4.7724,-4.7586,-4.6595,-4.66,-4.6761,-4.6734,-4.6708,-4.6708,-4.6787,-4.6839,-4.6813,-4.6708,-4.6756,-4.6508,-4.616,-4.6045,-4.5687,-4.5418,-4.5085,-4.4868,-4.4868,-4.4759,-4.4178,-4.3696,-4.2842,-4.2559,-4.2446,-4.1915,-4.129,-4.0765,-4.0202,-3.9753,-3.9681,-3.9459,-3.9086,-3.8642,-3.824,-3.7934,-3.7767,-3.754,-3.7362,-3.7237,-3.6982,-3.6874,-3.6766,-3.6657,-3.6495,-3.6254,-3.5982,-3.5653,-3.5356,-3.4558,-3.3982,-3.3156,-3.223,-3.1491,-3.0715,-3.0258,-3.0065,-3.0102,-3.0081,-3.008,-3.0117,-3.0195,-3.0,-2.9766,-2.9668,-2.9512,-4.2233,-4.2635,-4.276,-4.2811,-4.2811,-4.2936,-4.3017,-4.3129,-4.3017,-4.3376,-4.3789,-4.3844,-4.4148,-4.4639,-4.4692,-4.4848,-4.5236,-4.5122,-4.5081,-4.5263,-4.551,-4.5699,-4.5533,-4.4984,-4.4543,-4.4694,-4.4644,-4.4928,-4.5255,-4.5464,-4.5522,-4.5968,-4.6155,-4.6425,-4.6349,-4.6484,-4.6872,-4.7026,-4.7026,-4.6993,-4.7095,-4.7205,-4.7265,-4.7205,-4.7265,-4.7324,-4.7324,-4.7383,-4.7254,-4.7217,-4.7464,-4.7618,-4.7618,-4.7728,-4.7702,-4.7675,-4.7728,-4.7754,-4.7806,-4.7728,-4.778,-4.7528,-4.7386,-4.7574,-4.7432,-4.6469,-4.6115,-4.5872,-4.5276,-4.4918,-4.4585,-4.4311,-4.4053,-4.3886,-4.3497,-4.3109,-4.2797,-4.1753,-4.0789,-4.0387,-4.021,-3.9962,-3.9426,-3.9275,-3.8902,-3.8496,-3.8173,-3.7946,-3.7672,-3.7399,-3.722,-3.7136,-3.6928,-3.6657,-3.5763,-3.53,-3.4636,-3.4224,-3.3551,-3.2758,-3.1917,-3.1399,-3.0702,-3.0528,-3.0401,-3.0291,-3.02,-3.0548,-3.0625,-3.0626,-3.0605,-3.043,-3.0254,-3.0156,-3.0039,-4.2766,-4.2986,-4.2986,-4.3154,-4.3376,-4.3154,-4.3295,-4.3628,-4.3351,-4.3738,-4.4531,-4.4531,-4.4879,-4.5469,-4.5522,-4.5728,-4.5924,-4.5917,-4.5922,-4.6191,-4.6378,-4.6547,-4.6642,-4.6221,-4.5783,-4.5783,-4.5716,-4.586,-4.6036,-4.5993,-4.6024,-4.6276,-4.6481,-4.6431,-4.6566,-4.6721,-4.673,-4.673,-4.6755,-4.6755,-4.6755,-4.6934,-4.6993,-4.6993,-4.6993,-4.6993,-4.6993,-4.7146,-4.7205,-4.7265,-4.7501,-4.7821,-4.7938,-4.7938,-4.7997,-4.8172,-4.8172,-4.8172,-4.8172,-4.8172,-4.8146,-4.8172,-4.8172,-4.8172,-4.8146,-4.7568,-4.7348,-4.7127,-4.6746,-4.6257,-4.5918,-4.5229,-4.5178,-4.5023,-4.4623,-4.4148,-4.3676,-4.2747,-4.1842,-4.1403,-4.1217,-4.0757,-4.0354,-4.0185,-3.9705,-3.9218,-3.9067,-3.8814,-3.8431,-3.8078,-3.7732,-3.7554,-3.7298,-3.6712,-3.5466,-3.4525,-3.3515,-3.2928,-3.2301,-3.1439,-3.0626,-3.0314,-3.0058,-3.0011,-3.0024,-3.0265,-3.0294,-3.0736,-3.0932,-3.0918,-3.0801,-3.0781,-3.0664,-3.0371,-3.0351,-4.3042,-4.3154,-4.3154,-4.3487,-4.3874,-4.3543,-4.3848,-4.4559,-4.4013,-4.445,-4.5475,-4.5394,-4.5738,-4.6354,-4.6568,-4.6665,-4.678,-4.6813,-4.6955,-4.7184,-4.7062,-4.7179,-4.7287,-4.7254,-4.717,-4.7324,-4.6866,-4.6764,-4.6704,-4.6601,-4.6465,-4.6481,-4.6386,-4.6506,-4.6446,-4.6301,-4.6361,-4.6421,-4.6421,-4.6361,-4.6361,-4.6601,-4.6721,-4.6721,-4.6721,-4.6721,-4.678,-4.6874,-4.7027,-4.7087,-4.7087,-4.7265,-4.7468,-4.7645,-4.7762,-4.8055,-4.8055,-4.8114,-4.8172,-4.8172,-4.8172,-4.8172,-4.8172,-4.8172,-4.8172,-4.8088,-4.8035,-4.8061,-4.7814,-4.7684,-4.7403,-4.6688,-4.6108,-4.5918,-4.5508,-4.4864,-4.4377,-4.3846,-4.3313,-4.2344,-4.2051,-4.1717,-4.1264,-4.0925,-4.0442,-3.9985,-3.9833,-3.9561,-3.9176,-3.8629,-3.8173,-3.7402,-3.696,-3.5543,-3.4224,-3.3098,-3.215,-3.1862,-3.1169,-3.0645,-2.9903,-2.9863,-2.9882,-2.9646,-2.9683,-2.992,-3.0154,-3.0386,-3.0642,-3.082,-3.0957,-3.0898,-3.0742,-3.0547,-3.0586,-4.3265,-4.3734,-4.3734,-4.4039,-4.4531,-4.445,-4.4613,-4.4992,-4.4884,-4.5261,-4.5875,-4.6196,-4.649,-4.6893,-4.7157,-4.7498,-4.7804,-4.7806,-4.7948,-4.8021,-4.773,-4.7626,-4.7828,-4.7762,-4.788,-4.788,-4.7468,-4.7112,-4.7146,-4.7087,-4.6934,-4.6993,-4.684,-4.6721,-4.6626,-4.6481,-4.6301,-4.6301,-4.6326,-4.6326,-4.6301,-4.6361,-4.6421,-4.6421,-4.6421,-4.6421,-4.6421,-4.6421,-4.6421,-4.6481,-4.6421,-4.6661,-4.6959,-4.7172,-4.7383,-4.7703,-4.7821,-4.7938,-4.8114,-4.8172,-4.8172,-4.8172,-4.8172,-4.8172,-4.8172,-4.8172,-4.8172,-4.8172,-4.8172,-4.812,-4.8068,-4.7587,-4.7698,-4.7522,-4.7152,-4.6642,-4.6409,-4.5912,-4.4904,-4.3532,-4.3162,-4.2712,-4.2146,-4.1742,-4.1352,-4.0908,-4.0643,-4.0185,-3.9609,-3.8981,-3.835,-3.7465,-3.6397,-3.4556,-3.2644,-3.1516,-3.0606,-3.0781,-3.049,-3.049,-2.9981,-2.9922,-2.9804,-2.9745,-2.9568,-2.9587,-2.9879,-3.0154,-3.0429,-3.0801,-3.0898,-3.0996,-3.082,-3.0644,-3.0703,-4.3764,-4.4313,-4.4313,-4.4639,-4.5072,-4.483,-4.5046,-4.5529,-4.5422,-4.5875,-4.6571,-4.7001,-4.7487,-4.7974,-4.8188,-4.8476,-4.8589,-4.8305,-4.8315,-4.8315,-4.7821,-4.7619,-4.788,-4.7821,-4.7821,-4.7736,-4.7442,-4.7324,-4.7383,-4.7265,-4.7265,-4.7205,-4.7053,-4.6959,-4.6806,-4.6686,-4.6421,-4.6361,-4.6326,-4.6326,-4.6326,-4.6326,-4.6326,-4.6326,-4.6326,-4.6326,-4.6326,-4.6326,-4.6301,-4.6301,-4.6301,-4.6386,-4.6541,-4.6721,-4.6934,-4.7324,-4.756,-4.7762,-4.7938,-4.8055,-4.8172,-4.8172,-4.8172,-4.8172,-4.8172,-4.8172,-4.8172,-4.8172,-4.8172,-4.8172,-4.8146,-4.8172,-4.8172,-4.8146,-4.7911,-4.7649,-4.7362,-4.7074,-4.6052,-4.4796,-4.4342,-4.3751,-4.293,-4.2526,-4.2251,-4.1896,-4.1435,-4.0813,-4.0122,-3.9539,-3.888,-3.6933,-3.5748,-3.3877,-3.2174,-3.1228,-3.0235,-3.0157,-3.0157,-3.0157,-3.0098,-3.0098,-3.0098,-3.002,-2.9863,-2.9686,-2.9941,-3.0332,-3.0547,-3.0762,-3.0918,-3.0976,-3.084,-3.0781,-3.0859,-4.4367,-4.491,-4.4884,-4.5207,-4.5662,-4.5261,-4.5475,-4.6034,-4.6115,-4.6624,-4.7456,-4.7918,-4.8464,-4.9062,-4.9222,-4.9295,-4.924,-4.8695,-4.8405,-4.8172,-4.7703,-4.7501,-4.7619,-4.7442,-4.7442,-4.7795,-4.7383,-4.7383,-4.756,-4.7442,-4.7383,-4.7442,-4.7383,-4.7146,-4.6959,-4.678,-4.6601,-4.6421,-4.6326,-4.6326,-4.6326,-4.6326,-4.6326,-4.6326,-4.6326,-4.6326,-4.6326,-4.6326,-4.6326,-4.6326,-4.6326,-4.6326,-4.6301,-4.6301,-4.6541,-4.6993,-4.7409,-4.756,-4.7821,-4.7997,-4.8172,-4.8172,-4.8172,-4.8172,-4.8172,-4.8172,-4.8172,-4.8172,-4.8172,-4.8172,-4.8172,-4.8172,-4.8172,-4.8172,-4.8146,-4.8041,-4.7728,-4.7466,-4.7231,-4.6316,-4.568,-4.4796,-4.3914,-4.293,-4.2575,-4.2012,-4.155,-4.1217,-4.0604,-4.0306,-3.9267,-3.6692,-3.4853,-3.3247,-3.2006,-3.1462,-3.0742,-3.0528,-3.0528,-3.0528,-3.0411,-3.0352,-3.0333,-3.0392,-3.0333,-3.0235,-3.0392,-3.045,-3.0587,-3.0762,-3.0879,-3.0937,-3.0898,-3.0839,-3.0858,-4.4938,-4.5502,-4.5502,-4.5822,-4.6297,-4.6245,-4.6482,-4.6826,-4.721,-4.7747,-4.8155,-4.8899,-4.9337,-4.9555,-4.974,-4.9872,-4.9643,-4.9186,-4.8784,-4.8521,-4.7938,-4.7821,-4.7997,-4.7442,-4.756,-4.7762,-4.7383,-4.7442,-4.7527,-4.7527,-4.7762,-4.788,-4.7619,-4.7501,-4.7172,-4.69,-4.6601,-4.6361,-4.6301,-4.6326,-4.6326,-4.6326,-4.6326,-4.6326,-4.6326,-4.6326,-4.6326,-4.6326,-4.6326,-4.6326,-4.6326,-4.6326,-4.6326,-4.6326,-4.6301,-4.6541,-4.6934,-4.7383,-4.7619,-4.788,-4.8055,-4.8055,-4.8114,-4.8172,-4.8172,-4.8172,-4.8172,-4.8172,-4.8172,-4.8172,-4.8172,-4.8172,-4.8172,-4.8172,-4.8172,-4.8172,-4.8015,-4.7858,-4.7623,-4.7388,-4.6581,-4.5727,-4.4843,-4.372,-4.2762,-4.2199,-4.1688,-4.1272,-4.0588,-3.9831,-3.9343,-3.6799,-3.4334,-3.2626,-3.1916,-3.1348,-3.1113,-3.0801,-3.0762,-3.0762,-3.0704,-3.0587,-3.0704,-3.0762,-3.0645,-3.0587,-3.0528,-3.0587,-3.0645,-3.0762,-3.0937,-3.0937,-3.0937,-3.0917,-3.0916,-4.5875,-4.6086,-4.6086,-4.6245,-4.6482,-4.6535,-4.6778,-4.721,-4.7614,-4.816,-4.8708,-4.9228,-4.9637,-4.9798,-4.9985,-5.001,-4.9897,-4.9358,-4.9014,-4.8784,-4.8347,-4.8172,-4.8172,-4.7677,-4.7527,-4.7645,-4.7172,-4.69,-4.7138,-4.7409,-4.756,-4.7821,-4.7619,-4.7442,-4.7349,-4.7019,-4.678,-4.6566,-4.6446,-4.6326,-4.6326,-4.6326,-4.6326,-4.6326,-4.6326,-4.6326,-4.6326,-4.6326,-4.6326,-4.6326,-4.6326,-4.6326,-4.6326,-4.6326,-4.6301,-4.6361,-4.6721,-4.7019,-4.7197,-4.7468,-4.7645,-4.7703,-4.7821,-4.7997,-4.8114,-4.8172,-4.8172,-4.8172,-4.8172,-4.8172,-4.8172,-4.8172,-4.8172,-4.8172,-4.8172,-4.8172,-4.8172,-4.8172,-4.8015,-4.778,-4.7461,-4.6575,-4.5634,-4.4529,-4.3438,-4.2612,-4.1541,-4.0442,-3.9185,-3.7658,-3.7339,-3.6802,-3.4327,-3.2097,-3.1722,-3.1407,-3.1192,-3.0976,-3.0859,-3.0859,-3.0898,-3.0898,-3.0898,-3.0898,-3.084,-3.0762,-3.0704,-3.0704,-3.0762,-3.0879,-3.0995,-3.0937,-3.0937,-3.0937,-3.0801,-4.6535,-4.6535,-4.6535,-4.6535,-4.6562,-4.6671,-4.6997,-4.7404,-4.7946,-4.8464,-4.9034,-4.9471,-4.9798,-4.9985,-4.9983,-5.001,-4.9953,-4.9529,-4.9244,-4.8957,-4.8726,-4.8579,-4.8379,-4.7854,-4.7442,-4.7762,-4.684,-4.6566,-4.6661,-4.69,-4.7172,-4.756,-4.7383,-4.729,-4.729,-4.7019,-4.6746,-4.6566,-4.6386,-4.6301,-4.6326,-4.6326,-4.6326,-4.6326,-4.6326,-4.6326,-4.6326,-4.6326,-4.6326,-4.6326,-4.6326,-4.6326,-4.6326,-4.6326,-4.6326,-4.6301,-4.6541,-4.6661,-4.684,-4.6993,-4.7146,-4.7324,-4.7501,-4.788,-4.8114,-4.8172,-4.8172,-4.8172,-4.8172,-4.8172,-4.8172,-4.8172,-4.8172,-4.8172,-4.8172,-4.8172,-4.8172,-4.8172,-4.8172,-4.8041,-4.7722,-4.7346,-4.6398,-4.5311,-4.4187,-4.3112,-4.1679,-3.9861,-3.8148,-3.6316,-3.6093,-3.6003,-3.4366,-3.2307,-3.207,-3.1777,-3.1484,-3.1191,-3.1074,-3.0957,-3.0957,-3.0918,-3.0898,-3.0898,-3.0898,-3.0898,-3.0762,-3.084,-3.0898,-3.0937,-3.0995,-3.0995,-3.0937,-3.0937,-3.0801,-4.6535,-4.6535,-4.6482,-4.6562,-4.6537,-4.7132,-4.7377,-4.7649,-4.8545,-4.8979,-4.9277,-4.9657,-4.9958,-5.001,-5.001,-5.001,-5.001,-4.9953,-4.9613,-4.9301,-4.9072,-4.9072,-4.8784,-4.8204,-4.756,-4.7821,-4.7019,-4.6481,-4.6386,-4.6481,-4.6755,-4.7146,-4.7112,-4.6993,-4.6959,-4.69,-4.6626,-4.6506,-4.6301,-4.6301,-4.6326,-4.6326,-4.6326,-4.6326,-4.6326,-4.6326,-4.6326,-4.6326,-4.6326,-4.6326,-4.6326,-4.6326,-4.6326,-4.6326,-4.6326,-4.6301,-4.6361,-4.6421,-4.6481,-4.6815,-4.7087,-4.7265,-4.7442,-4.7762,-4.8055,-4.8198,-4.8198,-4.8172,-4.8172,-4.8172,-4.8172,-4.8172,-4.8172,-4.8172,-4.8172,-4.8172,-4.8172,-4.8172,-4.8172,-4.8172,-4.7957,-4.7664,-4.674,-4.5563,-4.4317,-4.3241,-4.0444,-3.8602,-3.7407,-3.5945,-3.562,-3.5148,-3.3982,-3.2858,-3.2656,-3.2363,-3.1973,-3.1621,-3.1406,-3.1191,-3.1016,-3.0976,-3.0898,-3.0898,-3.0898,-3.0898,-3.0898,-3.0898,-3.0957,-3.0937,-3.0995,-3.0937,-3.1054,-3.117,-3.1034,-4.6535,-4.6562,-4.6915,-4.7078,-4.7078,-4.7323,-4.7785,-4.8436,-4.8924,-4.9359,-4.9657,-4.9901,-5.001,-5.001,-5.001,-5.001,-5.001,-5.001,-4.9813,-4.9727,-4.967,-4.9643,-4.9301,-4.8842,-4.8321,-4.8055,-4.729,-4.6601,-4.6301,-4.6361,-4.6421,-4.6601,-4.6695,-4.6874,-4.6874,-4.678,-4.6601,-4.6386,-4.6326,-4.6326,-4.6326,-4.6326,-4.6326,-4.6326,-4.6326,-4.6326,-4.6326,-4.6326,-4.6326,-4.6326,-4.6326,-4.6326,-4.6326,-4.6326,-4.6326,-4.6326,-4.6326,-4.6326,-4.6301,-4.6541,-4.6721,-4.6959,-4.7078,-4.7375,-4.7821,-4.788,-4.8055,-4.8114,-4.8172,-4.8172,-4.8172,-4.8172,-4.8172,-4.8172,-4.8172,-4.8172,-4.8172,-4.8172,-4.8172,-4.8172,-4.8172,-4.8068,-4.6938,-4.5784,-4.4486,-4.3111,-4.0081,-3.7429,-3.6276,-3.5438,-3.5005,-3.4819,-3.3726,-3.3113,-3.2891,-3.2656,-3.2402,-3.207,-3.1738,-3.1543,-3.1309,-3.0957,-3.0898,-3.0898,-3.0898,-3.0898,-3.0898,-3.0898,-3.0957,-3.0957,-3.0937,-3.0937,-3.1112,-3.1286,-3.1208,-4.6535,-4.6589,-4.716,-4.7404,-4.7458,-4.7784,-4.8355,-4.9005,-4.9331,-4.9603,-5.001,-5.001,-5.001,-5.001,-5.001,-5.001,-5.001,-5.001,-5.001,-4.9953,-4.9953,-5.001,-4.9783,-4.9358,-4.8784,-4.8347,-4.788,-4.7231,-4.7019,-4.6721,-4.6695,-4.6636,-4.6421,-4.6576,-4.6695,-4.678,-4.6481,-4.6361,-4.6326,-4.6326,-4.6326,-4.6326,-4.6326,-4.6326,-4.6326,-4.6326,-4.6326,-4.6326,-4.6326,-4.6326,-4.6326,-4.6326,-4.6326,-4.6326,-4.6326,-4.6326,-4.6326,-4.6326,-4.6326,-4.6326,-4.6446,-4.6806,-4.6806,-4.7138,-4.7409,-4.7619,-4.788,-4.7997,-4.8114,-4.8172,-4.8172,-4.8172,-4.8172,-4.8172,-4.8172,-4.8172,-4.8172,-4.8172,-4.8172,-4.8172,-4.8172,-4.8088,-4.7008,-4.5588,-4.2844,-4.1412,-3.9092,-3.659,-3.5067,-3.4403,-3.4153,-3.4027,-3.378,-3.3371,-3.3047,-3.293,-3.2812,-3.2519,-3.2207,-3.1992,-3.1719,-3.1328,-3.1094,-3.1152,-3.1113,-3.0957,-3.0898,-3.0898,-3.0898,-3.0898,-3.0957,-3.0957,-3.1112,-3.1286,-3.1383,-4.6482,-4.6589,-4.7187,-4.7458,-4.7649,-4.8599,-4.9087,-4.9277,-4.9711,-4.9956,-5.001,-5.001,-5.001,-5.001,-5.001,-5.001,-5.001,-5.001,-5.001,-5.001,-5.001,-5.001,-4.984,-4.9499,-4.9129,-4.8983,-4.8463,-4.8114,-4.7938,-4.7265,-4.7087,-4.6934,-4.6576,-4.6361,-4.6361,-4.6301,-4.6301,-4.6326,-4.6326,-4.6326,-4.6326,-4.6326,-4.6326,-4.6326,-4.6326,-4.6326,-4.6326,-4.6326,-4.6326,-4.6326,-4.6326,-4.6326,-4.6326,-4.6326,-4.6326,-4.6326,-4.6326,-4.6326,-4.6326,-4.6326,-4.6446,-4.6686,-4.6686,-4.69,-4.7146,-4.7442,-4.7645,-4.7703,-4.788,-4.8114,-4.8172,-4.8172,-4.8114,-4.8172,-4.8172,-4.8172,-4.8172,-4.8172,-4.8172,-4.8172,-4.8172,-4.8029,-4.7,-4.5231,-4.162,-3.9333,-3.7601,-3.5957,-3.4352,-3.3832,-3.3808,-3.3607,-3.365,-3.3485,-3.3242,-3.332,-3.3223,-3.293,-3.2637,-3.2383,-3.2109,-3.1777,-3.1582,-3.1504,-3.1309,-3.1133,-3.1016,-3.0898,-3.0898,-3.0898,-3.0898,-3.0957,-3.117,-3.1267,-3.1383,-4.6699,-4.716,-4.7703,-4.8165,-4.8572,-4.8952,-4.9331,-4.9711,-4.9928,-5.001,-5.001,-5.001,-5.001,-5.001,-5.001,-5.001,-5.001,-5.001,-5.001,-5.001,-5.001,-5.001,-4.9897,-4.9783,-4.9499,-4.9129,-4.8811,-4.8579,-4.8114,-4.7677,-4.7324,-4.7027,-4.6636,-4.6301,-4.6301,-4.6326,-4.6326,-4.6326,-4.6326,-4.6326,-4.6326,-4.6326,-4.6326,-4.6326,-4.6326,-4.6326,-4.6326,-4.6326,-4.6326,-4.6326,-4.6326,-4.6326,-4.6326,-4.6326,-4.6326,-4.6326,-4.6326,-4.6326,-4.6326,-4.6326,-4.6326,-4.6446,-4.6506,-4.6661,-4.69,-4.7019,-4.7172,-4.7349,-4.7501,-4.7703,-4.7821,-4.788,-4.788,-4.8114,-4.8172,-4.8172,-4.8172,-4.8172,-4.8172,-4.8172,-4.8172,-4.7213,-4.6254,-4.5168,-4.204,-3.9497,-3.7932,-3.6097,-3.4433,-3.4059,-3.3892,-3.3598,-3.3481,-3.3418,-3.3418,-3.3418,-3.3418,-3.3203,-3.293,-3.2695,-3.2422,-3.2187,-3.2051,-3.1934,-3.1621,-3.1309,-3.1211,-3.1094,-3.0937,-3.0898,-3.0898,-3.0898,-3.0995,-3.117,-3.1325,-4.7051,-4.7486,-4.8219,-4.8707,-4.9086,-4.9359,-4.9684,-4.9956,-5.001,-5.001,-5.001,-5.001,-5.001,-5.001,-5.001,-5.001,-5.001,-5.001,-5.001,-5.001,-5.001,-5.001,-5.001,-5.001,-4.9783,-4.9472,-4.9358,-4.9213,-4.8926,-4.8204,-4.7677,-4.7205,-4.6636,-4.6361,-4.6326,-4.6326,-4.6326,-4.6326,-4.6326,-4.6326,-4.6326,-4.6326,-4.6326,-4.6326,-4.6326,-4.6326,-4.6326,-4.6326,-4.6326,-4.6351,-4.6351,-4.6351,-4.6351,-4.6326,-4.6326,-4.6326,-4.6326,-4.6326,-4.6326,-4.6326,-4.6326,-4.6326,-4.6326,-4.6446,-4.6626,-4.6806,-4.69,-4.7053,-4.7087,-4.7265,-4.7442,-4.7501,-4.7762,-4.7997,-4.8114,-4.8114,-4.8172,-4.8172,-4.8172,-4.8172,-4.8055,-4.6891,-4.5824,-4.4376,-4.2592,-4.0475,-3.8422,-3.6521,-3.4784,-3.4497,-3.4127,-3.375,-3.3496,-3.3437,-3.3437,-3.3418,-3.3418,-3.3418,-3.3203,-3.2969,-3.2871,-3.2676,-3.2519,-3.2405,-3.2012,-3.1719,-3.1484,-3.1328,-3.1172,-3.1016,-3.0898,-3.0898,-3.0898,-3.1054,-3.1228,-4.7404,-4.7621,-4.8653,-4.9142,-4.925,-4.9739,-4.9983,-5.001,-5.001,-5.001,-5.001,-5.001,-5.001,-5.001,-5.001,-5.001,-5.001,-5.001,-5.001,-5.001,-5.001,-5.001,-5.001,-5.001,-4.9897,-4.9953,-4.9897,-4.9783,-4.984,-4.9072,-4.8262,-4.7324,-4.6755,-4.6481,-4.6361,-4.6426,-4.6401,-4.6351,-4.6326,-4.6326,-4.6326,-4.6401,-4.6476,-4.6527,-4.6577,-4.6627,-4.6627,-4.6602,-4.6552,-4.6527,-4.6476,-4.6451,-4.6401,-4.6351,-4.6351,-4.6326,-4.6326,-4.6326,-4.6326,-4.6326,-4.6326,-4.6326,-4.6326,-4.6301,-4.6361,-4.6541,-4.6661,-4.678,-4.6874,-4.7053,-4.7146,-4.7383,-4.7586,-4.7762,-4.7997,-4.8055,-4.8114,-4.8114,-4.8172,-4.8172,-4.8172,-4.7475,-4.65,-4.5037,-4.3138,-4.1534,-3.9455,-3.7398,-3.5836,-3.5007,-3.4595,-3.3984,-3.373,-3.3496,-3.3457,-3.3437,-3.3418,-3.3418,-3.3418,-3.3242,-3.3184,-3.3105,-3.293,-3.2715,-3.2483,-3.219,-3.1816,-3.1582,-3.1406,-3.125,-3.1094,-3.0937,-3.0957,-3.0898,-3.0995,-4.7595,-4.8056,-4.8816,-4.9359,-4.9739,-4.9928,-5.001,-5.001,-5.001,-5.001,-5.001,-5.001,-5.001,-5.001,-5.001,-5.001,-5.001,-5.001,-5.001,-5.001,-5.001,-5.001,-5.001,-5.001,-5.001,-5.001,-5.001,-5.001,-4.984,-4.9415,-4.8495,-4.7324,-4.7163,-4.6806,-4.6657,-4.6702,-4.6602,-4.6502,-4.6476,-4.6476,-4.6552,-4.6728,-4.6828,-4.6928,-4.7179,-4.7255,-4.7305,-4.733,-4.733,-4.738,-4.7405,-4.7431,-4.7431,-4.7104,-4.6803,-4.6351,-4.6326,-4.6326,-4.6326,-4.6326,-4.6326,-4.6326,-4.6326,-4.6326,-4.6301,-4.6361,-4.6481,-4.6541,-4.6601,-4.6695,-4.6874,-4.7053,-4.7231,-4.7409,-4.7645,-4.7821,-4.7938,-4.8055,-4.8055,-4.8172,-4.8172,-4.7997,-4.7061,-4.5329,-4.3434,-4.2178,-4.0513,-3.8366,-3.6708,-3.5785,-3.5034,-3.444,-3.3965,-3.373,-3.3516,-3.3437,-3.3437,-3.3418,-3.3418,-3.3418,-3.334,-3.3262,-3.3242,-3.3086,-3.2812,-3.2461,-3.209,-3.1914,-3.1836,-3.1543,-3.1367,-3.1172,-3.0996,-3.0957,-3.0898,-4.8056,-4.8598,-4.925,-4.9684,-4.9956,-5.001,-5.001,-5.001,-5.001,-5.001,-5.001,-5.001,-5.001,-5.001,-5.001,-5.001,-5.001,-5.001,-5.001,-5.001,-5.001,-5.001,-5.001,-5.001,-5.001,-5.001,-5.001,-5.001,-4.984,-4.9442,-4.8553,-4.8172,-4.7951,-4.7539,-4.7383,-4.7531,-4.75,-4.7227,-4.6979,-4.6954,-4.7054,-4.723,-4.738,-4.7506,-4.7832,-4.7908,-4.7958,-4.7958,-4.7958,-4.7933,-4.7908,-4.7908,-4.7883,-4.7556,-4.738,-4.7004,-4.6778,-4.6728,-4.6652,-4.6401,-4.6351,-4.6326,-4.6326,-4.6326,-4.6326,-4.6301,-4.6301,-4.6361,-4.6361,-4.6361,-4.6541,-4.6721,-4.69,-4.7053,-4.729,-4.756,-4.7703,-4.788,-4.7997,-4.8172,-4.8172,-4.8172,-4.7121,-4.539,-4.3955,-4.2958,-4.1396,-3.9169,-3.7463,-3.621,-3.5534,-3.4929,-3.4375,-3.3945,-3.373,-3.3535,-3.3457,-3.3437,-3.3418,-3.3418,-3.3418,-3.3398,-3.334,-3.3281,-3.3203,-3.2871,-3.2539,-3.2422,-3.2305,-3.2031,-3.1758,-3.1562,-3.1309,-3.1016,-3.0957,-4.8571,-4.9142,-4.9766,-4.9983,-5.001,-5.001,-5.001,-5.001,-5.001,-5.001,-5.001,-5.001,-5.001,-5.001,-5.001,-5.001,-5.001,-5.001,-5.001,-5.001,-5.001,-5.001,-5.001,-5.001,-5.001,-5.001,-5.001,-5.001,-4.984,-4.9556,-4.9297,-4.9152,-4.9106,-4.8659,-4.8205,-4.8569,-4.8466,-4.7945,-4.7908,-4.7958,-4.7832,-4.7883,-4.7983,-4.7983,-4.8083,-4.8134,-4.8134,-4.8083,-4.8033,-4.8058,-4.8083,-4.8159,-4.8033,-4.8033,-4.7958,-4.7732,-4.7355,-4.7129,-4.6954,-4.6677,-4.6451,-4.6351,-4.6326,-4.6326,-4.6326,-4.6326,-4.6326,-4.6326,-4.6301,-4.6301,-4.6421,-4.6541,-4.6661,-4.678,-4.7019,-4.729,-4.7501,-4.7762,-4.8055,-4.8172,-4.8172,-4.8114,-4.7677,-4.5935,-4.4017,-4.3419,-4.1524,-3.9233,-3.798,-3.6536,-3.587,-3.534,-3.4883,-3.4375,-3.3965,-3.375,-3.3535,-3.3476,-3.3437,-3.3418,-3.3418,-3.3418,-3.3418,-3.3398,-3.3398,-3.3301,-3.3086,-3.3027,-3.2871,-3.2539,-3.2266,-3.2012,-3.1699,-3.1348,-3.1035,-4.895,-4.9196,-4.9766,-5.001,-5.001,-5.001,-5.001,-5.001,-5.001,-5.001,-5.001,-5.001,-5.001,-5.001,-5.001,-5.001,-5.001,-5.001,-5.001,-5.001,-5.001,-5.001,-5.001,-5.001,-5.001,-5.001,-5.001,-5.0037,-5.0035,-4.9891,-4.9768,-4.9796,-4.9849,-4.962,-4.8901,-4.9353,-4.9351,-4.8649,-4.8812,-4.8586,-4.8159,-4.8385,-4.856,-4.8686,-4.8812,-4.9012,-4.9063,-4.9113,-4.9138,-4.9188,-4.9213,-4.8987,-4.8611,-4.8586,-4.8335,-4.7983,-4.7857,-4.7606,-4.7305,-4.7029,-4.6728,-4.6451,-4.6351,-4.6326,-4.6326,-4.6326,-4.6326,-4.6326,-4.6326,-4.6326,-4.6301,-4.6361,-4.6481,-4.6601,-4.6721,-4.6993,-4.7265,-4.7645,-4.7997,-4.8114,-4.8172,-4.788,-4.7501,-4.62,-4.451,-4.2431,-4.0083,-3.8242,-3.7616,-3.6535,-3.602,-3.5555,-3.5371,-3.4922,-3.4434,-3.3965,-3.375,-3.3555,-3.3476,-3.3437,-3.3418,-3.3418,-3.3418,-3.3535,-3.3574,-3.3516,-3.3574,-3.3769,-3.3555,-3.3125,-3.2832,-3.2598,-3.2266,-3.1894,-3.1445,-4.9277,-4.9549,-4.9874,-5.001,-5.001,-5.001,-5.001,-5.001,-5.001,-5.001,-5.001,-5.001,-5.001,-5.001,-5.001,-5.001,-5.001,-5.001,-5.001,-5.001,-5.001,-5.001,-5.001,-5.001,-5.001,-5.001,-5.0037,-5.0091,-5.0308,-5.0414,-5.0428,-5.0735,-5.0859,-5.0645,-4.9949,-5.0168,-5.0038,-4.9227,-4.9464,-4.9188,-4.8586,-4.8937,-4.9138,-4.9289,-4.9389,-4.959,-4.959,-4.959,-4.959,-4.9565,-4.954,-4.9439,-4.9188,-4.9138,-4.8987,-4.8711,-4.8485,-4.8159,-4.7832,-4.7431,-4.7054,-4.6753,-4.6376,-4.6351,-4.6326,-4.6326,-4.6326,-4.6326,-4.6326,-4.6326,-4.6326,-4.6361,-4.6361,-4.6421,-4.6481,-4.6661,-4.7053,-4.7468,-4.7762,-4.788,-4.7645,-4.7002,-4.62,-4.4302,-4.2769,-4.1947,-3.9518,-3.7929,-3.7213,-3.6626,-3.6178,-3.577,-3.5566,-3.5391,-3.498,-3.4434,-3.3945,-3.375,-3.3574,-3.3457,-3.3418,-3.3418,-3.3437,-3.3516,-3.3633,-3.375,-3.3867,-3.4062,-3.4062,-3.3672,-3.3418,-3.3223,-3.2832,-3.2461,-3.2051,-4.9549,-4.9983,-5.001,-5.001,-5.001,-5.001,-5.001,-5.001,-5.001,-5.001,-5.001,-5.001,-5.001,-5.001,-5.001,-5.001,-5.001,-5.001,-5.001,-5.001,-5.001,-5.001,-5.001,-5.001,-5.001,-5.0091,-5.0173,-5.0471,-5.077,-5.096,-5.1339,-5.1936,-5.2047,-5.2064,-5.1365,-5.107,-5.0891,-4.9874,-4.959,-4.959,-4.9565,-4.959,-4.954,-4.9565,-4.959,-4.959,-4.959,-4.959,-4.959,-4.959,-4.959,-4.954,-4.9515,-4.9464,-4.949,-4.9289,-4.9038,-4.8812,-4.851,-4.7933,-4.7481,-4.7054,-4.6627,-4.6426,-4.6401,-4.6326,-4.6326,-4.6326,-4.6326,-4.6326,-4.6326,-4.6326,-4.6326,-4.6326,-4.6361,-4.6481,-4.69,-4.729,-4.7468,-4.7645,-4.7205,-4.6525,-4.5025,-4.3083,-4.1756,-4.0924,-3.9649,-3.8242,-3.7146,-3.6674,-3.6209,-3.5907,-3.5762,-3.5566,-3.5332,-3.4941,-3.4375,-3.4101,-3.3926,-3.3652,-3.3437,-3.3418,-3.3418,-3.3457,-3.3574,-3.3809,-3.4004,-3.418,-3.4121,-3.4121,-3.3867,-3.3594,-3.3359,-3.2988,-3.2676,-4.9901,-5.001,-5.001,-5.001,-5.001,-5.001,-5.001,-5.001,-5.001,-5.001,-5.001,-5.001,-5.001,-5.001,-5.001,-5.001,-5.001,-5.001,-5.001,-5.001,-5.001,-5.001,-5.001,-5.001,-5.001,-5.0173,-5.0444,-5.0797,-5.1258,-5.1557,-5.1964,-5.2533,-5.2588,-5.2339,-5.1662,-5.1408,-5.1031,-5.0104,-4.959,-4.959,-4.959,-4.959,-4.959,-4.959,-4.959,-4.959,-4.959,-4.959,-4.959,-4.959,-4.959,-4.959,-4.959,-4.959,-4.959,-4.959,-4.9364,-4.9188,-4.8812,-4.846,-4.8033,-4.7405,-4.7004,-4.6702,-4.6577,-4.6326,-4.6326,-4.6326,-4.6326,-4.6326,-4.6326,-4.6326,-4.6326,-4.6386,-4.6421,-4.6566,-4.6866,-4.7112,-4.7349,-4.7442,-4.7383,-4.6645,-4.5718,-4.3831,-4.1988,-4.086,-3.908,-3.7729,-3.6626,-3.6355,-3.6219,-3.6093,-3.5898,-3.5684,-3.5449,-3.5351,-3.4922,-3.4609,-3.4219,-3.3867,-3.3594,-3.3437,-3.3418,-3.3437,-3.3652,-3.3926,-3.4101,-3.4219,-3.4414,-3.4375,-3.416,-3.3926,-3.373,-3.3496,-3.3164]},{"header":{"parameterUnit":"m.s-1","parameterCategory":1,"la1":31.0,"la2":29.5877,"lo1":-88.7671,"lo2":-86.6584,"dx":0.0162,"dy":0.0185,"nx":115,"ny":88,"refTime":"2023-02-02T18:00:00:Z","depth":0,"parameterNumber":3,"parameterNumberName":"V-component_of_WINDS"},"data":[0.0,0.0,0.0,0.0,0.0,0.0,0.0,0.0,0.0,0.0,0.0,0.0,0.0,0.0,0.0,0.0,0.0,0.0,0.0,0.0,0.0,0.0,0.0,0.0,0.0,0.0,0.0,0.0,0.0,0.0,0.0,0.0,0.0,0.0,0.0,0.0,0.0,0.0,0.0,0.0,0.0,0.0,0.0,0.0,0.0,0.0,0.0,0.0,0.0,0.0,0.0,0.0,0.0,0.0,0.0,0.0,0.0,0.0,0.0,0.0,0.0,0.0,0.0,0.0,0.0,0.0,0.0,0.0,0.0,0.0,0.0,0.0,0.0,0.0,0.0,0.0,0.0,0.0,0.0,0.0,0.0,0.0,0.0,0.0,0.0,0.0,0.0,0.0,0.0,0.0,0.0,0.0,0.0,0.0,0.0,0.0,0.0,0.0,0.0,0.0,0.0,0.0,0.0,0.0,0.0,0.0,0.0,0.0,0.0,0.0,0.0,0.0,0.0,0.0,0.0,0.0,0.0,0.0,0.0,0.0,0.0,0.0,0.0,0.0,0.0,0.0,0.0,0.0,0.0,0.0,0.0,0.0,0.0,0.0,0.0,0.0,0.0,0.0,0.0,0.0,0.0,0.0,0.0,0.0,0.0,0.0,0.0,0.0,0.0,0.0,0.0,0.0,0.0,0.0,0.0,0.0,0.0,0.0,0.0,0.0,0.0,0.0,0.0,0.0,0.0,0.0,0.0,0.0,0.0,0.0,0.0,0.0,0.0,0.0,0.0,0.0,0.0,0.0,0.0,0.0,0.0,0.0,0.0,0.0,0.0,0.0,0.0,0.0,0.0,0.0,0.0,0.0,0.0,0.0,0.0,0.0,0.0,0.0,0.0,0.0,0.0,0.0,0.0,0.0,0.0,0.0,0.0,0.0,0.0,0.0,0.0,0.0,0.0,0.0,0.0,0.0,0.0,0.0,0.0,0.0,0.0,0.0,0.0,0.0,0.0,0.0,0.0,0.0,0.0,0.0,0.0,0.0,0.0,0.0,0.0,0.0,0.0,0.0,0.0,0.0,0.0,0.0,0.0,0.0,0.0,0.0,0.0,0.0,0.0,0.0,0.0,0.0,0.0,0.0,0.0,0.0,0.0,0.0,0.0,0.0,0.0,0.0,0.0,0.0,0.0,0.0,0.0,0.0,0.0,0.0,0.0,0.0,0.0,0.0,0.0,0.0,0.0,0.0,0.0,0.0,0.0,0.0,0.0,0.0,0.0,0.0,0.0,0.0,0.0,0.0,0.0,0.0,0.0,0.0,0.0,0.0,0.0,0.0,0.0,0.0,0.0,0.0,0.0,0.0,0.0,0.0,0.0,0.0,0.0,0.0,0.0,0.0,0.0,0.0,0.0,0.0,0.0,0.0,0.0,0.0,0.0,0.0,0.0,0.0,0.0,0.0,0.0,0.0,0.0,0.0,0.0,0.0,0.0,0.0,0.0,0.0,0.0,0.0,0.0,0.0,0.0,0.0,0.0,0.0,0.0,0.0,0.0,0.0,0.0,0.0,0.0,0.0,0.0,0.0,0.0,0.0,0.0,0.0,0.0,0.0,0.0,0.0,0.0,0.0,0.0,0.0,0.0,0.0,0.0,0.0,0.0,0.0,0.0,0.0,0.0,0.0,0.0,0.0,0.0,0.0,0.0,0.0,0.0,0.0,0.0,0.0,0.0,0.0,0.0,0.0,0.0,0.0,0.0,0.0,0.0,0.0,0.0,0.0,0.0,0.0,0.0,0.0,0.0,0.0,0.0,0.0,0.0,0.0,0.0,0.0,0.0,0.0,0.0,0.0,0.0,0.0,0.0,0.0,0.0,0.0,0.0,0.0,0.0,0.0,0.0,0.0,0.0,0.0,0.0,0.0,0.0,0.0,0.0,0.0,0.0,0.0,0.0,0.0,0.0,0.0,0.0,0.0,0.0,0.0,0.0,0.0,0.0,0.0,0.0,0.0,0.0,0.0,0.0,0.0,0.0,0.0,0.0,0.0,0.0,0.0,0.0,0.0,0.0,0.0,0.0,0.0,0.0,0.0,0.0,0.0,0.0,0.0,0.0,0.0,0.0,0.0,0.0,0.0,0.0,0.0,0.0,0.0,0.0,0.0,0.0,0.0,0.0,0.0,0.0,0.0,0.0,0.0,0.0,0.0,0.0,0.0,0.0,0.0,0.0,0.0,0.0,0.0,0.0,0.0,0.0,0.0,0.0,0.0,0.0,0.0,0.0,0.0,0.0,0.0,0.0,0.0,0.0,0.0,0.0,0.0,0.0,0.0,0.0,0.0,0.0,0.0,0.0,0.0,0.0,0.0,0.0,0.0,0.0,0.0,0.0,0.0,0.0,0.0,0.0,0.0,0.0,0.0,0.0,0.0,0.0,0.0,0.0,0.0,0.0,0.0,0.0,0.0,0.0,0.0,0.0,0.0,0.0,0.0,0.0,0.0,0.0,0.0,0.0,0.0,0.0,0.0,0.0,0.0,0.0,0.0,0.0,0.0,0.0,0.0,0.0,0.0,0.0,0.0,0.0,0.0,0.0,0.0,0.0,0.0,0.0,0.0,0.0,0.0,0.0,0.0,0.0,0.0,0.0,0.0,0.0,0.0,0.0,0.0,0.0,0.0,0.0,0.0,0.0,0.0,0.0,0.0,0.0,0.0,0.0,0.0,0.0,0.0,0.0,0.0,0.0,0.0,0.0,0.0,0.0,0.0,0.0,0.0,0.0,0.0,0.0,0.0,0.0,0.0,0.0,0.0,0.0,0.0,0.0,0.0,0.0,0.0,0.0,0.0,0.0,0.0,0.0,0.0,0.0,0.0,0.0,0.0,0.0,0.0,0.0,0.0,0.0,0.0,0.0,0.0,0.0,0.0,0.0,0.0,0.0,0.0,0.0,0.0,0.0,0.0,0.0,0.0,0.0,0.0,0.0,0.0,0.0,0.0,0.0,0.0,0.0,0.0,0.0,0.0,0.0,0.0,0.0,0.0,0.0,0.0,0.0,0.0,0.0,0.0,0.0,0.0,0.0,0.0,0.0,0.0,0.0,0.0,0.0,0.0,0.0,0.0,0.0,0.0,0.0,0.0,0.0,0.0,0.0,0.0,0.0,0.0,0.0,0.0,0.0,0.0,0.0,0.0,0.0,0.0,0.0,0.0,0.0,0.0,0.0,0.0,0.0,0.0,0.0,0.0,0.0,0.0,0.0,0.0,0.0,0.0,0.0,0.0,0.0,0.0,0.0,0.0,0.0,0.0,0.0,0.0,0.0,0.0,0.0,0.0,0.0,0.0,0.0,0.0,0.0,0.0,0.0,0.0,0.0,0.0,0.0,0.0,0.0,0.0,0.0,0.0,0.0,0.0,0.0,0.0,0.0,0.0,0.0,0.0,0.0,0.0,0.0,0.0,0.0,0.0,0.0,0.0,0.0,0.0,0.0,0.0,0.0,0.0,0.0,0.0,0.0,0.0,0.0,0.0,0.0,0.0,0.0,0.0,0.0,0.0,0.0,0.0,0.0,0.0,0.0,0.0,0.0,0.0,0.0,0.0,0.0,0.0,0.0,0.0,0.0,0.0,0.0,0.0,0.0,0.0,0.0,0.0,0.0,0.0,0.0,0.0,0.0,0.0,0.0,0.0,0.0,0.0,0.0,0.0,0.0,0.0,0.0,0.0,0.0,0.0,0.0,0.0,0.0,0.0,0.0,0.0,0.0,0.0,0.0,0.0,0.0,0.0,0.0,0.0,0.0,0.0,0.0,0.0,0.0,0.0,0.0,0.0,0.0,0.0,0.0,0.0,0.0,0.0,0.0,0.0,0.0,0.0,0.0,0.0,0.0,0.0,0.0,0.0,0.0,0.0,0.0,0.0,0.0,0.0,0.0,0.0,0.0,0.0,0.0,0.0,0.0,0.0,0.0,0.0,0.0,0.0,0.0,0.0,0.0,0.0,0.0,0.0,0.0,0.0,0.0,0.0,0.0,0.0,0.0,0.0,0.0,0.0,0.0,0.0,0.0,0.0,0.0,0.0,0.0,0.0,0.0,0.0,0.0,0.0,0.0,0.0,0.0,0.0,0.0,0.0,0.0,0.0,0.0,0.0,0.0,0.0,0.0,0.0,0.0,0.0,0.0,0.0,0.0,0.0,0.0,0.0,0.0,0.0,0.0,0.0,0.0,0.0,0.0,0.0,0.0,0.0,0.0,0.0,0.0,0.0,0.0,0.0,0.0,0.0,0.0,0.0,0.0,0.0,2.8411,0.0,0.0,0.0,0.0,0.0,0.0,0.0,0.0,0.0,0.0,0.0,0.0,0.0,0.0,0.0,0.0,0.0,0.0,0.0,0.0,0.0,0.0,0.0,0.0,0.0,0.0,0.0,0.0,0.0,0.0,0.0,0.0,0.0,0.0,0.0,0.0,0.0,0.0,0.0,0.0,0.0,0.0,0.0,0.0,0.0,0.0,0.0,0.0,0.0,0.0,0.0,0.0,0.0,0.0,0.0,0.0,0.0,0.0,0.0,0.0,0.0,0.0,0.0,0.0,0.0,0.0,0.0,0.0,0.0,0.0,0.0,0.0,0.0,0.0,0.0,0.0,0.0,0.0,0.0,0.0,0.0,0.0,0.0,0.0,0.0,0.0,0.0,0.0,0.0,0.0,0.0,0.0,0.0,0.0,0.0,0.0,0.0,0.0,0.0,0.0,0.0,0.0,0.0,0.0,0.0,0.0,0.0,0.0,0.0,0.0,2.8411,2.8411,2.8411,2.8411,2.8411,0.0,0.0,0.0,0.0,0.0,0.0,0.0,0.0,0.0,0.0,0.0,0.0,0.0,0.0,0.0,0.0,0.0,0.0,0.0,0.0,0.0,0.0,0.0,0.0,0.0,0.0,0.0,0.0,0.0,0.0,0.0,0.0,0.0,0.0,0.0,0.0,0.0,0.0,0.0,0.0,0.0,0.0,0.0,0.0,0.0,0.0,0.0,0.0,0.0,0.0,0.0,0.0,0.0,0.0,0.0,0.0,0.0,0.0,0.0,0.0,0.0,0.0,0.0,0.0,0.0,0.0,0.0,0.0,0.0,0.0,0.0,0.0,0.0,0.0,0.0,0.0,0.0,0.0,0.0,0.0,0.0,0.0,0.0,0.0,0.0,0.0,0.0,0.0,0.0,0.0,0.0,0.0,0.0,0.0,0.0,0.0,0.0,0.0,0.0,0.0,0.0,0.0,0.0,0.0,0.0,0.0,0.0,0.0,0.0,0.0,0.0,0.0,2.8411,2.8436,2.8453,0.0,0.0,0.0,0.0,0.0,0.0,0.0,0.0,0.0,0.0,0.0,0.0,0.0,0.0,0.0,0.0,0.0,0.0,0.0,0.0,0.0,0.0,0.0,0.0,0.0,0.0,0.0,0.0,0.0,0.0,0.0,0.0,0.0,0.0,0.0,0.0,0.0,0.0,0.0,0.0,0.0,0.0,0.0,0.0,0.0,0.0,0.0,0.0,0.0,0.0,0.0,0.0,0.0,0.0,0.0,0.0,0.0,0.0,0.0,0.0,0.0,0.0,0.0,0.0,0.0,0.0,0.0,0.0,0.0,0.0,0.0,0.0,0.0,0.0,0.0,0.0,0.0,0.0,0.0,0.0,0.0,0.0,0.0,0.0,0.0,0.0,0.0,0.0,0.0,0.0,0.0,0.0,0.0,0.0,0.0,0.0,0.0,0.0,0.0,0.0,0.0,0.0,0.0,0.0,0.0,0.0,0.0,0.0,0.0,0.0,2.8411,2.8411,2.8411,0.0,2.8637,0.0,0.0,0.0,0.0,0.0,0.0,0.0,0.0,0.0,0.0,0.0,0.0,0.0,0.0,0.0,0.0,0.0,0.0,0.0,0.0,0.0,0.0,0.0,0.0,0.0,0.0,0.0,0.0,0.0,0.0,0.0,0.0,0.0,0.0,0.0,0.0,0.0,0.0,0.0,0.0,0.0,0.0,0.0,0.0,0.0,0.0,0.0,0.0,0.0,0.0,0.0,0.0,0.0,0.0,0.0,0.0,0.0,0.0,0.0,0.0,0.0,0.0,0.0,0.0,0.0,0.0,0.0,0.0,0.0,0.0,0.0,0.0,0.0,0.0,0.0,0.0,0.0,0.0,0.0,0.0,0.0,0.0,0.0,0.0,0.0,0.0,0.0,0.0,0.0,0.0,0.0,0.0,0.0,0.0,0.0,0.0,0.0,0.0,0.0,0.0,0.0,0.0,0.0,0.0,0.0,0.0,0.0,0.0,0.0,0.0,2.8645,2.8811,2.8668,2.8692,0.0,0.0,0.0,0.0,0.0,0.0,0.0,0.0,0.0,0.0,0.0,0.0,0.0,0.0,0.0,0.0,0.0,0.0,0.0,0.0,0.0,0.0,0.0,0.0,0.0,0.0,0.0,0.0,0.0,0.0,0.0,0.0,0.0,0.0,0.0,0.0,0.0,0.0,0.0,0.0,0.0,0.0,0.0,0.0,0.0,0.0,0.0,0.0,0.0,0.0,0.0,0.0,0.0,0.0,0.0,0.0,0.0,0.0,0.0,0.0,0.0,0.0,0.0,0.0,0.0,0.0,0.0,0.0,0.0,0.0,0.0,0.0,0.0,0.0,0.0,0.0,0.0,0.0,0.0,0.0,0.0,0.0,0.0,0.0,0.0,0.0,0.0,0.0,0.0,0.0,0.0,0.0,0.0,0.0,0.0,0.0,0.0,0.0,0.0,0.0,0.0,0.0,0.0,0.0,0.0,0.0,0.0,0.0,0.0,0.0,2.8685,2.8826,2.9091,2.9036,2.9097,2.938,0.0,0.0,0.0,0.0,0.0,0.0,0.0,0.0,0.0,0.0,0.0,0.0,0.0,0.0,0.0,0.0,0.0,0.0,0.0,0.0,0.0,0.0,0.0,0.0,0.0,0.0,0.0,0.0,0.0,0.0,0.0,0.0,0.0,0.0,0.0,0.0,0.0,0.0,0.0,0.0,0.0,0.0,0.0,0.0,0.0,0.0,0.0,0.0,0.0,0.0,0.0,0.0,0.0,0.0,0.0,0.0,0.0,0.0,0.0,0.0,0.0,0.0,0.0,0.0,0.0,0.0,0.0,0.0,0.0,0.0,0.0,0.0,0.0,0.0,0.0,0.0,0.0,0.0,0.0,0.0,0.0,0.0,0.0,0.0,0.0,0.0,0.0,0.0,0.0,0.0,0.0,0.0,0.0,0.0,0.0,0.0,0.0,0.0,0.0,0.0,0.0,0.0,0.0,0.0,0.0,0.0,0.0,0.0,2.8685,2.8708,2.885,2.916,2.9451,2.9805,0.0,0.0,0.0,0.0,0.0,0.0,0.0,0.0,0.0,0.0,0.0,0.0,0.0,0.0,0.0,0.0,0.0,0.0,0.0,0.0,0.0,0.0,0.0,0.0,0.0,0.0,0.0,0.0,0.0,0.0,0.0,0.0,0.0,0.0,0.0,0.0,0.0,0.0,0.0,0.0,0.0,0.0,0.0,0.0,0.0,0.0,0.0,0.0,0.0,0.0,0.0,0.0,0.0,0.0,0.0,0.0,0.0,0.0,0.0,0.0,0.0,0.0,0.0,0.0,0.0,0.0,0.0,0.0,0.0,0.0,0.0,0.0,0.0,0.0,0.0,0.0,0.0,0.0,0.0,0.0,0.0,0.0,0.0,0.0,0.0,0.0,0.0,0.0,0.0,0.0,0.0,0.0,0.0,0.0,0.0,0.0,0.0,0.0,0.0,0.0,0.0,0.0,0.0,0.0,0.0,0.0,0.0,0.0,0.0,2.9339,2.9935,3.0276,3.036,3.0107,3.0128,0.0,0.0,0.0,0.0,0.0,0.0,0.0,0.0,0.0,0.0,0.0,0.0,0.0,0.0,0.0,0.0,0.0,0.0,0.0,0.0,0.0,0.0,0.0,0.0,0.0,0.0,0.0,0.0,0.0,0.0,0.0,0.0,0.0,0.0,0.0,0.0,0.0,0.0,0.0,0.0,0.0,0.0,0.0,0.0,0.0,0.0,0.0,0.0,0.0,0.0,0.0,0.0,0.0,0.0,0.0,0.0,0.0,0.0,0.0,0.0,0.0,0.0,0.0,0.0,0.0,0.0,0.0,0.0,0.0,0.0,0.0,0.0,0.0,0.0,0.0,0.0,0.0,0.0,0.0,0.0,0.0,0.0,0.0,0.0,0.0,0.0,0.0,0.0,0.0,0.0,0.0,0.0,0.0,0.0,0.0,0.0,0.0,0.0,0.0,0.0,0.0,0.0,0.0,0.0,0.0,0.0,0.0,0.0,0.0,2.9924,0.0,3.1103,3.1103,3.0791,3.0751,0.0,0.0,0.0,0.0,0.0,0.0,0.0,0.0,0.0,0.0,0.0,0.0,0.0,0.0,0.0,0.0,0.0,0.0,0.0,0.0,0.0,0.0,0.0,0.0,0.0,0.0,0.0,0.0,0.0,0.0,0.0,0.0,0.0,0.0,0.0,0.0,0.0,0.0,0.0,0.0,0.0,0.0,0.0,0.0,0.0,0.0,0.0,0.0,0.0,0.0,0.0,0.0,0.0,0.0,0.0,0.0,0.0,0.0,0.0,0.0,0.0,0.0,0.0,0.0,0.0,0.0,0.0,0.0,0.0,0.0,0.0,0.0,0.0,0.0,0.0,0.0,0.0,0.0,0.0,0.0,0.0,0.0,0.0,0.0,0.0,0.0,0.0,0.0,0.0,0.0,0.0,0.0,0.0,0.0,0.0,0.0,0.0,0.0,0.0,0.0,0.0,0.0,0.0,0.0,0.0,0.0,0.0,0.0,3.0,3.041,3.0851,3.1123,3.1123,3.1488,3.1638,0.0,0.0,0.0,0.0,0.0,0.0,0.0,0.0,0.0,0.0,0.0,0.0,0.0,0.0,0.0,0.0,0.0,0.0,0.0,0.0,0.0,0.0,0.0,0.0,0.0,0.0,0.0,0.0,0.0,0.0,0.0,0.0,0.0,0.0,0.0,0.0,0.0,0.0,0.0,0.0,0.0,0.0,0.0,0.0,0.0,0.0,0.0,0.0,0.0,0.0,0.0,0.0,0.0,0.0,0.0,0.0,0.0,0.0,0.0,0.0,0.0,0.0,0.0,0.0,0.0,0.0,0.0,0.0,0.0,0.0,0.0,0.0,0.0,0.0,0.0,0.0,0.0,0.0,0.0,0.0,0.0,0.0,0.0,0.0,0.0,0.0,0.0,0.0,0.0,0.0,0.0,0.0,0.0,0.0,0.0,0.0,0.0,0.0,0.0,0.0,0.0,0.0,0.0,0.0,0.0,0.0,0.0,0.0,0.0,3.069,3.0996,3.1378,3.1784,3.1691,3.1747,0.0,0.0,0.0,0.0,0.0,0.0,0.0,0.0,0.0,0.0,0.0,0.0,0.0,0.0,0.0,0.0,0.0,0.0,0.0,0.0,0.0,0.0,0.0,0.0,0.0,0.0,0.0,0.0,0.0,0.0,0.0,0.0,0.0,0.0,0.0,0.0,0.0,0.0,0.0,0.0,0.0,0.0,0.0,0.0,0.0,0.0,0.0,0.0,0.0,0.0,0.0,0.0,0.0,0.0,0.0,0.0,0.0,0.0,0.0,0.0,0.0,0.0,0.0,0.0,0.0,0.0,0.0,0.0,0.0,0.0,0.0,0.0,0.0,0.0,0.0,0.0,0.0,0.0,0.0,0.0,0.0,0.0,0.0,0.0,0.0,0.0,0.0,0.0,0.0,0.0,0.0,0.0,0.0,0.0,0.0,0.0,0.0,0.0,0.0,0.0,0.0,0.0,0.0,0.0,0.0,0.0,0.0,0.0,0.0,3.0784,3.1283,3.1696,3.2108,3.1875,3.1857,3.2002,0.0,0.0,0.0,0.0,0.0,0.0,0.0,0.0,0.0,0.0,0.0,0.0,0.0,0.0,0.0,0.0,0.0,0.0,0.0,0.0,0.0,0.0,0.0,0.0,0.0,0.0,0.0,0.0,0.0,0.0,0.0,0.0,0.0,0.0,0.0,0.0,0.0,0.0,0.0,0.0,0.0,0.0,0.0,0.0,0.0,0.0,0.0,0.0,0.0,0.0,0.0,0.0,0.0,0.0,0.0,0.0,0.0,0.0,0.0,0.0,0.0,0.0,0.0,0.0,0.0,0.0,0.0,0.0,0.0,0.0,0.0,0.0,0.0,0.0,0.0,0.0,0.0,0.0,0.0,0.0,0.0,0.0,0.0,0.0,0.0,0.0,0.0,0.0,0.0,0.0,0.0,0.0,0.0,0.0,0.0,0.0,0.0,0.0,0.0,0.0,0.0,0.0,0.0,0.0,0.0,0.0,0.0,0.0,3.0795,3.1685,3.2125,3.2055,3.209,3.202,0.0,0.0,0.0,0.0,0.0,0.0,0.0,0.0,0.0,0.0,0.0,0.0,0.0,0.0,0.0,0.0,0.0,0.0,0.0,0.0,0.0,0.0,0.0,0.0,0.0,0.0,0.0,0.0,0.0,0.0,0.0,0.0,0.0,0.0,0.0,0.0,0.0,0.0,0.0,0.0,0.0,0.0,0.0,0.0,0.0,0.0,0.0,0.0,0.0,0.0,0.0,0.0,0.0,0.0,0.0,0.0,0.0,0.0,0.0,0.0,0.0,0.0,0.0,0.0,0.0,0.0,0.0,0.0,0.0,0.0,0.0,0.0,0.0,0.0,0.0,0.0,0.0,0.0,0.0,0.0,0.0,0.0,0.0,0.0,0.0,0.0,0.0,0.0,0.0,0.0,0.0,0.0,0.0,0.0,0.0,0.0,0.0,0.0,0.0,0.0,0.0,0.0,0.0,0.0,0.0,0.0,0.0,0.0,0.0,3.1968,3.2417,3.2389,3.1781,3.1875,3.1912,0.0,0.0,0.0,0.0,0.0,0.0,0.0,0.0,0.0,0.0,0.0,0.0,0.0,0.0,0.0,0.0,0.0,0.0,0.0,0.0,0.0,0.0,0.0,0.0,0.0,0.0,0.0,0.0,0.0,0.0,0.0,0.0,0.0,0.0,0.0,0.0,0.0,0.0,0.0,0.0,0.0,0.0,0.0,0.0,0.0,0.0,0.0,0.0,0.0,0.0,0.0,0.0,0.0,0.0,0.0,0.0,0.0,0.0,0.0,0.0,0.0,0.0,0.0,0.0,0.0,0.0,0.0,0.0,0.0,0.0,0.0,0.0,0.0,0.0,0.0,0.0,0.0,0.0,0.0,0.0,0.0,0.0,0.0,0.0,0.0,0.0,0.0,0.0,0.0,0.0,0.0,0.0,0.0,0.0,0.0,0.0,0.0,0.0,0.0,0.0,0.0,0.0,0.0,0.0,0.0,0.0,0.0,0.0,3.3601,3.2648,3.2931,3.2735,3.2055,3.1919,3.1855,0.0,0.0,0.0,0.0,0.0,0.0,0.0,0.0,0.0,0.0,0.0,0.0,0.0,0.0,0.0,0.0,0.0,0.0,0.0,0.0,0.0,0.0,0.0,0.0,0.0,0.0,0.0,0.0,0.0,0.0,0.0,0.0,0.0,0.0,0.0,0.0,0.0,0.0,0.0,0.0,0.0,0.0,0.0,0.0,0.0,0.0,0.0,0.0,0.0,0.0,0.0,0.0,0.0,0.0,0.0,0.0,0.0,0.0,0.0,0.0,0.0,0.0,0.0,0.0,0.0,0.0,0.0,0.0,0.0,0.0,0.0,0.0,0.0,0.0,0.0,0.0,0.0,0.0,0.0,0.0,0.0,0.0,0.0,0.0,0.0,0.0,0.0,0.0,0.0,0.0,0.0,0.0,0.0,0.0,0.0,0.0,0.0,0.0,0.0,0.0,0.0,0.0,0.0,0.0,0.0,0.0,0.0,0.0,3.4129,3.3292,3.344,3.3311,3.271,3.2204,3.1869,0.0,0.0,0.0,0.0,0.0,0.0,0.0,0.0,0.0,0.0,0.0,0.0,0.0,0.0,0.0,0.0,0.0,0.0,0.0,0.0,0.0,0.0,0.0,0.0,0.0,0.0,0.0,0.0,0.0,0.0,0.0,0.0,0.0,0.0,0.0,0.0,0.0,0.0,0.0,0.0,0.0,0.0,0.0,0.0,0.0,0.0,0.0,0.0,0.0,0.0,0.0,0.0,0.0,0.0,0.0,0.0,0.0,0.0,0.0,0.0,0.0,0.0,0.0,0.0,0.0,0.0,0.0,0.0,0.0,0.0,0.0,0.0,0.0,0.0,0.0,0.0,0.0,0.0,0.0,0.0,0.0,0.0,0.0,0.0,0.0,0.0,0.0,0.0,0.0,0.0,0.0,0.0,0.0,0.0,0.0,0.0,0.0,0.0,0.0,0.0,0.0,0.0,0.0,0.0,0.0,0.0,0.0,0.0,3.52,3.4216,3.4453,3.4226,3.3516,3.2882,3.2345,0.0,0.0,0.0,0.0,0.0,0.0,0.0,0.0,0.0,0.0,0.0,0.0,0.0,0.0,0.0,0.0,0.0,0.0,0.0,0.0,0.0,0.0,0.0,0.0,0.0,0.0,0.0,0.0,0.0,0.0,0.0,0.0,0.0,0.0,0.0,0.0,0.0,0.0,0.0,0.0,0.0,0.0,0.0,0.0,0.0,0.0,0.0,0.0,2.9681,0.0,0.0,0.0,0.0,0.0,0.0,0.0,0.0,0.0,0.0,0.0,0.0,0.0,0.0,0.0,0.0,0.0,0.0,0.0,0.0,0.0,0.0,0.0,0.0,0.0,0.0,0.0,0.0,0.0,0.0,0.0,0.0,0.0,0.0,0.0,0.0,0.0,0.0,0.0,0.0,0.0,0.0,0.0,0.0,0.0,0.0,0.0,0.0,0.0,0.0,0.0,0.0,0.0,0.0,0.0,0.0,0.0,0.0,0.0,3.5542,3.4992,3.5135,3.487,3.4197,3.3912,3.3485,0.0,0.0,0.0,0.0,0.0,0.0,0.0,0.0,0.0,0.0,0.0,0.0,0.0,0.0,0.0,0.0,0.0,0.0,0.0,0.0,0.0,0.0,0.0,0.0,0.0,0.0,0.0,0.0,0.0,0.0,0.0,0.0,0.0,0.0,0.0,0.0,0.0,0.0,0.0,0.0,0.0,0.0,0.0,0.0,0.0,0.0,0.0,0.0,0.0,0.0,0.0,0.0,0.0,0.0,0.0,0.0,0.0,0.0,0.0,0.0,0.0,0.0,0.0,0.0,0.0,0.0,0.0,0.0,0.0,0.0,0.0,0.0,0.0,0.0,0.0,0.0,0.0,0.0,0.0,0.0,0.0,0.0,0.0,0.0,0.0,0.0,0.0,0.0,0.0,0.0,0.0,0.0,0.0,0.0,0.0,0.0,0.0,0.0,0.0,0.0,0.0,0.0,0.0,0.0,0.0,0.0,0.0,3.5588,3.5554,3.552,3.5554,3.5374,3.4851,3.4968,3.4787,3.424,0.0,0.0,0.0,0.0,0.0,0.0,0.0,0.0,0.0,0.0,0.0,0.0,0.0,0.0,0.0,0.0,0.0,0.0,0.0,0.0,0.0,0.0,0.0,0.0,0.0,0.0,0.0,0.0,0.0,0.0,0.0,0.0,0.0,0.0,0.0,0.0,0.0,0.0,2.8559,2.8654,0.0,0.0,0.0,0.0,0.0,0.0,0.0,0.0,2.9291,0.0,0.0,0.0,0.0,0.0,0.0,0.0,0.0,0.0,0.0,0.0,0.0,0.0,0.0,0.0,0.0,0.0,0.0,0.0,0.0,0.0,0.0,0.0,0.0,0.0,0.0,0.0,0.0,0.0,0.0,0.0,0.0,0.0,0.0,0.0,0.0,0.0,0.0,0.0,0.0,0.0,0.0,0.0,0.0,0.0,0.0,0.0,0.0,0.0,0.0,0.0,0.0,0.0,0.0,0.0,0.0,3.5577,3.56,3.5577,3.5577,3.56,3.5532,3.5475,3.5586,3.5684,3.5608,0.0,0.0,0.0,0.0,0.0,0.0,0.0,0.0,0.0,0.0,0.0,0.0,0.0,0.0,0.0,0.0,0.0,0.0,0.0,0.0,0.0,0.0,0.0,0.0,0.0,0.0,0.0,0.0,0.0,0.0,0.0,0.0,0.0,0.0,0.0,0.0,0.0,0.0,0.0,3.0012,3.0292,0.0,0.0,0.0,0.0,0.0,0.0,0.0,0.0,3.0478,0.0,0.0,0.0,0.0,0.0,0.0,0.0,0.0,0.0,0.0,0.0,0.0,0.0,0.0,0.0,0.0,0.0,0.0,0.0,0.0,0.0,0.0,0.0,0.0,0.0,0.0,0.0,0.0,0.0,0.0,0.0,0.0,0.0,0.0,0.0,0.0,0.0,0.0,0.0,0.0,0.0,0.0,0.0,0.0,0.0,0.0,0.0,0.0,0.0,0.0,0.0,0.0,0.0,0.0,0.0,3.5452,3.5418,3.5418,3.5452,3.552,3.5566,3.5566,3.5723,3.5844,0.0,0.0,0.0,0.0,0.0,0.0,0.0,0.0,0.0,0.0,0.0,0.0,0.0,0.0,0.0,0.0,0.0,0.0,0.0,0.0,0.0,0.0,0.0,0.0,0.0,0.0,0.0,0.0,0.0,0.0,0.0,0.0,0.0,0.0,0.0,0.0,0.0,0.0,0.0,0.0,3.0528,3.062,3.0356,0.0,0.0,0.0,0.0,0.0,0.0,3.0491,3.0904,0.0,0.0,0.0,0.0,0.0,0.0,0.0,0.0,0.0,0.0,0.0,0.0,0.0,0.0,0.0,0.0,0.0,0.0,0.0,0.0,0.0,0.0,0.0,0.0,0.0,0.0,0.0,0.0,0.0,0.0,0.0,0.0,0.0,0.0,0.0,0.0,0.0,0.0,0.0,0.0,0.0,0.0,0.0,0.0,0.0,0.0,0.0,0.0,0.0,0.0,0.0,0.0,0.0,0.0,0.0,3.5807,3.5662,3.5595,3.5572,3.553,3.5508,3.5452,3.5611,3.5756,0.0,0.0,0.0,0.0,0.0,0.0,0.0,0.0,0.0,0.0,0.0,0.0,0.0,0.0,0.0,0.0,0.0,0.0,0.0,0.0,0.0,0.0,0.0,0.0,0.0,0.0,0.0,0.0,0.0,0.0,0.0,0.0,0.0,0.0,0.0,0.0,0.0,0.0,0.0,0.0,0.0,3.0978,3.0959,3.082,0.0,0.0,0.0,0.0,3.0641,3.0906,0.0,0.0,0.0,0.0,0.0,0.0,0.0,0.0,0.0,0.0,0.0,0.0,0.0,0.0,0.0,0.0,0.0,0.0,0.0,0.0,0.0,0.0,0.0,0.0,0.0,0.0,0.0,0.0,0.0,0.0,0.0,0.0,0.0,0.0,0.0,0.0,0.0,0.0,0.0,0.0,0.0,0.0,0.0,0.0,0.0,0.0,0.0,0.0,0.0,0.0,0.0,0.0,0.0,0.0,0.0,0.0,3.7403,3.6882,3.6567,3.6417,3.5845,3.5429,3.5314,3.5337,3.5475,0.0,0.0,0.0,0.0,0.0,0.0,0.0,0.0,0.0,0.0,0.0,0.0,0.0,0.0,0.0,0.0,0.0,0.0,0.0,0.0,0.0,0.0,0.0,0.0,0.0,0.0,0.0,0.0,0.0,0.0,0.0,0.0,0.0,0.0,0.0,0.0,0.0,0.0,0.0,0.0,0.0,3.2471,3.1642,3.1673,3.1452,0.0,0.0,3.0496,3.0457,3.0657,0.0,0.0,0.0,0.0,0.0,0.0,0.0,0.0,0.0,0.0,0.0,0.0,0.0,0.0,0.0,0.0,0.0,0.0,0.0,0.0,0.0,0.0,0.0,0.0,0.0,0.0,0.0,0.0,0.0,0.0,0.0,0.0,0.0,0.0,0.0,0.0,0.0,0.0,0.0,0.0,0.0,0.0,0.0,0.0,0.0,0.0,0.0,0.0,0.0,0.0,0.0,0.0,0.0,0.0,0.0,3.7961,3.7599,3.7239,3.7047,3.6999,3.6673,3.6291,3.5809,3.588,3.5796,0.0,0.0,0.0,0.0,0.0,0.0,0.0,0.0,0.0,0.0,0.0,0.0,0.0,0.0,0.0,0.0,0.0,0.0,0.0,0.0,0.0,0.0,0.0,0.0,0.0,0.0,0.0,0.0,0.0,0.0,0.0,0.0,0.0,0.0,0.0,0.0,0.0,0.0,0.0,0.0,0.0,0.0,3.2422,3.2367,0.0,0.0,0.0,3.1785,3.1643,0.0,0.0,0.0,0.0,0.0,0.0,0.0,0.0,0.0,0.0,0.0,0.0,0.0,0.0,0.0,0.0,0.0,0.0,0.0,0.0,0.0,0.0,0.0,0.0,0.0,0.0,0.0,0.0,0.0,0.0,0.0,0.0,0.0,0.0,0.0,0.0,0.0,0.0,0.0,0.0,0.0,0.0,0.0,0.0,0.0,0.0,0.0,0.0,0.0,0.0,0.0,0.0,0.0,0.0,0.0,0.0,0.0,3.8145,3.7836,3.7719,3.7611,3.7453,3.7036,3.6455,3.6495,0.0,0.0,0.0,0.0,0.0,0.0,0.0,0.0,0.0,0.0,0.0,0.0,0.0,0.0,0.0,0.0,0.0,0.0,0.0,0.0,0.0,0.0,0.0,0.0,0.0,0.0,0.0,3.18,0.0,0.0,0.0,0.0,0.0,0.0,0.0,0.0,0.0,0.0,0.0,0.0,0.0,0.0,3.2574,3.2854,3.2737,3.2639,0.0,0.0,3.2756,3.2573,3.2655,3.2773,0.0,0.0,0.0,0.0,0.0,0.0,0.0,0.0,0.0,0.0,0.0,0.0,0.0,0.0,0.0,0.0,0.0,0.0,0.0,0.0,0.0,0.0,0.0,0.0,0.0,0.0,0.0,0.0,0.0,0.0,0.0,0.0,0.0,0.0,0.0,0.0,0.0,0.0,0.0,0.0,0.0,0.0,0.0,0.0,0.0,0.0,0.0,0.0,0.0,0.0,0.0,0.0,0.0,0.0,3.9757,3.9716,3.9176,3.8789,3.8505,3.7836,3.7344,3.7061,3.7061,3.6746,0.0,0.0,0.0,0.0,0.0,0.0,0.0,0.0,0.0,0.0,0.0,0.0,0.0,0.0,0.0,0.0,0.0,0.0,0.0,0.0,0.0,0.0,0.0,0.0,0.0,0.0,0.0,0.0,0.0,0.0,0.0,0.0,0.0,0.0,0.0,0.0,0.0,0.0,0.0,0.0,0.0,3.2707,3.2558,3.2674,3.2691,0.0,3.249,3.2507,3.244,3.244,3.2456,3.2589,0.0,0.0,0.0,0.0,0.0,0.0,0.0,0.0,0.0,0.0,0.0,0.0,0.0,0.0,0.0,0.0,0.0,0.0,0.0,0.0,0.0,0.0,0.0,0.0,0.0,0.0,0.0,0.0,0.0,0.0,0.0,0.0,0.0,0.0,0.0,0.0,0.0,0.0,0.0,0.0,0.0,0.0,0.0,0.0,0.0,0.0,0.0,0.0,0.0,0.0,0.0,0.0,0.0,4.0248,4.0687,3.9952,3.9707,4.0008,3.9183,3.8461,3.7926,3.7823,3.7459,0.0,0.0,0.0,0.0,0.0,0.0,0.0,0.0,0.0,0.0,0.0,0.0,0.0,0.0,0.0,0.0,0.0,0.0,0.0,0.0,0.0,0.0,0.0,0.0,0.0,0.0,0.0,0.0,3.18,3.18,3.18,0.0,0.0,0.0,0.0,0.0,0.0,0.0,0.0,0.0,0.0,3.2456,3.2507,3.2998,0.0,0.0,3.3565,3.3882,3.3828,3.381,3.367,3.3213,3.3263,0.0,0.0,0.0,0.0,0.0,0.0,0.0,0.0,0.0,0.0,0.0,0.0,0.0,0.0,0.0,0.0,0.0,0.0,0.0,0.0,0.0,0.0,0.0,0.0,0.0,0.0,0.0,0.0,0.0,0.0,0.0,0.0,0.0,0.0,0.0,0.0,0.0,0.0,0.0,0.0,0.0,0.0,0.0,0.0,0.0,0.0,0.0,0.0,0.0,0.0,0.0,0.0,4.0094,4.0572,3.999,3.9964,4.0553,3.9734,3.9103,3.8735,3.8526,3.8058,0.0,0.0,0.0,0.0,0.0,0.0,0.0,0.0,0.0,0.0,0.0,0.0,0.0,0.0,0.0,0.0,0.0,0.0,0.0,0.0,0.0,0.0,0.0,0.0,0.0,0.0,0.0,0.0,3.1892,3.1892,3.1892,0.0,0.0,0.0,0.0,0.0,0.0,0.0,0.0,0.0,0.0,3.2739,3.3125,3.3635,3.3987,3.388,3.4356,3.4761,3.4706,3.4688,3.4495,3.3933,0.0,0.0,0.0,0.0,0.0,0.0,0.0,0.0,0.0,0.0,0.0,0.0,0.0,0.0,0.0,0.0,0.0,0.0,0.0,0.0,0.0,0.0,0.0,0.0,0.0,0.0,0.0,4.1238,0.0,0.0,4.2219,0.0,0.0,0.0,0.0,0.0,0.0,0.0,0.0,0.0,0.0,0.0,0.0,0.0,0.0,0.0,0.0,0.0,0.0,0.0,0.0,0.0,0.0,3.9249,3.9249,3.9282,3.9335,3.9568,3.9067,3.904,3.9441,3.9034,3.8596,3.8202,0.0,0.0,0.0,0.0,0.0,0.0,0.0,0.0,0.0,0.0,0.0,0.0,0.0,0.0,0.0,0.0,0.0,0.0,0.0,0.0,0.0,0.0,0.0,0.0,0.0,0.0,3.2125,3.209,3.2125,0.0,0.0,0.0,0.0,0.0,0.0,0.0,0.0,0.0,3.3298,3.344,3.3758,3.4512,3.4653,3.4706,3.4688,3.4741,3.4741,3.4758,3.4723,3.4688,0.0,0.0,0.0,0.0,0.0,0.0,0.0,0.0,0.0,0.0,0.0,0.0,0.0,0.0,0.0,0.0,0.0,0.0,0.0,0.0,0.0,0.0,0.0,0.0,0.0,0.0,0.0,4.1948,4.1948,0.0,0.0,0.0,0.0,0.0,0.0,0.0,0.0,0.0,0.0,0.0,4.2286,4.2286,0.0,0.0,0.0,0.0,0.0,0.0,0.0,0.0,0.0,0.0,0.0,0.0,3.9379,3.9951,3.9875,4.0133,4.0735,4.0084,3.9847,4.014,3.9352,3.8935,3.8924,0.0,0.0,0.0,0.0,0.0,0.0,0.0,0.0,0.0,0.0,0.0,0.0,0.0,0.0,0.0,0.0,0.0,0.0,0.0,0.0,0.0,0.0,0.0,0.0,0.0,3.2782,0.0,0.0,0.0,0.0,0.0,0.0,0.0,0.0,0.0,0.0,0.0,3.3309,3.3628,3.3759,3.394,3.4218,3.492,3.5601,0.0,0.0,0.0,0.0,0.0,0.0,0.0,0.0,0.0,0.0,0.0,0.0,0.0,0.0,3.4262,3.4739,3.4769,3.4723,3.4785,0.0,0.0,0.0,0.0,0.0,0.0,0.0,0.0,0.0,0.0,0.0,0.0,0.0,0.0,4.2692,0.0,4.2963,0.0,0.0,0.0,0.0,0.0,0.0,0.0,0.0,4.3125,4.3125,4.3125,4.3064,4.301,0.0,4.2818,4.2763,0.0,0.0,0.0,0.0,0.0,0.0,0.0,0.0,3.9832,4.0405,4.0291,4.0578,4.1144,4.0521,4.0405,4.0845,4.0099,3.962,3.968,3.9089,3.8643,0.0,0.0,0.0,0.0,0.0,0.0,0.0,0.0,0.0,0.0,0.0,0.0,0.0,0.0,0.0,0.0,0.0,0.0,0.0,0.0,0.0,0.0,0.0,3.3584,0.0,0.0,0.0,0.0,0.0,0.0,0.0,0.0,0.0,3.3406,3.3439,3.3809,3.4569,3.4555,3.4782,3.5559,0.0,0.0,0.0,0.0,0.0,0.0,0.0,3.7461,3.7091,3.702,3.6845,3.6373,3.6303,3.6283,3.6229,0.0,0.0,3.5293,3.5096,3.5044,3.5079,3.513,3.5199,3.5214,3.5565,3.586,0.0,0.0,0.0,0.0,0.0,0.0,0.0,0.0,4.3166,4.3409,0.0,4.4215,0.0,0.0,0.0,0.0,0.0,4.4547,0.0,0.0,4.4547,4.4581,4.4581,4.4553,4.4412,4.4126,4.435,4.4179,4.3525,4.2146,0.0,0.0,0.0,0.0,0.0,0.0,4.048,4.051,4.0542,4.0661,4.0925,4.0545,4.075,4.151,4.1103,4.0681,4.0343,3.9847,3.9201,3.8502,3.8339,0.0,0.0,0.0,0.0,0.0,0.0,0.0,0.0,0.0,0.0,0.0,0.0,0.0,0.0,0.0,0.0,0.0,0.0,0.0,0.0,3.4555,0.0,0.0,0.0,0.0,0.0,0.0,0.0,0.0,0.0,0.0,3.3875,3.3503,3.4028,3.6053,0.0,0.0,0.0,0.0,3.7953,3.8103,3.8103,3.8231,3.8649,3.8681,3.8812,3.921,0.0,0.0,3.9287,3.9287,3.9161,3.9126,3.8986,3.8154,3.5196,3.4735,3.4584,3.454,3.4917,3.488,3.4939,3.6043,3.6755,4.3972,0.0,0.0,0.0,0.0,4.3972,4.3938,4.3972,4.4147,4.4248,4.4248,4.4513,0.0,0.0,0.0,0.0,0.0,0.0,4.4581,4.4581,4.4581,4.4581,4.4587,4.4355,4.4184,4.4097,4.3713,4.3446,4.3232,4.2598,4.2141,4.192,0.0,0.0,0.0,0.0,4.0393,4.0513,4.094,4.1229,4.1409,4.1288,4.1238,4.1295,4.1377,4.1416,4.141,4.0769,4.0274,3.9961,3.9441,0.0,0.0,0.0,0.0,0.0,0.0,0.0,0.0,0.0,0.0,0.0,0.0,0.0,0.0,0.0,0.0,0.0,0.0,0.0,3.5413,3.5263,3.5103,0.0,0.0,0.0,0.0,0.0,0.0,0.0,0.0,0.0,3.5281,3.4947,3.5201,0.0,0.0,3.6531,3.7513,3.7619,3.7836,3.8512,3.8149,0.0,3.917,3.9062,3.8998,3.9438,3.9499,3.9499,3.9534,3.9499,3.9499,3.9458,3.9458,3.908,3.8193,3.8182,3.8368,3.843,3.8899,3.8928,3.7979,3.8405,3.8922,4.4581,4.4581,4.4581,4.4581,4.4581,4.4581,4.4581,4.4581,4.4581,4.4581,4.4581,4.4581,4.4581,4.4581,4.4581,0.0,0.0,0.0,4.4497,4.4417,4.4417,4.4384,4.4355,4.4068,4.3802,4.3684,4.3446,4.3174,4.2898,4.2836,4.2641,4.2311,0.0,0.0,4.1355,4.1263,4.1233,4.1324,4.1683,4.1909,4.2002,4.2124,4.205,4.1776,4.1886,4.1953,4.1924,4.1394,4.1109,4.0994,4.0648,4.0027,0.0,0.0,0.0,0.0,0.0,0.0,0.0,0.0,0.0,0.0,0.0,3.692,3.7249,0.0,0.0,0.0,3.7378,3.7255,3.6989,3.6566,0.0,0.0,0.0,0.0,0.0,0.0,0.0,3.6002,3.5769,3.576,3.6043,3.5783,3.59,3.6855,3.6702,3.6826,3.7675,0.0,3.8044,3.893,3.8638,3.8787,3.9944,3.9991,4.0106,4.0822,4.0926,4.0912,4.087,4.0707,4.0536,4.0495,4.0515,4.0621,4.0778,4.1086,4.0876,3.9918,4.007,4.0013,3.9077,3.9351,3.9578,4.4699,4.4699,4.4699,4.466,4.4581,4.4581,4.4581,4.4581,4.4581,4.4587,4.4559,4.4559,4.4559,4.4559,4.453,0.0,4.4155,4.4412,4.4384,4.4097,4.4097,4.4102,4.414,4.3813,4.3515,4.3277,4.355,4.3336,4.2715,4.2996,4.2963,4.2586,4.2619,4.2619,4.2619,4.2586,4.2619,4.2586,4.2586,4.2619,4.2586,4.2898,4.2929,4.2649,4.258,4.2426,4.216,4.1815,4.1671,4.1699,4.1805,4.1498,4.0754,0.0,0.0,0.0,0.0,0.0,0.0,0.0,0.0,0.0,0.0,0.0,0.0,0.0,0.0,0.0,3.8322,0.0,3.8759,3.7895,0.0,0.0,0.0,3.63,3.5942,3.5915,3.5815,3.5531,0.0,0.0,3.6447,3.6307,3.6423,3.7191,3.6965,3.7217,3.8562,3.8444,3.8505,3.926,3.9389,3.9758,4.0668,4.1054,4.154,4.2533,4.2927,4.2728,4.2786,4.2485,4.2114,4.2035,4.21,4.2355,4.3063,4.3076,4.2423,4.0005,3.9591,3.9543,3.9425,3.9538,3.9686,4.5435,4.5435,4.5435,4.5102,4.4615,4.4581,4.4581,4.4581,4.4581,4.4474,4.4212,4.4246,4.4246,4.4212,4.3948,4.4064,4.4502,4.4332,4.4184,4.4097,4.4097,4.4252,4.4547,4.421,4.4289,4.4751,4.4592,4.4139,4.346,4.3523,4.3232,4.2619,4.2619,4.2619,4.2619,4.2619,4.2619,4.2619,4.2619,4.2619,4.2619,4.268,4.2805,4.299,4.2979,4.3032,4.3211,4.2518,4.227,4.2499,4.1881,4.1538,4.1592,4.1559,0.0,0.0,0.0,0.0,0.0,0.0,0.0,0.0,0.0,3.7735,3.8242,0.0,3.8277,0.0,3.7537,3.7211,3.7838,3.6802,0.0,0.0,3.6521,3.6436,3.5972,3.6232,3.6587,3.694,3.694,3.7219,3.7931,3.7929,3.7961,3.8153,3.7903,3.8086,3.9235,3.9182,3.9029,3.9341,3.9404,3.9681,4.0528,4.1187,4.1883,4.2586,4.2702,4.2881,4.3524,4.3627,4.3578,4.3578,4.3668,4.3784,4.3835,4.3883,4.3661,4.2916,4.2833,4.2447,4.1168,4.1388,4.1735,4.5686,4.5686,4.5686,4.5471,4.5098,4.5098,4.5098,4.5098,4.5098,4.4979,4.483,4.483,4.483,4.483,4.4616,4.4646,4.489,4.483,4.477,4.4649,4.4649,4.4759,4.4937,4.4655,4.4691,4.5082,4.4886,4.4593,4.4204,4.4172,4.3978,4.3622,4.3589,4.3589,4.3525,4.2942,4.2619,4.2619,4.2619,4.2619,4.2619,4.2619,4.268,4.2867,4.2867,4.2959,4.3111,4.284,4.2822,4.3115,4.2774,4.255,4.25,4.2494,4.236,0.0,0.0,0.0,0.0,0.0,0.0,0.0,0.0,0.0,0.0,0.0,4.0212,4.0524,3.936,3.8864,3.9412,3.8126,3.7367,3.7511,3.7508,3.7406,3.7095,3.7279,3.756,3.7926,3.7954,3.8108,3.8446,3.8508,3.8631,3.8875,3.8795,3.8837,3.9188,3.925,3.9376,3.9755,3.9881,4.0293,4.1259,4.1976,4.2517,4.2934,4.3234,4.3476,4.3552,4.368,4.3804,4.378,4.3945,4.4061,4.3991,4.4107,4.413,4.4038,4.4038,4.3557,4.2344,4.2134,4.2096,4.5857,4.5857,4.5857,4.5857,4.5857,4.5857,4.5821,4.5686,4.5686,4.5654,4.5623,4.5625,4.5625,4.5656,4.5625,4.5498,4.5339,4.5561,4.553,4.5275,4.5275,4.5308,4.5374,4.5081,4.4949,4.508,4.5079,4.5014,4.4917,4.4917,4.4885,4.482,4.4787,4.4787,4.4755,4.3524,4.2877,4.2877,4.2877,4.2877,4.2877,4.2877,4.2877,4.2877,4.278,4.2748,4.2748,4.2899,4.3204,4.3535,4.3802,4.3767,4.3356,4.3317,4.2992,0.0,4.2238,0.0,0.0,0.0,0.0,0.0,0.0,0.0,0.0,4.1993,4.2706,4.286,4.1841,4.1257,4.1393,4.0146,3.9283,3.9282,3.8803,3.8508,3.8508,3.8508,3.8539,3.8631,3.8631,3.8662,3.8816,3.8754,3.8998,3.9521,3.9616,3.9498,3.9168,3.9336,3.9686,4.0252,4.0509,4.099,4.1949,4.2611,4.2914,4.3274,4.3592,4.3928,4.3464,4.3494,4.3608,4.3746,4.4098,4.4246,4.4189,4.4507,4.4588,4.4495,4.439,4.3979,4.3137,4.2517,4.192,4.6675,4.6675,4.6675,4.6675,4.6675,4.6675,4.629,4.5686,4.5686,4.5593,4.5339,4.5049,4.5147,4.5339,4.5114,4.5211,4.5625,4.5435,4.5339,4.5275,4.5275,4.5473,4.5697,4.563,4.5921,4.6471,4.6538,4.618,4.5597,4.5597,4.5338,4.482,4.4787,4.4787,4.4787,0.0,0.0,0.0,4.4366,4.4399,4.4366,4.4399,4.4366,4.4366,4.3816,0.0,4.346,4.2973,4.2836,4.3174,4.3265,0.0,0.0,0.0,0.0,0.0,0.0,0.0,0.0,0.0,0.0,0.0,4.2591,4.2652,4.1944,4.2165,4.2179,4.1677,4.1001,4.0356,3.9872,3.9124,3.8671,3.8671,3.8573,3.8508,3.8508,3.8539,3.8723,3.9277,3.9305,3.949,3.9982,4.0136,4.0136,4.0228,4.029,4.0293,4.0173,4.018,4.0307,4.0495,4.0769,4.1064,4.1323,4.1621,4.2013,4.2363,4.2613,4.3026,4.382,4.4091,4.464,4.5329,4.5872,4.5953,4.616,4.6367,4.612,4.5839,4.5315,4.4647,4.3851,4.357,4.3465,4.7929,4.7929,4.7929,4.7767,0.0,4.7443,4.7001,4.629,4.629,4.6192,4.6092,4.5925,4.5925,4.6092,4.5925,4.6025,4.629,4.6125,4.6092,4.6092,4.6092,4.6154,4.6342,4.6342,4.6536,4.6894,4.6927,4.6732,4.6374,4.6342,4.6147,4.5824,4.5824,4.5824,4.5824,4.5824,4.55,4.4787,4.4787,4.4787,4.4787,4.4787,4.4787,4.4787,4.4431,0.0,0.0,0.0,0.0,0.0,0.0,0.0,0.0,0.0,0.0,4.4587,4.4581,4.4445,4.4045,4.3978,4.3781,4.3388,4.3747,4.3815,4.3388,4.3015,4.2665,4.2435,4.1513,4.0801,4.045,3.9893,3.9493,3.949,3.9493,3.9459,3.9459,3.9459,3.9582,3.989,3.9982,4.0136,4.0443,4.0505,4.0505,4.0505,4.0505,4.0505,4.0505,4.0608,4.0677,4.078,4.0848,4.1086,4.1357,4.1392,4.1491,4.1852,4.2173,4.252,4.2986,4.3287,4.3868,4.485,4.5173,4.5391,4.5895,4.6081,4.6074,4.5882,4.5591,4.5341,4.4876,4.4318,4.3886,4.9066,4.9066,4.9102,4.8813,4.8294,4.8258,4.7937,4.7353,0.0,0.0,0.0,4.6927,4.6927,4.6892,4.7056,4.7087,4.7087,4.7216,4.7281,4.7249,4.7281,4.7281,4.7249,4.7281,4.7249,4.7249,4.7249,4.7281,4.7249,4.7249,4.7249,4.7249,4.7281,4.7249,4.7249,4.7249,4.6698,4.5597,4.5305,4.5144,4.5144,4.5144,4.5144,4.5176,4.5046,4.4949,4.4982,4.4852,4.4919,4.5211,4.5211,4.5172,4.5163,4.5127,4.5072,4.4941,4.4902,4.493,4.4987,4.5021,4.4987,4.4987,4.4845,4.4625,4.4446,4.3739,4.329,4.3166,4.2141,4.1459,4.1327,4.0851,4.0505,4.0505,4.0505,4.0474,4.0474,4.0505,4.0443,4.0505,4.0474,4.0505,4.0505,4.0505,4.0505,4.0505,4.0505,4.0505,4.0539,4.0643,4.078,4.0916,4.0916,4.1021,4.1458,4.1524,4.1426,4.1458,4.1884,4.2141,4.211,4.23,4.2927,4.4219,4.4231,4.4643,4.5118,4.5486,4.5474,4.5423,4.5624,4.5829,4.5749,4.5051,4.4389,4.9281,4.9284,4.9458,4.9464,4.9365,4.9398,4.9333,4.9101,4.755,4.6927,4.6927,4.6927,4.6927,4.6959,4.7572,4.7864,4.7896,4.8447,4.8706,4.8738,4.8738,4.867,4.8706,4.8702,4.867,4.8702,4.8706,4.8738,4.8706,4.867,4.8706,4.8706,4.8738,4.8706,4.8702,4.867,4.8641,4.8379,4.7216,4.6601,4.6601,4.6601,4.6601,4.6568,4.5986,4.5662,4.5662,4.5111,4.482,4.4853,4.4853,4.4984,4.524,4.5303,4.5489,4.6006,4.6062,4.6215,4.6418,4.6481,4.6481,4.6452,4.5724,4.4856,4.378,4.3558,4.3015,4.1949,4.1654,4.1227,4.0749,4.0605,4.0597,4.0536,4.0505,4.0505,4.0566,4.0566,4.0597,4.0597,4.0505,4.0536,4.0628,4.0597,4.0628,4.0536,4.072,4.0566,4.0628,4.0539,4.0643,4.0783,4.0848,4.0916,4.1153,4.1187,4.1153,4.1153,4.1288,4.1655,4.2301,4.2553,4.3244,4.5047,4.5072,4.537,4.5806,4.5952,4.585,4.5558,4.5719,4.5891,4.5926,4.5815,4.5839,5.0671,5.0671,5.0743,5.0549,5.0156,4.9763,4.9599,4.9534,4.8705,4.8339,4.8167,4.8093,4.8058,4.8058,4.8414,4.8541,4.8541,4.8832,4.8994,4.8994,4.8994,4.8994,4.8994,4.8994,4.8994,4.8994,4.8994,4.8994,4.8994,4.8994,4.8994,4.8994,4.8994,4.8994,4.8994,4.8994,4.8994,4.8961,4.8382,4.8058,4.8026,4.767,4.7475,4.7475,4.6763,4.6407,4.6374,4.6083,4.5921,4.5921,4.5921,4.5927,4.5832,4.5832,4.599,4.6246,4.6274,4.6424,4.6786,4.6786,4.6786,4.6756,4.6057,4.52,4.4228,4.3686,4.3197,4.2695,4.2319,4.1969,4.1648,4.1648,4.1648,4.1612,4.1612,4.1612,4.1612,4.1643,4.1648,4.1648,4.1648,4.1678,4.1648,4.1648,4.1648,4.1643,4.1648,4.1648,4.1617,4.1617,4.134,4.0797,4.0612,4.0646,4.0746,4.078,4.078,4.078,4.1088,4.1358,4.1754,4.1917,4.2682,4.3779,4.4089,4.4556,4.5568,4.5869,4.592,4.6243,4.6351,4.6515,4.6596,4.6898,4.6958,5.1868,5.1868,5.1904,5.1612,5.1021,5.0495,5.0232,5.0232,4.9951,4.9772,4.9599,4.9231,4.9066,4.9066,4.9192,4.922,4.9252,4.9199,4.919,4.919,4.919,4.919,4.9227,4.9406,4.9515,4.9515,4.9515,4.9515,4.9515,4.9515,4.9515,4.9515,4.9515,4.9515,4.9483,4.9515,4.9515,4.9515,4.9515,4.9317,4.8994,4.8512,4.822,4.8188,4.767,4.7378,4.7346,4.7378,4.7378,4.7346,4.7378,4.7223,4.6941,4.6909,4.6881,4.6799,4.6855,4.6943,4.7019,4.7049,4.6959,4.6773,4.6117,4.5473,4.4943,4.4085,4.3501,4.3353,4.2833,4.2571,4.254,4.2571,4.2602,4.2602,4.2602,4.254,4.2602,4.2602,4.2602,4.2602,4.2602,4.2571,4.2602,4.2602,4.254,4.2509,4.2602,4.2602,4.2602,4.2602,4.2109,4.1401,4.0966,4.1063,4.0966,4.1063,4.1093,4.1001,4.1261,4.1664,4.1799,4.2036,4.2559,4.3666,4.3822,4.442,4.5664,4.5974,4.6206,4.6603,4.6902,4.717,4.7361,4.7664,4.784,5.2046,5.2086,5.2194,5.2305,5.217,5.2103,5.2037,5.193,5.1094,5.0682,5.0489,4.9689,4.9245,4.9346,4.9746,4.9928,4.9955,4.986,4.9804,4.9772,4.9836,4.9796,4.9811,5.053,5.0973,5.0903,5.0833,5.0693,5.0693,5.0801,5.0903,5.0973,5.0973,5.087,5.0903,5.0903,5.0973,5.0973,5.0973,5.0357,4.9091,4.8929,4.8897,4.8933,4.8832,4.8835,4.8702,4.8767,4.8835,4.8767,4.8771,4.8771,4.8709,4.8742,4.8595,4.8292,4.853,4.8464,4.7866,4.78,4.7506,4.6872,4.6185,4.5758,4.5615,4.4917,4.3938,4.3142,4.273,4.2725,4.2602,4.2663,4.2756,4.2786,4.2756,4.2602,4.2694,4.2602,4.2602,4.2602,4.2792,4.2633,4.2792,4.2756,4.2725,4.2817,4.2848,4.2848,4.2817,4.2817,4.2786,4.2479,4.2417,4.2386,4.2325,4.2386,4.2232,4.2232,4.1934,4.2306,4.3151,4.3555,4.4005,4.4832,4.5902,4.5965,4.6435,4.6684,4.6718,4.7052,4.7287,4.7432,4.7837,4.8167,4.8162,5.0761,5.0761,5.0805,5.1177,5.1655,5.2194,5.2089,5.1582,5.114,5.0723,5.0165,4.963,4.9369,4.9247,4.9455,4.9769,5.0109,4.9702,4.963,4.9829,4.951,4.9197,4.9125,4.9439,4.9599,4.9599,4.9599,4.9599,4.9599,4.9599,4.9599,4.9599,4.9599,4.9638,4.9599,4.9599,4.9599,4.9599,4.9599,4.9315,4.8859,4.932,4.9677,4.9613,4.9256,4.8994,4.8994,4.8994,4.8994,4.8994,4.8994,4.8994,4.8994,4.8524,4.8221,4.8332,4.8411,4.8667,4.9092,4.8685,4.8304,4.7987,4.7303,4.6892,4.6855,4.6205,4.5526,4.5003,4.4264,4.3771,4.3771,4.3771,4.3771,4.3771,4.3771,4.3809,4.3957,4.3957,4.3994,4.4136,4.4136,4.4068,4.3957,4.3846,4.3809,4.3771,4.3741,4.3747,4.3741,4.3771,4.3771,4.3771,4.3771,4.3402,4.2879,4.2602,4.2633,4.2643,4.2714,4.3283,4.3305,4.3693,4.4103,4.5464,4.5814,4.6419,4.7275,4.7466,4.753,4.7797,4.8132,4.8401,4.8839,4.9039,4.9264,4.9805,4.9805,4.9805,5.0158,5.08,5.1434,5.1327,5.0761,5.0531,5.0073,4.9447,4.9075,4.879,4.8738,4.9025,4.947,4.9789,4.9188,4.8994,4.9269,4.8862,4.8501,4.8263,4.8512,4.8553,4.8512,4.8553,4.8604,4.8789,4.8963,4.8993,4.9024,4.8993,4.8993,4.9024,4.8993,4.9024,4.9066,4.9024,4.8993,4.9171,4.9781,5.0026,4.9649,4.917,4.8882,4.8882,4.8882,4.8845,4.8845,4.8882,4.8845,4.8845,4.8243,4.7963,4.8086,4.7902,4.8179,4.9151,4.8647,4.8312,4.8164,4.7707,4.7401,4.7324,4.6888,4.6643,4.6449,4.568,4.5126,4.5126,4.5126,4.5164,4.5126,4.5126,4.5241,4.5394,4.547,4.5446,4.5478,4.5385,4.5354,4.5017,4.4774,4.4699,4.4699,4.473,4.4723,4.4685,4.4655,4.4655,4.461,4.4579,4.424,4.334,4.3248,4.3156,4.3137,4.35,4.3528,4.3515,4.4186,4.4669,4.6223,4.5832,4.6092,4.7419,4.79,4.821,4.8748,4.8981,4.904,4.933,4.9644,4.9902,4.9805,4.9765,4.9765,4.9765,4.9884,4.9962,4.9923,4.9805,4.9116,4.8708,4.8543,4.7807,4.7409,4.7538,4.8615,4.9197,4.9147,4.8366,4.803,4.8115,4.7988,4.7819,4.7691,4.849,4.8708,4.8304,4.8282,4.8703,4.9358,4.991,5.0334,5.0217,5.0039,5.0187,5.0069,4.9996,5.0217,4.9965,4.9965,5.0187,5.0187,5.0242,4.9693,4.8718,4.8615,4.8666,4.8594,4.8553,4.8553,4.8512,4.8532,4.8522,4.8553,4.844,4.8254,4.7986,4.7372,4.7068,4.7324,4.7317,4.7154,4.6872,4.6956,4.6713,4.6947,4.6899,4.6788,4.6634,4.6634,4.6511,4.6511,4.6326,4.6326,4.6357,4.6419,4.6467,4.6694,4.6609,4.6563,4.6289,4.6209,4.6022,4.5391,4.5198,4.5285,4.5316,4.5223,4.5186,4.5036,4.4936,4.4861,4.4716,4.4648,4.4579,4.4486,4.4172,4.4264,4.4247,4.3994,4.4164,4.5387,4.6343,4.6681,4.7144,4.7566,4.7826,4.8028,4.8286,4.8726,4.9018,4.9018,4.9138,4.9354,4.9475,4.9708,4.8198,4.824,4.879,4.9035,4.9075,4.9567,4.9527,4.9035,4.878,4.8282,4.7794,4.7409,4.7309,4.7279,4.7794,4.8229,4.8521,4.788,4.7636,4.7819,4.7465,4.7163,4.7019,4.7163,4.7133,4.7076,4.7288,4.7733,4.8356,4.8623,4.8711,4.8711,4.8711,4.8711,4.8711,4.8757,4.8711,4.8711,4.8711,4.8711,4.8862,4.8711,4.8474,4.8149,4.9161,4.9547,4.9147,4.9147,4.8932,4.8512,4.8512,4.8512,4.847,4.7969,4.7722,4.7812,4.7433,4.7517,4.8217,4.8168,4.7957,4.7906,4.7896,4.7896,4.7896,4.7896,4.7896,4.7865,4.7896,4.7896,4.7711,4.7127,4.6603,4.6603,4.6603,4.6713,4.6841,4.6919,4.6913,4.7035,4.7049,4.6955,4.6736,4.6591,4.6545,4.6545,4.6514,4.6296,4.5846,4.5752,4.5621,4.5142,4.498,4.4942,4.4799,4.4617,4.4579,4.451,4.4469,4.4452,4.5217,4.5904,4.6223,4.6807,4.7803,4.8576,4.8385,4.8608,4.9018,4.9018,4.9018,4.9049,4.9172,4.9324,4.9535,4.7309,4.7396,4.7934,4.8187,4.8271,4.878,4.8666,4.8229,4.8157,4.7849,4.7352,4.7309,4.7309,4.7369,4.7519,4.7826,4.8225,4.7615,4.7572,4.7938,4.7535,4.7347,4.7333,4.7154,4.7064,4.7092,4.7345,4.7759,4.8072,4.8304,4.8391,4.8468,4.8391,4.8391,4.8439,4.8439,4.8391,4.8391,4.8391,4.8468,4.8391,4.8391,4.8391,4.8552,4.9564,4.9793,4.8977,4.8947,4.8736,4.8356,4.8296,4.8296,4.8209,4.7716,4.754,4.773,4.757,4.7878,4.8767,4.884,4.8828,4.9028,4.9197,4.9281,4.9281,4.9281,4.9189,4.9035,4.8943,4.8912,4.8512,4.7773,4.725,4.725,4.725,4.737,4.761,4.7641,4.7706,4.7801,4.7743,4.7718,4.768,4.7572,4.7464,4.7488,4.7456,4.7237,4.6785,4.666,4.6497,4.5984,4.5946,4.5939,4.5894,4.5842,4.5094,4.4901,4.4709,4.4747,4.4955,4.5551,4.6056,4.6585,4.7338,4.8258,4.8767,4.8923,4.9018,4.9018,4.9018,4.9049,4.9141,4.9202,4.9415,4.7309,4.7309,4.7309,4.7396,4.7439,4.7495,4.7396,4.7499,4.7456,4.7546,4.7578,4.7429,4.7519,4.7549,4.8057,4.8341,4.8295,4.7802,4.7832,4.8281,4.8267,4.8432,4.8729,4.8609,4.8531,4.8512,4.8852,4.8938,4.8817,4.9253,4.9543,4.963,4.9543,4.9436,4.9611,4.9543,4.9582,4.9572,4.9514,4.9553,4.9717,4.9572,4.9543,4.9601,4.9718,4.9212,4.8056,4.7969,4.8004,4.7899,4.7823,4.78,4.7841,4.7748,4.7788,4.7794,4.7759,4.805,4.8499,4.8985,4.9386,4.9725,5.0314,5.0482,5.042,5.0482,5.0266,4.9805,4.9651,4.9466,4.8912,4.8696,4.8543,4.8573,4.8358,4.8522,4.8901,4.9025,4.8879,4.8584,4.8285,4.7966,4.7972,4.8092,4.8148,4.8117,4.8085,4.7984,4.7673,4.7572,4.7495,4.7285,4.7035,4.6879,4.709,4.7169,4.6129,4.5287,4.507,4.4953,4.5358,4.5841,4.6198,4.6759,4.7836,4.8671,4.8829,4.9018,4.9018,4.9018,4.9018,4.9018,4.908,4.9141,4.929,4.7309,4.7309,4.7309,4.7309,4.7309,4.7309,4.7549,4.7967,4.7967,4.8237,4.8596,4.87,4.8656,4.8686,4.894,4.9,4.8925,4.8745,4.8775,4.9,4.8985,4.9075,4.9164,4.8983,4.9008,4.9191,4.9333,4.9592,4.9831,4.995,4.999,4.9941,4.9795,4.9746,4.9746,4.9746,4.9746,4.9746,4.9746,4.9746,4.9746,4.9746,4.9746,4.9746,4.9746,4.9485,4.9136,4.8653,4.8217,4.784,4.7782,4.7782,4.7782,4.7782,4.7782,4.7829,4.8109,4.8341,4.8571,4.9209,4.9732,4.9968,5.0393,5.0654,5.0697,5.0728,5.0667,5.0389,5.0389,5.0236,5.0082,5.0051,4.962,4.8727,4.8604,4.8707,4.8872,4.8955,4.9025,4.9081,4.9039,4.9103,4.9229,4.9236,4.9173,4.9173,4.9205,4.9071,4.8622,4.8457,4.8243,4.7883,4.7781,4.7799,4.7847,4.7871,4.7278,4.643,4.5981,4.5487,4.5771,4.645,4.6773,4.7201,4.826,4.8767,4.8892,4.9018,4.9018,4.9018,4.9018,4.9018,4.9018,4.9111,4.9229,4.7309,4.7339,4.7578,4.7668,4.7698,4.7908,4.8267,4.867,4.8656,4.8895,4.9239,4.9299,4.9209,4.9224,4.9433,4.9507,4.9552,4.9715,4.9881,4.9942,4.9703,4.9733,4.9942,4.9835,4.9783,4.9922,4.9994,5.0106,5.0327,5.0279,5.0183,5.0086,4.9941,4.9844,4.9844,4.9746,4.9756,4.9988,5.0046,5.0211,5.0336,5.0394,5.0394,5.0423,5.0394,5.0394,5.0365,4.9988,4.9378,4.8682,4.8526,4.8526,4.8526,4.8555,4.8478,4.8574,4.8763,4.8981,4.9046,4.9694,5.02,5.0427,5.0906,5.1291,5.1423,5.1436,5.1374,5.1097,5.1067,5.0974,5.0728,5.0697,5.0266,4.9528,4.9435,4.9281,4.9108,4.9078,4.9118,4.9219,4.939,4.9653,4.9773,4.9892,4.986,4.99,4.99,4.9868,4.9394,4.9268,4.8952,4.8731,4.8818,4.8741,4.8537,4.8435,4.8341,4.7714,4.709,4.6524,4.6258,4.7457,4.8104,4.8132,4.8882,4.8675,4.8798,4.8923,4.9018,4.9018,4.9154,4.9018,4.9018,4.9018,4.9138,4.7399,4.7489,4.8087,4.8327,4.8416,4.894,4.9239,4.9314,4.9314,4.9374,4.9434,4.9508,4.9312,4.9218,4.9723,4.9931,5.002,5.0453,5.0709,5.076,5.0554,5.0541,5.093,5.0913,5.0803,5.0751,5.0733,5.0662,5.0552,5.06,5.0464,5.0495,5.0427,5.0233,5.033,4.9989,5.0191,5.0656,5.0714,5.1004,5.1468,5.1527,5.1527,5.1497,5.1468,5.1468,5.141,5.1323,5.0888,4.9959,4.9785,4.9785,4.9785,4.9834,4.9785,4.9785,4.9785,4.9834,4.9931,5.0445,5.0876,5.1225,5.1739,5.2231,5.2505,5.2442,5.2317,5.1857,5.1792,5.1528,5.1067,5.0974,5.0913,5.082,5.0574,5.0266,4.9816,4.9564,4.946,4.9274,4.9425,4.9604,4.9604,4.9733,4.9781,4.9852,4.9852,4.9789,4.9757,4.9663,4.9829,4.9742,4.9481,4.9418,4.915,4.915,4.9056,4.8757,4.8168,4.7606,4.7098,4.8102,4.9478,4.956,4.9384,4.9045,4.9108,4.9668,4.9695,4.9661,4.956,4.9187,4.912,4.9255,4.9218,4.8297,4.879,4.9,4.906,4.906,4.9269,4.9553,4.9942,4.9972,5.012,5.0339,5.0411,5.0211,5.0094,5.0212,5.033,5.0407,5.0639,5.0728,5.0728,5.0939,5.0973,5.1199,5.1229,5.1182,5.1165,5.1208,5.128,5.1631,5.1517,5.1657,5.2082,5.1601,5.1482,5.1441,5.1183,5.1178,5.1352,5.1381,5.1439,5.1614,5.1672,5.1643,5.1643,5.1672,5.1672,5.1643,5.1643,5.1527,5.1178,5.112,5.112,5.1033,5.1033,5.1004,5.1004,5.1062,5.1091,5.1162,5.1511,5.1935,5.2112,5.242,5.2858,5.2971,5.2896,5.2779,5.2566,5.2489,5.2346,5.2161,5.2144,5.2175,5.2052,5.1374,5.0697,5.0494,5.0352,5.0202,4.9822,4.9864,4.977,4.9559,4.9484,4.9524,4.9533,4.9613,4.9693,4.9693,4.9773,4.9812,4.9892,4.9765,4.9797,4.9797,4.9797,4.9765,4.9671,4.9253,4.8811,4.8365,4.8565,5.0111,5.126,5.0887,5.0512,5.0985,5.1555,5.115,5.0439,5.0507,5.0371,4.9965,4.9864,4.9593,4.8925,4.9329,4.9583,4.9673,4.9703,4.9972,5.0255,5.0461,5.0568,5.0607,5.0668,5.0775,5.0632,5.0357,5.0357,5.0327,5.0327,5.0442,5.0519,5.0626,5.1149,5.1506,5.1601,5.1648,5.1768,5.2037,5.2037,5.2229,5.2431,5.2364,5.2554,5.2615,5.2487,5.2338,5.2279,5.2117,5.2113,5.2318,5.2405,5.2464,5.2727,5.2603,5.2683,5.2654,5.2654,5.2552,5.2552,5.2478,5.2223,5.1788,5.1614,5.1643,5.1643,5.1643,5.1643,5.1643,5.1643,5.1614,5.1664,5.1917,5.2168,5.2367,5.2714,5.2911,5.3036,5.3026,5.2989,5.2946,5.2926,5.2992,5.3178,5.3177,5.287,5.2366,5.1857,5.1436,5.1159,5.0851,5.0586,5.0406,5.0306,5.0173,4.9698,4.9687,4.954,4.9394,4.9412,4.9452,4.9493,4.9613,4.9693,4.9773,4.9852,4.9852,4.9939,4.9979,5.0136,5.0104,5.0288,4.986,4.9898,4.9693,5.0712,5.1966,5.1996,5.2093,5.2264,5.2299,5.1725,5.1319,5.1522,5.1386,5.0879,5.0541,5.0236,4.9404,4.9523,5.0122,5.0285,5.0375,5.0913,5.0969,5.0887,5.1046,5.0917,5.0644,5.068,5.0489,5.0086,5.0038,5.0067,5.0155,5.034,5.0543,5.0924,5.1491,5.1932,5.2323,5.2318,5.2546,5.2905,5.3144,5.3077,5.3068,5.3196,5.3256,5.3268,5.3139,5.308,5.3079,5.2841,5.2918,5.3339,5.3377,5.3553,5.3825,5.3811,5.3811,5.3914,5.3811,5.3737,5.3743,5.3587,5.3082,5.1977,5.1868,5.1933,5.1904,5.1875,5.1875,5.1962,5.202,5.1991,5.1875,5.2042,5.2107,5.252,5.262,5.2673,5.306,5.3138,5.3117,5.3117,5.3107,5.3236,5.3481,5.3619,5.3146,5.2534,5.2459,5.2258,5.1826,5.1225,5.0882,5.079,5.0962,5.0708,5.0359,5.0175,5.0113,4.9553,4.948,4.9468,4.9415,4.9412,4.9493,4.9573,4.9653,4.9773,4.99,5.0097,5.0331,5.0493,5.0995,5.1099,5.1546,5.1578,5.1896,5.2404,5.3074,5.3004,5.2534,5.2365,5.2231,5.2164,5.23,5.1961,5.1555,5.1386,5.1116,5.0331,5.081,5.096,5.102,5.102,5.1169,5.1152,5.1058,5.1152,5.0899,5.0596,5.0548,5.0231,4.9795,4.9853,5.0028,5.0572,5.0778,5.1179,5.1955,5.1894,5.2455,5.2961,5.3019,5.3084,5.3264,5.3204,5.3424,5.3813,5.3943,5.4251,5.454,5.428,5.4357,5.4268,5.3947,5.392,5.4097,5.4097,5.4178,5.4296,5.4304,5.4252,5.4304,5.4252,5.42,5.42,5.4149,5.4002,5.3723,5.3296,5.3001,5.3001,5.3007,5.2978,5.2949,5.3007,5.3036,5.3094,5.3007,5.3065,5.3134,5.3208,5.3302,5.3377,5.3339,5.3284,5.3237,5.3129,5.3177,5.3253,5.3278,5.3086,5.2768,5.2532,5.2296,5.2148,5.2139,5.1857,5.1577,5.1467,5.1264,5.0691,5.0611,5.0356,4.9831,4.9636,4.9564,4.9429,4.9293,4.9281,4.9394,4.9452,4.9653,5.0253,5.0531,5.0989,5.122,5.1663,5.217,5.2597,5.2908,5.3044,5.3685,5.4563,5.4088,5.3107,5.3583,5.3719,5.3449,5.301,5.2706,5.2401,5.2232,5.2029,5.0853,5.1229,5.1229,5.1088,5.0899,5.1088,5.0917,5.0632,5.087,5.0537,4.9892,4.9892,4.9843,4.9729,4.9787,5.0233,5.1004,5.122,5.1792,5.244,5.2536,5.296,5.3655,5.376,5.3724,5.3724,5.3883,5.4171,5.438,5.457,5.485,5.5149,5.5027,5.4968,5.5006,5.4824,5.4713,5.4713,5.4743,5.4743,5.4743,5.459,5.4539,5.4539,5.4539,5.4539,5.4539,5.4355,5.4304,5.4252,5.4045,5.3815,5.371,5.371,5.3658,5.35,5.35,5.35,5.35,5.35,5.3471,5.35,5.35,5.35,5.3471,5.3412,5.3399,5.3385,5.3304,5.3213,5.2939,5.3426,5.3367,5.2832,5.2711,5.2498,5.2282,5.2087,5.2018,5.1819,5.1817,5.1584,5.1304,5.1089,5.082,5.0309,5.0229,5.0128,4.9634,4.9512,4.9285,4.9274,4.9272,4.9613,5.0416,5.1065,5.1733,5.2062,5.2454,5.2975,5.3449,5.3716,5.3949,5.4422,5.4727,5.446,5.3817,5.4465,5.4533,5.3822,5.3348,5.3315,5.3112,5.2604,5.257,5.1182,5.1088,5.1088,5.0805,5.0471,5.0757,5.0442,4.9815,5.0298,4.9912,4.9087,4.9215,4.9588,4.9709,4.9938,5.0593,5.1388,5.1991,5.2493,5.2865,5.3078,5.3444,5.3921,5.4002,5.4024,5.42,5.4391,5.4633,5.4684,5.4926,5.4887,5.5027,5.5158,5.5057,5.5108,5.5179,5.5128,5.5078,5.5078,5.5128,5.5128,5.4926,5.4824,5.4824,5.4824,5.4824,5.4773,5.4641,5.4458,5.4406,5.4406,5.4252,5.4126,5.3971,5.3867,5.3605,5.3605,5.3553,5.35,5.35,5.35,5.35,5.35,5.35,5.35,5.3524,5.3466,5.3495,5.3454,5.3308,5.2878,5.3355,5.3393,5.2939,5.2931,5.2762,5.2304,5.1679,5.1618,5.1711,5.1698,5.1516,5.1529,5.145,5.1185,5.0949,5.0869,5.0636,5.0143,4.9777,4.9636,4.9634,4.9721,5.0409,5.122,5.1954,5.2592,5.2767,5.3179,5.3483,5.3946,5.4013,5.4047,5.4177,5.4246,5.4115,5.412,5.4258,5.4159,5.3788,5.3619,5.3518,5.3247,5.2909,5.2976,5.0994,5.0644,5.0644,5.0327,4.9892,4.9912,4.9766,4.9424,4.9522,4.9178,4.8767,4.9323,4.9529,4.974,5.0349,5.1047,5.1828,5.2515,5.3019,5.3216,5.3477,5.3831,5.3704,5.3867,5.3762,5.3762,5.4126,5.4436,5.4355,5.4406,5.459,5.4539,5.4722,5.4824,5.4955,5.5027,5.5179,5.5179,5.5209,5.5209,5.5179,5.5128,5.5078,5.5078,5.5078,5.5078,5.5078,5.5078,5.5078,5.5027,5.5078,5.4875,5.4619,5.4385,5.4149,5.3919,5.3815,5.371,5.3553,5.35,5.35,5.35,5.35,5.35,5.35,5.35,5.35,5.35,5.35,5.3442,5.3384,5.3552,5.3558,5.3244,5.2946,5.2719,5.2456,5.2009,5.1542,5.1536,5.1439,5.1356,5.1469,5.1547,5.1409,5.1314,5.1325,5.1089,5.0697,5.0345,5.0091,5.0172,5.0327,5.1232,5.2241,5.2974,5.355,5.345,5.3617,5.3617,5.3948,5.398,5.4045,5.4078,5.4175,5.4209,5.4182,5.412,5.392,5.3619,5.3653,5.3687,5.3382,5.3078,5.3179,5.0567,5.0086,5.0086,4.9795,4.9404,4.9571,4.9375,4.893,4.9029,4.8981,4.8861,4.9098,4.9606,5.0114,5.0558,5.1307,5.2219,5.3064,5.3424,5.3424,5.3815,5.3942,5.3762,5.3815,5.3815,5.3838,5.4097,5.42,5.4149,5.4252,5.4252,5.4304,5.4487,5.4619,5.4803,5.4905,5.5078,5.5128,5.5209,5.5209,5.5209,5.5209,5.5209,5.5209,5.5209,5.5209,5.5209,5.5209,5.5179,5.5179,5.5179,5.5158,5.4976,5.4824,5.459,5.42,5.3993,5.3867,5.371,5.3605,5.35,5.35,5.35,5.35,5.35,5.35,5.35,5.35,5.35,5.35,5.3471,5.35,5.35,5.3471,5.321,5.292,5.2601,5.2281,5.1938,5.1532,5.1461,5.1453,5.1276,5.1359,5.1484,5.1622,5.1743,5.1539,5.1238,5.095,5.0669,5.0951,5.1172,5.1917,5.2761,5.328,5.385,5.3849,5.3849,5.3849,5.3882,5.3882,5.3882,5.3881,5.4013,5.411,5.4014,5.3885,5.3719,5.3551,5.3551,5.3518,5.3416,5.3315,5.3315,5.0038,4.9551,4.9522,4.9227,4.8859,4.9178,4.898,4.8509,4.8701,4.881,4.8822,4.9081,4.9749,5.0584,5.1082,5.1607,5.2573,5.3025,5.329,5.35,5.3919,5.4045,5.3942,5.4097,5.4097,5.3785,5.4149,5.4149,5.3993,5.4097,5.4149,5.4097,5.4149,5.4355,5.4619,5.4773,5.4926,5.5078,5.5209,5.5209,5.5209,5.5209,5.5209,5.5209,5.5209,5.5209,5.5209,5.5209,5.5209,5.5209,5.5209,5.5209,5.5179,5.5179,5.4976,5.4539,5.4178,5.3993,5.3815,5.3658,5.35,5.35,5.35,5.35,5.35,5.35,5.35,5.35,5.35,5.35,5.35,5.35,5.35,5.35,5.3471,5.3355,5.3007,5.2717,5.2455,5.2121,5.1745,5.1532,5.1416,5.1276,5.1419,5.188,5.2002,5.2166,5.1854,5.159,5.1406,5.1797,5.2162,5.2693,5.3136,5.3279,5.3652,5.3685,5.3685,5.3685,5.3751,5.3784,5.375,5.3717,5.375,5.385,5.3717,5.3684,5.3651,5.3551,5.3484,5.345,5.3382,5.3281,5.318,4.9473,4.9009,4.9009,4.871,4.8258,4.8308,4.8134,4.7963,4.8462,4.8482,4.8683,4.9651,5.0316,5.0759,5.1395,5.1757,5.2085,5.2516,5.289,5.3184,5.371,5.3815,5.3658,5.4097,5.3993,5.3867,5.4149,5.4097,5.4075,5.4075,5.3867,5.3762,5.3942,5.4045,5.4385,5.4671,5.4926,5.5128,5.5179,5.5209,5.5209,5.5209,5.5209,5.5209,5.5209,5.5209,5.5209,5.5209,5.5209,5.5209,5.5209,5.5209,5.5209,5.5209,5.5179,5.4976,5.459,5.4149,5.3942,5.3762,5.3605,5.3605,5.3553,5.35,5.35,5.35,5.35,5.35,5.35,5.35,5.35,5.35,5.35,5.35,5.35,5.35,5.3326,5.3152,5.2891,5.263,5.2304,5.1912,5.1699,5.153,5.1416,5.188,5.2291,5.2471,5.2657,5.2499,5.2328,5.2677,5.325,5.3766,5.3646,5.3753,5.3619,5.3619,5.3551,5.3551,5.3584,5.3651,5.3584,5.3551,5.3618,5.3651,5.3685,5.3651,5.3618,5.3551,5.345,5.345,5.345,5.3281,5.3146,4.866,4.8459,4.8459,4.8308,4.8134,4.8083,4.8229,4.8462,4.8558,4.9008,4.9674,5.0204,5.0732,5.1231,5.1648,5.1787,5.1896,5.2355,5.2677,5.289,5.3343,5.35,5.35,5.389,5.4075,5.3971,5.4385,5.4671,5.4466,5.4178,5.3993,5.3815,5.3942,5.4097,5.423,5.4568,5.4773,5.5006,5.5108,5.5209,5.5209,5.5209,5.5209,5.5209,5.5209,5.5209,5.5209,5.5209,5.5209,5.5209,5.5209,5.5209,5.5209,5.5209,5.5179,5.5128,5.4824,5.4568,5.4414,5.4126,5.3971,5.3919,5.3815,5.3658,5.3553,5.35,5.35,5.35,5.35,5.35,5.35,5.35,5.35,5.35,5.35,5.35,5.35,5.35,5.3326,5.3065,5.2827,5.2413,5.215,5.2021,5.1768,5.1693,5.2458,5.3064,5.3564,5.4031,5.3824,5.3673,5.4274,5.4899,5.453,5.4261,5.3889,5.3788,5.3585,5.3585,5.3518,5.3518,5.3518,5.3518,5.3551,5.3551,5.3584,5.3584,5.3551,5.3484,5.3416,5.345,5.345,5.345,5.3348,4.8083,4.8083,4.8083,4.8083,4.8111,4.8223,4.856,4.8981,4.9218,4.9858,5.0665,5.0895,5.1231,5.1648,5.1759,5.1787,5.1841,5.2193,5.2462,5.273,5.2943,5.3131,5.3261,5.3733,5.4097,5.3867,5.4722,5.5006,5.4875,5.4671,5.4385,5.3993,5.4149,5.4282,5.4282,5.4568,5.4854,5.5006,5.5158,5.5179,5.5209,5.5209,5.5209,5.5209,5.5209,5.5209,5.5209,5.5209,5.5209,5.5209,5.5209,5.5209,5.5209,5.5209,5.5209,5.5179,5.4976,5.4875,5.4722,5.4539,5.4355,5.42,5.4045,5.3762,5.3553,5.35,5.35,5.35,5.35,5.35,5.35,5.35,5.35,5.35,5.35,5.35,5.35,5.35,5.35,5.3355,5.3117,5.293,5.2674,5.2586,5.2312,5.1837,5.2398,5.3502,5.4355,5.5129,5.5182,5.4914,5.5264,5.5817,5.5547,5.504,5.4532,5.4025,5.3822,5.3619,5.3619,5.3551,5.3518,5.3518,5.3518,5.3518,5.3551,5.3551,5.3518,5.345,5.3416,5.3416,5.345,5.345,5.3484,4.8083,4.8083,4.8134,4.8111,4.819,4.8701,4.8953,4.9234,5.0269,5.0719,5.1028,5.1421,5.162,5.1787,5.1787,5.1787,5.1787,5.1841,5.2167,5.2408,5.2623,5.2623,5.289,5.3419,5.3993,5.3815,5.4568,5.5027,5.5158,5.5027,5.4743,5.4355,5.4436,5.4539,5.4619,5.4671,5.4955,5.5057,5.5179,5.5179,5.5209,5.5209,5.5209,5.5209,5.5209,5.5209,5.5209,5.5209,5.5209,5.5209,5.5209,5.5209,5.5209,5.5209,5.5209,5.5179,5.5128,5.5078,5.5027,5.4692,5.4406,5.4252,5.4097,5.3867,5.3605,5.353,5.353,5.35,5.35,5.35,5.35,5.35,5.35,5.35,5.35,5.35,5.35,5.35,5.35,5.35,5.3379,5.3169,5.3414,5.3347,5.2815,5.2339,5.3308,5.4369,5.5198,5.5883,5.6183,5.6249,5.6415,5.6626,5.6562,5.6055,5.5378,5.4769,5.4397,5.4025,5.3721,5.3653,5.3518,5.3518,5.3518,5.3518,5.3518,5.3518,5.3484,5.345,5.3416,5.345,5.3382,5.3314,5.3349,4.8083,4.8111,4.8476,4.8644,4.8644,4.8897,4.9483,5.0157,5.0663,5.1112,5.1421,5.1674,5.1787,5.1787,5.1787,5.1787,5.1787,5.1787,5.1922,5.2059,5.2113,5.2085,5.2408,5.2837,5.3314,5.3605,5.4282,5.4926,5.5179,5.5128,5.5078,5.4926,5.4794,5.4641,5.4641,5.4773,5.4926,5.5158,5.5209,5.5209,5.5209,5.5209,5.5209,5.5209,5.5209,5.5209,5.5209,5.5209,5.5209,5.5209,5.5209,5.5209,5.5209,5.5209,5.5209,5.5209,5.5209,5.5209,5.5179,5.4976,5.4824,5.4619,5.4517,5.4259,5.3815,5.3762,5.3605,5.3553,5.35,5.35,5.35,5.35,5.35,5.35,5.35,5.35,5.35,5.35,5.35,5.35,5.35,5.3384,5.3759,5.4082,5.3488,5.3001,5.4166,5.5231,5.5995,5.6575,5.6844,5.6958,5.7113,5.7065,5.6968,5.6562,5.6122,5.5547,5.4972,5.4634,5.4228,5.3619,5.3518,5.3518,5.3518,5.3518,5.3518,5.3518,5.3484,5.3484,5.345,5.345,5.3348,5.3246,5.3247,4.8083,4.8139,4.8729,4.8981,4.9037,4.9374,5.0073,5.0857,5.1084,5.1365,5.1787,5.1787,5.1787,5.1787,5.1787,5.1787,5.1787,5.1787,5.1787,5.1841,5.1841,5.1787,5.2004,5.2355,5.289,5.3343,5.3762,5.4333,5.4568,5.4824,5.4794,5.4845,5.5078,5.4896,5.4794,5.4773,5.5027,5.5128,5.5209,5.5209,5.5209,5.5209,5.5209,5.5209,5.5209,5.5209,5.5209,5.5209,5.5209,5.5209,5.5209,5.5209,5.5209,5.5209,5.5209,5.5209,5.5209,5.5209,5.5209,5.5209,5.5108,5.4803,5.4803,5.4466,5.4178,5.3942,5.3762,5.3658,5.3553,5.35,5.35,5.35,5.35,5.35,5.35,5.35,5.35,5.35,5.35,5.35,5.35,5.3524,5.3958,5.4451,5.4961,5.4584,5.5315,5.621,5.6806,5.7256,5.7406,5.748,5.749,5.7367,5.7239,5.7036,5.6833,5.6325,5.5784,5.5412,5.4938,5.4262,5.3856,5.3957,5.389,5.3619,5.3518,5.3518,5.3518,5.3518,5.3484,5.3484,5.3348,5.3246,5.3144,4.8134,4.8139,4.8757,4.9037,4.9234,5.0326,5.0831,5.1028,5.1478,5.1731,5.1787,5.1787,5.1787,5.1787,5.1787,5.1787,5.1787,5.1787,5.1787,5.1787,5.1787,5.1787,5.195,5.2275,5.257,5.2759,5.3237,5.3553,5.371,5.4252,5.4406,5.459,5.4896,5.5128,5.5128,5.5179,5.5179,5.5209,5.5209,5.5209,5.5209,5.5209,5.5209,5.5209,5.5209,5.5209,5.5209,5.5209,5.5209,5.5209,5.5209,5.5209,5.5209,5.5209,5.5209,5.5209,5.5209,5.5209,5.5209,5.5209,5.5108,5.4905,5.4905,5.4671,5.4355,5.4097,5.3971,5.3919,5.3762,5.3553,5.35,5.35,5.3553,5.35,5.35,5.35,5.35,5.35,5.35,5.35,5.35,5.3576,5.4068,5.4748,5.5991,5.6435,5.6808,5.7264,5.7741,5.7867,5.7971,5.7772,5.7701,5.7707,5.7577,5.7712,5.7543,5.7036,5.6528,5.6089,5.5615,5.504,5.4702,5.4566,5.4228,5.3923,5.3721,5.3518,5.3518,5.3518,5.3518,5.3484,5.3314,5.3213,5.3144,4.8359,4.8729,4.9398,4.9876,5.0297,5.0691,5.1084,5.1478,5.1702,5.1787,5.1787,5.1787,5.1787,5.1787,5.1787,5.1787,5.1787,5.1787,5.1787,5.1787,5.1787,5.1787,5.1896,5.2004,5.2275,5.257,5.2919,5.3131,5.3553,5.389,5.42,5.4458,5.4845,5.5179,5.5179,5.5209,5.5209,5.5209,5.5209,5.5209,5.5209,5.5209,5.5209,5.5209,5.5209,5.5209,5.5209,5.5209,5.5209,5.5209,5.5209,5.5209,5.5209,5.5209,5.5209,5.5209,5.5209,5.5209,5.5209,5.5209,5.5209,5.5108,5.5057,5.4875,5.4671,5.4568,5.4385,5.423,5.4045,5.3919,5.3815,5.3762,5.3762,5.3553,5.35,5.35,5.35,5.35,5.35,5.35,5.35,5.4193,5.4759,5.5406,5.6555,5.7603,5.7993,5.819,5.8601,5.8548,5.8555,5.8048,5.7845,5.7881,5.7881,5.7881,5.7881,5.7509,5.7036,5.663,5.6156,5.575,5.5513,5.531,5.4769,5.4228,5.4059,5.3856,5.3585,5.3518,5.3518,5.3518,5.3416,5.3314,5.3179,4.8616,4.9066,4.9932,5.0547,5.0941,5.1112,5.145,5.1731,5.1787,5.1787,5.1787,5.1787,5.1787,5.1787,5.1787,5.1787,5.1787,5.1787,5.1787,5.1787,5.1787,5.1787,5.1787,5.1787,5.2004,5.2247,5.2355,5.2544,5.2812,5.3419,5.389,5.4304,5.4845,5.5128,5.5209,5.5209,5.5209,5.5209,5.5209,5.5209,5.5209,5.5209,5.5209,5.5209,5.5209,5.5209,5.5209,5.5209,5.5209,5.5239,5.5239,5.5239,5.5239,5.5209,5.5209,5.5209,5.5209,5.5209,5.5209,5.5209,5.5209,5.5209,5.5209,5.5108,5.4955,5.4803,5.4671,5.4487,5.4406,5.4252,5.4097,5.4045,5.3867,5.3658,5.3553,5.3553,5.35,5.35,5.35,5.35,5.3605,5.442,5.522,5.6291,5.7167,5.8209,5.9165,5.9305,5.9347,5.9152,5.8961,5.8457,5.8017,5.7915,5.7915,5.7881,5.7881,5.7881,5.7509,5.7103,5.6934,5.6596,5.6325,5.5986,5.5446,5.4938,5.4532,5.4262,5.3991,5.3721,5.3518,5.3518,5.3518,5.3382,5.328,4.8981,4.9206,5.0382,5.0888,5.1,5.1506,5.1759,5.1787,5.1787,5.1787,5.1787,5.1787,5.1787,5.1787,5.1787,5.1787,5.1787,5.1787,5.1787,5.1787,5.1787,5.1787,5.1787,5.1787,5.1896,5.1841,5.1896,5.2004,5.195,5.2623,5.3366,5.42,5.4743,5.5027,5.5128,5.5329,5.5299,5.5239,5.5209,5.5209,5.5209,5.5299,5.5388,5.5448,5.5508,5.5568,5.5568,5.5538,5.5478,5.5448,5.5388,5.5359,5.5299,5.5239,5.5239,5.5209,5.5209,5.5209,5.5209,5.5209,5.5209,5.5209,5.5209,5.5179,5.5128,5.4976,5.4875,5.4773,5.4641,5.4487,5.4355,5.4149,5.4023,5.3867,5.3658,5.3605,5.3553,5.3553,5.35,5.35,5.35,5.4016,5.4807,5.5865,5.7246,5.8228,5.9188,6.0141,6.0086,5.9578,5.9321,5.8863,5.8423,5.8017,5.7949,5.7915,5.7881,5.7881,5.7881,5.7577,5.7476,5.734,5.7036,5.6664,5.6121,5.5614,5.5108,5.4702,5.4397,5.4126,5.3856,5.3585,5.3619,5.3518,5.3416,4.9286,4.9764,5.055,5.1112,5.1506,5.1702,5.1787,5.1787,5.1787,5.1787,5.1787,5.1787,5.1787,5.1787,5.1787,5.1787,5.1787,5.1787,5.1787,5.1787,5.1787,5.1787,5.1787,5.1787,5.1787,5.1787,5.1787,5.1787,5.195,5.2301,5.3155,5.42,5.4495,5.4803,5.5236,5.5658,5.5538,5.5418,5.5388,5.5388,5.5478,5.5688,5.5807,5.5927,5.6226,5.6316,5.6376,5.6406,5.6406,5.6466,5.6496,5.6526,5.6526,5.6137,5.5777,5.5239,5.5209,5.5209,5.5209,5.5209,5.5209,5.5209,5.5209,5.5209,5.5179,5.5128,5.5027,5.4976,5.4926,5.4794,5.4641,5.4487,5.4333,5.4178,5.3971,5.3815,5.371,5.3605,5.3605,5.35,5.35,5.3658,5.4377,5.5728,5.7119,5.8053,5.9085,6.0223,6.0792,6.0298,5.9924,5.9502,5.8829,5.8423,5.8051,5.7915,5.7915,5.7881,5.7881,5.7881,5.7746,5.7611,5.7577,5.7306,5.6833,5.6224,5.5581,5.5277,5.5141,5.4634,5.4329,5.3991,5.3687,5.3619,5.3518,4.9764,5.0435,5.1,5.145,5.1731,5.1787,5.1787,5.1787,5.1787,5.1787,5.1787,5.1787,5.1787,5.1787,5.1787,5.1787,5.1787,5.1787,5.1787,5.1787,5.1787,5.1787,5.1787,5.1787,5.1787,5.1787,5.1787,5.1787,5.195,5.2329,5.3102,5.35,5.3961,5.4687,5.5234,5.5775,5.6109,5.6034,5.5987,5.5957,5.6077,5.6286,5.6466,5.6615,5.7004,5.7094,5.7154,5.7154,5.7154,5.7124,5.7094,5.7094,5.7064,5.6675,5.6466,5.6017,5.5748,5.5688,5.5598,5.5299,5.5239,5.5209,5.5209,5.5209,5.5209,5.5179,5.5179,5.5128,5.5128,5.5128,5.4976,5.4824,5.4671,5.4487,5.4282,5.3993,5.3919,5.3762,5.3658,5.35,5.35,5.35,5.4326,5.5679,5.6769,5.7527,5.8709,6.0171,6.0835,6.0863,6.0627,6.0347,5.9539,5.8795,5.8423,5.8084,5.7949,5.7915,5.7881,5.7881,5.7881,5.7848,5.7746,5.7645,5.7509,5.6934,5.6359,5.6156,5.5953,5.548,5.5006,5.4668,5.4228,5.3721,5.3619,5.0407,5.0888,5.1534,5.1759,5.1787,5.1787,5.1787,5.1787,5.1787,5.1787,5.1787,5.1787,5.1787,5.1787,5.1787,5.1787,5.1787,5.1787,5.1787,5.1787,5.1787,5.1787,5.1787,5.1787,5.1787,5.1787,5.1787,5.1787,5.195,5.2221,5.2519,5.2709,5.3708,5.4638,5.5453,5.612,5.6621,5.7012,5.7094,5.7154,5.7004,5.7064,5.7184,5.7184,5.7304,5.7363,5.7363,5.7304,5.7244,5.7274,5.7304,5.7393,5.7244,5.7244,5.7154,5.6885,5.6436,5.6166,5.5957,5.5628,5.5359,5.5239,5.5209,5.5209,5.5209,5.5209,5.5209,5.5209,5.5179,5.5179,5.5078,5.4976,5.4875,5.4773,5.4568,5.4282,5.4045,5.3867,5.3605,5.35,5.35,5.3553,5.389,5.523,5.6721,5.7229,5.8619,6.0269,6.0929,6.126,6.12,6.1057,6.0419,5.9539,5.8829,5.8457,5.8084,5.7983,5.7915,5.7881,5.7881,5.7881,5.7881,5.7848,5.7848,5.7679,5.7306,5.7205,5.6934,5.6359,5.5886,5.5446,5.4905,5.4296,5.3754,5.08,5.0944,5.1534,5.1787,5.1787,5.1787,5.1787,5.1787,5.1787,5.1787,5.1787,5.1787,5.1787,5.1787,5.1787,5.1787,5.1787,5.1787,5.1787,5.1787,5.1787,5.1787,5.1787,5.1787,5.1787,5.1787,5.1787,5.1815,5.1926,5.2117,5.2559,5.3283,5.3927,5.4508,5.5883,5.6525,5.7148,5.7849,5.8171,5.7902,5.7393,5.7663,5.7872,5.8022,5.8171,5.8411,5.8471,5.853,5.856,5.862,5.865,5.8381,5.7932,5.7902,5.7603,5.7184,5.7034,5.6735,5.6376,5.6047,5.5688,5.5359,5.5239,5.5209,5.5209,5.5209,5.5209,5.5209,5.5209,5.5209,5.5179,5.5128,5.5027,5.4926,5.4824,5.4539,5.4252,5.3971,5.3658,5.3553,5.35,5.3762,5.4045,5.5059,5.6335,5.7869,5.9566,6.0903,6.1383,6.1715,6.161,6.1429,6.1264,6.0486,5.9641,5.8829,5.8457,5.8118,5.7983,5.7915,5.7881,5.7881,5.7881,5.8084,5.8152,5.8051,5.8152,5.849,5.8118,5.7374,5.6867,5.6461,5.5886,5.5243,5.4465,5.1028,5.1309,5.1646,5.1787,5.1787,5.1787,5.1787,5.1787,5.1787,5.1787,5.1787,5.1787,5.1787,5.1787,5.1787,5.1787,5.1787,5.1787,5.1787,5.1787,5.1787,5.1787,5.1787,5.1787,5.1787,5.1787,5.1815,5.1871,5.2096,5.2319,5.2793,5.358,5.3946,5.4787,5.6209,5.6954,5.769,5.8537,5.8949,5.862,5.7902,5.8321,5.856,5.874,5.886,5.9099,5.9099,5.9099,5.9099,5.9069,5.9039,5.8919,5.862,5.856,5.8381,5.8052,5.7782,5.7393,5.7004,5.6526,5.6077,5.5718,5.5269,5.5239,5.5209,5.5209,5.5209,5.5209,5.5209,5.5209,5.5209,5.5128,5.5128,5.5078,5.5027,5.4875,5.4487,5.4126,5.3867,5.3762,5.3971,5.4428,5.5059,5.6449,5.7668,5.8268,5.9989,6.1144,6.1628,6.2024,6.188,6.1801,6.1603,6.1298,6.0588,5.9641,5.8795,5.8457,5.8152,5.7949,5.7881,5.7881,5.7915,5.8051,5.8254,5.8457,5.866,5.8998,5.8998,5.8321,5.7881,5.7543,5.6867,5.6224,5.5513,5.1309,5.1759,5.1787,5.1787,5.1787,5.1787,5.1787,5.1787,5.1787,5.1787,5.1787,5.1787,5.1787,5.1787,5.1787,5.1787,5.1787,5.1787,5.1787,5.1787,5.1787,5.1787,5.1787,5.1787,5.1787,5.1871,5.1955,5.2264,5.2574,5.277,5.3164,5.3782,5.4488,5.5225,5.6301,5.7093,5.7775,5.8654,5.9099,5.9099,5.9069,5.9099,5.9039,5.9069,5.9099,5.9099,5.9099,5.9099,5.9099,5.9099,5.9099,5.9039,5.9009,5.8949,5.8979,5.874,5.8441,5.8171,5.7812,5.7124,5.6585,5.6077,5.5568,5.5329,5.5299,5.5209,5.5209,5.5209,5.5209,5.5209,5.5209,5.5209,5.5209,5.5209,5.5128,5.5027,5.4671,5.4282,5.4126,5.3971,5.4304,5.4836,5.5975,5.7434,5.8405,5.8992,5.9903,6.0903,6.1669,6.1951,6.2088,6.2037,6.1941,6.1603,6.1197,6.052,5.9539,5.9066,5.8761,5.8287,5.7915,5.7881,5.7881,5.7949,5.8152,5.8558,5.8896,5.9201,5.9099,5.9099,5.866,5.8186,5.778,5.7137,5.6596,5.1674,5.1787,5.1787,5.1787,5.1787,5.1787,5.1787,5.1787,5.1787,5.1787,5.1787,5.1787,5.1787,5.1787,5.1787,5.1787,5.1787,5.1787,5.1787,5.1787,5.1787,5.1787,5.1787,5.1787,5.1787,5.1955,5.2236,5.2602,5.3079,5.3388,5.381,5.44,5.4456,5.5396,5.6875,5.7472,5.7807,5.8664,5.9099,5.9099,5.9099,5.9099,5.9099,5.9099,5.9099,5.9099,5.9099,5.9099,5.9099,5.9099,5.9099,5.9099,5.9099,5.9099,5.9099,5.9099,5.883,5.862,5.8171,5.7752,5.7244,5.6496,5.6017,5.5658,5.5508,5.5209,5.5209,5.5209,5.5209,5.5209,5.5209,5.5209,5.5209,5.5158,5.5078,5.5006,5.4751,5.4436,5.423,5.4097,5.4149,5.4735,5.546,5.6865,5.8191,5.9036,6.0322,6.1268,6.2024,6.2183,6.2263,6.2201,6.2178,6.1806,6.14,6.1231,6.0486,5.9945,5.9268,5.866,5.8186,5.7915,5.7881,5.7915,5.8287,5.8761,5.9066,5.9268,5.9607,5.9539,5.9167,5.8761,5.8423,5.8017,5.7442]}]]